Wetterdaten: Samstag, 17.09.2016
Datum Zeit Temp. A. Feuchte A. Luftdruck Regen Wind Richtung Richtung Sonnenschein ET UV Solar Taupunkt Windchill Windben Empfang
17.09.2016 00:00 17,9 C 91 % 1007,6 hPa 0,0 l/m 2,8 km/h (1 Bft) S-SW 193 0 min 0,000 mm 0,0 UV-I 0 W/m 16,4 C 17,9 C 4,8 km/h (1 Bft) 97,87 %
17.09.2016 00:02 17,9 C 91 % 1007,6 hPa 0,0 l/m 2,6 km/h (1 Bft) S-SW 193 0 min 0,000 mm 0,0 UV-I 0 W/m 16,4 C 17,9 C 4,8 km/h (1 Bft) 97,56 %
17.09.2016 00:04 17,9 C 91 % 1007,7 hPa 0,0 l/m 2,4 km/h (1 Bft) S 188 0 min 0,000 mm 0,0 UV-I 0 W/m 16,4 C 17,9 C 4,8 km/h (1 Bft) 100,00 %
17.09.2016 00:06 17,9 C 91 % 1007,7 hPa 0,0 l/m 3,4 km/h (1 Bft) S 187 0 min 0,000 mm 0,0 UV-I 0 W/m 16,4 C 17,9 C 6,4 km/h (2 Bft) 100,00 %
17.09.2016 00:08 17,9 C 91 % 1007,8 hPa 0,0 l/m 2,3 km/h (1 Bft) S 187 0 min 0,000 mm 0,0 UV-I 0 W/m 16,4 C 17,9 C 4,8 km/h (1 Bft) 100,00 %
17.09.2016 00:10 17,9 C 92 % 1007,8 hPa 0,0 l/m 2,9 km/h (1 Bft) S 188 0 min 0,000 mm 0,0 UV-I 0 W/m 16,6 C 17,9 C 6,4 km/h (2 Bft) 100,00 %
17.09.2016 00:12 17,9 C 92 % 1007,8 hPa 0,0 l/m 3,5 km/h (1 Bft) S 188 0 min 0,000 mm 0,0 UV-I 0 W/m 16,6 C 17,9 C 6,4 km/h (2 Bft) 97,92 %
17.09.2016 00:14 17,9 C 91 % 1007,8 hPa 0,0 l/m 1,5 km/h (1 Bft) S 188 0 min 0,000 mm 0,0 UV-I 0 W/m 16,4 C 17,9 C 3,2 km/h (1 Bft) 97,87 %
17.09.2016 00:16 17,8 C 91 % 1007,8 hPa 0,0 l/m 0,5 km/h (0 Bft) S 188 0 min 0,000 mm 0,0 UV-I 0 W/m 16,3 C 17,8 C 1,6 km/h (1 Bft) 100,00 %
17.09.2016 00:18 17,8 C 91 % 1007,8 hPa 0,0 l/m 0,8 km/h (0 Bft) S 188 0 min 0,000 mm 0,0 UV-I 0 W/m 16,3 C 17,8 C 1,6 km/h (1 Bft) 100,00 %
17.09.2016 00:20 17,8 C 91 % 1007,8 hPa 0,0 l/m 1,7 km/h (1 Bft) S 188 0 min 0,000 mm 0,0 UV-I 0 W/m 16,3 C 17,8 C 3,2 km/h (1 Bft) 95,74 %
17.09.2016 00:22 17,8 C 92 % 1007,8 hPa 0,0 l/m 2,3 km/h (1 Bft) S 188 0 min 0,000 mm 0,0 UV-I 0 W/m 16,5 C 17,8 C 3,2 km/h (1 Bft) 100,00 %
17.09.2016 00:24 17,8 C 92 % 1007,7 hPa 0,0 l/m 2,6 km/h (1 Bft) S 188 0 min 0,000 mm 0,0 UV-I 0 W/m 16,5 C 17,8 C 4,8 km/h (1 Bft) 97,87 %
17.09.2016 00:26 17,8 C 92 % 1007,7 hPa 0,0 l/m 2,2 km/h (1 Bft) S 188 0 min 0,000 mm 0,0 UV-I 0 W/m 16,5 C 17,8 C 3,2 km/h (1 Bft) 100,00 %
17.09.2016 00:28 17,8 C 92 % 1007,6 hPa 0,0 l/m 1,9 km/h (1 Bft) S 188 0 min 0,000 mm 0,0 UV-I 0 W/m 16,5 C 17,8 C 3,2 km/h (1 Bft) 97,87 %
17.09.2016 00:30 17,8 C 92 % 1007,7 hPa 0,0 l/m 3,5 km/h (1 Bft) S 188 0 min 0,000 mm 0,0 UV-I 0 W/m 16,5 C 17,8 C 4,8 km/h (1 Bft) 100,00 %
17.09.2016 00:32 17,8 C 92 % 1007,7 hPa 0,0 l/m 4,0 km/h (1 Bft) S 188 0 min 0,000 mm 0,0 UV-I 0 W/m 16,5 C 17,8 C 6,4 km/h (2 Bft) 100,00 %
17.09.2016 00:34 17,8 C 92 % 1007,7 hPa 0,0 l/m 2,3 km/h (1 Bft) S 188 0 min 0,000 mm 0,0 UV-I 0 W/m 16,5 C 17,8 C 3,2 km/h (1 Bft) 100,00 %
17.09.2016 00:36 17,8 C 92 % 1007,6 hPa 0,0 l/m 2,2 km/h (1 Bft) S 188 0 min 0,000 mm 0,0 UV-I 0 W/m 16,5 C 17,8 C 4,8 km/h (1 Bft) 97,87 %
17.09.2016 00:38 17,8 C 92 % 1007,6 hPa 0,0 l/m 2,5 km/h (1 Bft) S 188 0 min 0,000 mm 0,0 UV-I 0 W/m 16,5 C 17,8 C 4,8 km/h (1 Bft) 100,00 %
17.09.2016 00:40 17,8 C 92 % 1007,5 hPa 0,0 l/m 2,1 km/h (1 Bft) S 188 0 min 0,000 mm 0,0 UV-I 0 W/m 16,5 C 17,8 C 3,2 km/h (1 Bft) 97,87 %
17.09.2016 00:42 17,7 C 92 % 1007,6 hPa 0,0 l/m 2,0 km/h (1 Bft) S 188 0 min 0,000 mm 0,0 UV-I 0 W/m 16,4 C 17,7 C 3,2 km/h (1 Bft) 100,00 %
17.09.2016 00:44 17,7 C 92 % 1007,6 hPa 0,0 l/m 2,7 km/h (1 Bft) S 188 0 min 0,000 mm 0,0 UV-I 0 W/m 16,4 C 17,7 C 4,8 km/h (1 Bft) 100,00 %
17.09.2016 00:46 17,7 C 92 % 1007,6 hPa 0,0 l/m 3,1 km/h (1 Bft) S 188 0 min 0,000 mm 0,0 UV-I 0 W/m 16,4 C 17,7 C 4,8 km/h (1 Bft) 100,00 %
17.09.2016 00:48 17,6 C 92 % 1007,5 hPa 0,0 l/m 3,0 km/h (1 Bft) S 188 0 min 0,000 mm 0,0 UV-I 0 W/m 16,3 C 17,6 C 4,8 km/h (1 Bft) 100,00 %
17.09.2016 00:50 17,6 C 92 % 1007,6 hPa 0,0 l/m 3,7 km/h (1 Bft) S 188 0 min 0,000 mm 0,0 UV-I 0 W/m 16,3 C 17,6 C 4,8 km/h (1 Bft) 100,00 %
17.09.2016 00:52 17,7 C 92 % 1007,5 hPa 0,0 l/m 3,7 km/h (1 Bft) S 188 0 min 0,000 mm 0,0 UV-I 0 W/m 16,4 C 17,7 C 4,8 km/h (1 Bft) 100,00 %
17.09.2016 00:54 17,7 C 92 % 1007,5 hPa 0,0 l/m 3,5 km/h (1 Bft) S 188 0 min 0,000 mm 0,0 UV-I 0 W/m 16,4 C 17,7 C 6,4 km/h (2 Bft) 100,00 %
17.09.2016 00:56 17,7 C 92 % 1007,3 hPa 0,0 l/m 2,6 km/h (1 Bft) S 188 0 min 0,000 mm 0,0 UV-I 0 W/m 16,4 C 17,7 C 4,8 km/h (1 Bft) 100,00 %
17.09.2016 00:58 17,7 C 92 % 1007,3 hPa 0,0 l/m 2,1 km/h (1 Bft) S 188 0 min 0,000 mm 0,0 UV-I 0 W/m 16,4 C 17,7 C 3,2 km/h (1 Bft) 100,00 %
17.09.2016 01:00 17,7 C 92 % 1007,3 hPa 0,0 l/m 2,3 km/h (1 Bft) S 188 0 min 0,000 mm 0,0 UV-I 0 W/m 16,4 C 17,7 C 4,8 km/h (1 Bft) 100,00 %
17.09.2016 01:02 17,6 C 92 % 1007,3 hPa 0,0 l/m 2,1 km/h (1 Bft) S 188 0 min 0,000 mm 0,0 UV-I 0 W/m 16,3 C 17,6 C 3,2 km/h (1 Bft) 100,00 %
17.09.2016 01:04 17,6 C 92 % 1007,2 hPa 0,0 l/m 2,3 km/h (1 Bft) S 188 0 min 0,000 mm 0,0 UV-I 0 W/m 16,3 C 17,6 C 4,8 km/h (1 Bft) 97,87 %
17.09.2016 01:06 17,6 C 93 % 1007,1 hPa 0,0 l/m 1,8 km/h (1 Bft) S 188 0 min 0,000 mm 0,0 UV-I 0 W/m 16,5 C 17,6 C 3,2 km/h (1 Bft) 97,87 %
17.09.2016 01:08 17,6 C 92 % 1007,2 hPa 0,0 l/m 2,3 km/h (1 Bft) S 188 0 min 0,000 mm 0,0 UV-I 0 W/m 16,3 C 17,6 C 3,2 km/h (1 Bft) 100,00 %
17.09.2016 01:10 17,6 C 93 % 1007,2 hPa 0,0 l/m 3,2 km/h (1 Bft) S 188 0 min 0,000 mm 0,0 UV-I 0 W/m 16,5 C 17,6 C 4,8 km/h (1 Bft) 97,87 %
17.09.2016 01:12 17,6 C 93 % 1007,2 hPa 0,0 l/m 2,6 km/h (1 Bft) S 188 0 min 0,000 mm 0,0 UV-I 0 W/m 16,5 C 17,6 C 3,2 km/h (1 Bft) 97,87 %
17.09.2016 01:14 17,6 C 93 % 1007,1 hPa 0,0 l/m 3,2 km/h (1 Bft) S 188 0 min 0,000 mm 0,0 UV-I 0 W/m 16,5 C 17,6 C 4,8 km/h (1 Bft) 100,00 %
17.09.2016 01:16 17,5 C 93 % 1007,2 hPa 0,0 l/m 4,4 km/h (1 Bft) S 188 0 min 0,000 mm 0,0 UV-I 0 W/m 16,4 C 17,5 C 6,4 km/h (2 Bft) 97,87 %
17.09.2016 01:18 17,5 C 93 % 1007,2 hPa 0,0 l/m 4,1 km/h (1 Bft) S 188 0 min 0,000 mm 0,0 UV-I 0 W/m 16,4 C 17,5 C 6,4 km/h (2 Bft) 95,74 %
17.09.2016 01:20 17,5 C 93 % 1007,3 hPa 0,0 l/m 6,2 km/h (2 Bft) S 189 0 min 0,000 mm 0,0 UV-I 0 W/m 16,4 C 17,5 C 9,7 km/h (2 Bft) 97,87 %
17.09.2016 01:22 17,6 C 93 % 1007,3 hPa 0,0 l/m 5,4 km/h (1 Bft) SW 229 0 min 0,000 mm 0,0 UV-I 0 W/m 16,5 C 17,6 C 8,0 km/h (2 Bft) 97,87 %
17.09.2016 01:24 17,6 C 93 % 1007,3 hPa 0,0 l/m 5,4 km/h (1 Bft) SW 228 0 min 0,000 mm 0,0 UV-I 0 W/m 16,5 C 17,6 C 8,0 km/h (2 Bft) 93,62 %
17.09.2016 01:26 17,6 C 93 % 1007,3 hPa 0,0 l/m 6,2 km/h (2 Bft) SW 234 0 min 0,000 mm 0,0 UV-I 0 W/m 16,5 C 17,6 C 9,7 km/h (2 Bft) 97,87 %
17.09.2016 01:28 17,6 C 93 % 1007,3 hPa 0,0 l/m 6,0 km/h (2 Bft) SW 232 0 min 0,000 mm 0,0 UV-I 0 W/m 16,5 C 17,6 C 9,7 km/h (2 Bft) 95,83 %
17.09.2016 01:30 17,6 C 93 % 1007,3 hPa 0,0 l/m 6,9 km/h (2 Bft) W-SW 238 0 min 0,000 mm 0,0 UV-I 0 W/m 16,5 C 17,4 C 9,7 km/h (2 Bft) 97,87 %
17.09.2016 01:32 17,6 C 93 % 1007,3 hPa 0,0 l/m 7,0 km/h (2 Bft) SW 232 0 min 0,000 mm 0,0 UV-I 0 W/m 16,5 C 17,3 C 9,7 km/h (2 Bft) 97,87 %
17.09.2016 01:34 17,6 C 93 % 1007,3 hPa 0,0 l/m 7,6 km/h (2 Bft) SW 232 0 min 0,000 mm 0,0 UV-I 0 W/m 16,5 C 17,0 C 11,3 km/h (2 Bft) 97,87 %
17.09.2016 01:36 17,7 C 93 % 1007,3 hPa 0,0 l/m 7,2 km/h (2 Bft) SW 224 0 min 0,000 mm 0,0 UV-I 0 W/m 16,6 C 17,3 C 11,3 km/h (2 Bft) 97,87 %
17.09.2016 01:38 17,7 C 93 % 1007,3 hPa 0,0 l/m 5,4 km/h (1 Bft) SW 230 0 min 0,000 mm 0,0 UV-I 0 W/m 16,6 C 17,7 C 8,0 km/h (2 Bft) 97,87 %
17.09.2016 01:40 17,8 C 93 % 1007,3 hPa 0,0 l/m 9,6 km/h (2 Bft) SW 227 0 min 0,000 mm 0,0 UV-I 0 W/m 16,7 C 16,4 C 16,1 km/h (3 Bft) 97,87 %
17.09.2016 01:42 17,8 C 93 % 1007,3 hPa 0,0 l/m 10,3 km/h (2 Bft) W-SW 241 0 min 0,000 mm 0,0 UV-I 0 W/m 16,7 C 16,1 C 14,5 km/h (3 Bft) 97,87 %
17.09.2016 01:44 17,8 C 93 % 1007,4 hPa 0,0 l/m 9,2 km/h (2 Bft) W-SW 249 0 min 0,000 mm 0,0 UV-I 0 W/m 16,7 C 16,5 C 17,7 km/h (3 Bft) 96,00 %
17.09.2016 01:46 17,8 C 93 % 1007,5 hPa 0,0 l/m 8,6 km/h (2 Bft) SW 217 0 min 0,000 mm 0,0 UV-I 0 W/m 16,7 C 16,8 C 16,1 km/h (3 Bft) 97,37 %
17.09.2016 01:48 17,8 C 93 % 1007,5 hPa 0,0 l/m 9,0 km/h (2 Bft) W-SW 257 0 min 0,000 mm 0,0 UV-I 0 W/m 16,7 C 16,6 C 14,5 km/h (3 Bft) 97,87 %
17.09.2016 01:50 17,9 C 93 % 1007,5 hPa 0,0 l/m 9,9 km/h (2 Bft) W-SW 239 0 min 0,000 mm 0,0 UV-I 0 W/m 16,8 C 16,4 C 16,1 km/h (3 Bft) 97,87 %
17.09.2016 01:52 17,9 C 92 % 1007,5 hPa 0,0 l/m 10,5 km/h (2 Bft) W 259 0 min 0,000 mm 0,0 UV-I 0 W/m 16,6 C 16,1 C 16,1 km/h (3 Bft) 100,00 %
17.09.2016 01:54 17,8 C 92 % 1007,4 hPa 0,0 l/m 8,7 km/h (2 Bft) W 260 0 min 0,000 mm 0,0 UV-I 0 W/m 16,5 C 16,7 C 14,5 km/h (3 Bft) 100,00 %
17.09.2016 01:56 17,8 C 91 % 1007,3 hPa 0,0 l/m 9,6 km/h (2 Bft) W-SW 241 0 min 0,000 mm 0,0 UV-I 0 W/m 16,3 C 16,4 C 12,9 km/h (3 Bft) 100,00 %
17.09.2016 01:58 17,8 C 90 % 1007,2 hPa 0,0 l/m 10,7 km/h (2 Bft) W 262 0 min 0,000 mm 0,0 UV-I 0 W/m 16,1 C 15,9 C 19,3 km/h (3 Bft) 100,00 %
17.09.2016 02:00 17,7 C 89 % 1007,3 hPa 0,0 l/m 9,9 km/h (2 Bft) W-NW 287 0 min 0,000 mm 0,0 UV-I 0 W/m 15,9 C 16,1 C 12,9 km/h (3 Bft) 98,00 %
17.09.2016 02:02 17,7 C 89 % 1007,3 hPa 0,0 l/m 7,6 km/h (2 Bft) W 265 0 min 0,000 mm 0,0 UV-I 0 W/m 15,9 C 17,1 C 11,3 km/h (2 Bft) 100,00 %
17.09.2016 02:04 17,7 C 89 % 1007,4 hPa 0,0 l/m 10,9 km/h (2 Bft) W 264 0 min 0,000 mm 0,0 UV-I 0 W/m 15,9 C 15,8 C 16,1 km/h (3 Bft) 100,00 %
17.09.2016 02:06 17,7 C 89 % 1007,4 hPa 0,0 l/m 12,0 km/h (2 Bft) W-SW 240 0 min 0,000 mm 0,0 UV-I 0 W/m 15,9 C 15,4 C 17,7 km/h (3 Bft) 100,00 %
17.09.2016 02:08 17,7 C 89 % 1007,3 hPa 0,0 l/m 9,6 km/h (2 Bft) W-SW 254 0 min 0,000 mm 0,0 UV-I 0 W/m 15,9 C 16,3 C 16,1 km/h (3 Bft) 100,00 %
17.09.2016 02:10 17,6 C 89 % 1007,3 hPa 0,0 l/m 8,9 km/h (2 Bft) SW 233 0 min 0,000 mm 0,0 UV-I 0 W/m 15,8 C 16,4 C 14,5 km/h (3 Bft) 97,92 %
17.09.2016 02:12 17,6 C 88 % 1007,3 hPa 0,0 l/m 10,9 km/h (2 Bft) W-NW 302 0 min 0,000 mm 0,0 UV-I 0 W/m 15,6 C 15,7 C 22,5 km/h (4 Bft) 100,00 %
17.09.2016 02:14 17,5 C 88 % 1007,3 hPa 0,0 l/m 8,4 km/h (2 Bft) W 260 0 min 0,000 mm 0,0 UV-I 0 W/m 15,5 C 16,5 C 14,5 km/h (3 Bft) 100,00 %
17.09.2016 02:16 17,5 C 88 % 1007,3 hPa 0,0 l/m 6,7 km/h (2 Bft) W-NW 288 0 min 0,000 mm 0,0 UV-I 0 W/m 15,5 C 17,4 C 12,9 km/h (3 Bft) 100,00 %
17.09.2016 02:18 17,4 C 88 % 1007,3 hPa 0,0 l/m 9,0 km/h (2 Bft) W 263 0 min 0,000 mm 0,0 UV-I 0 W/m 15,4 C 16,2 C 14,5 km/h (3 Bft) 97,87 %
17.09.2016 02:20 17,4 C 89 % 1007,2 hPa 0,0 l/m 5,1 km/h (1 Bft) W 262 0 min 0,000 mm 0,0 UV-I 0 W/m 15,6 C 17,4 C 12,9 km/h (3 Bft) 100,00 %
17.09.2016 02:22 17,4 C 89 % 1007,2 hPa 0,0 l/m 3,7 km/h (1 Bft) W-SW 258 0 min 0,000 mm 0,0 UV-I 0 W/m 15,6 C 17,4 C 6,4 km/h (2 Bft) 95,74 %
17.09.2016 02:24 17,3 C 89 % 1007,2 hPa 0,0 l/m 6,0 km/h (2 Bft) W 265 0 min 0,000 mm 0,0 UV-I 0 W/m 15,5 C 17,3 C 11,3 km/h (2 Bft) 97,87 %
17.09.2016 02:26 17,3 C 89 % 1007,2 hPa 0,0 l/m 5,7 km/h (1 Bft) W-SW 248 0 min 0,000 mm 0,0 UV-I 0 W/m 15,5 C 17,3 C 11,3 km/h (2 Bft) 100,00 %
17.09.2016 02:28 17,3 C 89 % 1007,2 hPa 0,0 l/m 7,0 km/h (2 Bft) W 266 0 min 0,000 mm 0,0 UV-I 0 W/m 15,5 C 17,0 C 11,3 km/h (2 Bft) 97,92 %
17.09.2016 02:30 17,2 C 89 % 1007,2 hPa 0,0 l/m 8,3 km/h (2 Bft) W-SW 249 0 min 0,000 mm 0,0 UV-I 0 W/m 15,4 C 16,3 C 14,5 km/h (3 Bft) 100,00 %
17.09.2016 02:32 17,2 C 89 % 1007,2 hPa 0,0 l/m 8,3 km/h (2 Bft) SW 223 0 min 0,000 mm 0,0 UV-I 0 W/m 15,4 C 16,3 C 14,5 km/h (3 Bft) 100,00 %
17.09.2016 02:34 17,2 C 90 % 1007,3 hPa 0,0 l/m 6,9 km/h (2 Bft) SW 229 0 min 0,000 mm 0,0 UV-I 0 W/m 15,5 C 17,0 C 11,3 km/h (2 Bft) 97,87 %
17.09.2016 02:36 17,2 C 90 % 1007,2 hPa 0,0 l/m 9,7 km/h (2 Bft) W-SW 240 0 min 0,000 mm 0,0 UV-I 0 W/m 15,5 C 15,7 C 16,1 km/h (3 Bft) 97,87 %
17.09.2016 02:38 17,2 C 90 % 1007,3 hPa 0,0 l/m 9,2 km/h (2 Bft) S-SW 213 0 min 0,000 mm 0,0 UV-I 0 W/m 15,5 C 15,9 C 12,9 km/h (3 Bft) 100,00 %
17.09.2016 02:40 17,2 C 90 % 1007,3 hPa 0,0 l/m 6,7 km/h (2 Bft) SW 236 0 min 0,000 mm 0,0 UV-I 0 W/m 15,5 C 17,1 C 11,3 km/h (2 Bft) 97,87 %
17.09.2016 02:42 17,2 C 90 % 1007,5 hPa 0,0 l/m 6,5 km/h (2 Bft) W-SW 242 0 min 0,000 mm 0,0 UV-I 0 W/m 15,5 C 17,2 C 11,3 km/h (2 Bft) 100,00 %
17.09.2016 02:44 17,2 C 90 % 1007,7 hPa 0,0 l/m 6,7 km/h (2 Bft) SW 217 0 min 0,000 mm 0,0 UV-I 0 W/m 15,5 C 17,1 C 9,7 km/h (2 Bft) 97,87 %
17.09.2016 02:46 17,2 C 90 % 1007,7 hPa 0,0 l/m 7,8 km/h (2 Bft) S-SW 203 0 min 0,000 mm 0,0 UV-I 0 W/m 15,5 C 16,5 C 11,3 km/h (2 Bft) 100,00 %
17.09.2016 02:48 17,2 C 91 % 1007,7 hPa 0,0 l/m 8,2 km/h (2 Bft) S-SW 202 0 min 0,000 mm 0,0 UV-I 0 W/m 15,7 C 16,3 C 14,5 km/h (3 Bft) 100,00 %
17.09.2016 02:50 17,2 C 91 % 1007,7 hPa 0,0 l/m 10,8 km/h (2 Bft) SW 227 0 min 0,000 mm 0,0 UV-I 0 W/m 15,7 C 15,2 C 14,5 km/h (3 Bft) 100,00 %
17.09.2016 02:52 17,2 C 91 % 1007,7 hPa 0,0 l/m 11,0 km/h (2 Bft) SW 236 0 min 0,000 mm 0,0 UV-I 0 W/m 15,7 C 15,2 C 16,1 km/h (3 Bft) 100,00 %
17.09.2016 02:54 17,2 C 91 % 1007,8 hPa 0,0 l/m 8,9 km/h (2 Bft) SW 236 0 min 0,000 mm 0,0 UV-I 0 W/m 15,7 C 16,0 C 14,5 km/h (3 Bft) 100,00 %
17.09.2016 02:56 17,2 C 91 % 1007,7 hPa 0,0 l/m 8,7 km/h (2 Bft) SW 229 0 min 0,000 mm 0,0 UV-I 0 W/m 15,7 C 16,1 C 14,5 km/h (3 Bft) 100,00 %
17.09.2016 02:58 17,2 C 91 % 1007,7 hPa 0,0 l/m 11,3 km/h (2 Bft) W-SW 249 0 min 0,000 mm 0,0 UV-I 0 W/m 15,7 C 15,1 C 19,3 km/h (3 Bft) 100,00 %
17.09.2016 03:00 17,2 C 91 % 1007,7 hPa 0,0 l/m 9,7 km/h (2 Bft) W-SW 238 0 min 0,025 mm 0,0 UV-I 0 W/m 15,7 C 15,7 C 14,5 km/h (3 Bft) 100,00 %
17.09.2016 03:02 17,2 C 91 % 1007,7 hPa 0,0 l/m 16,6 km/h (3 Bft) W-SW 238 0 min 0,000 mm 0,0 UV-I 0 W/m 15,7 C 13,4 C 25,7 km/h (4 Bft) 100,00 %
17.09.2016 03:04 17,2 C 91 % 1007,7 hPa 0,0 l/m 11,9 km/h (2 Bft) W-SW 237 0 min 0,000 mm 0,0 UV-I 0 W/m 15,7 C 14,8 C 19,3 km/h (3 Bft) 97,87 %
17.09.2016 03:06 17,1 C 91 % 1007,6 hPa 0,0 l/m 12,4 km/h (3 Bft) SW 222 0 min 0,000 mm 0,0 UV-I 0 W/m 15,6 C 14,6 C 20,9 km/h (4 Bft) 100,00 %
17.09.2016 03:08 17,1 C 91 % 1007,7 hPa 0,0 l/m 11,2 km/h (2 Bft) W 261 0 min 0,000 mm 0,0 UV-I 0 W/m 15,6 C 15,0 C 17,7 km/h (3 Bft) 100,00 %
17.09.2016 03:10 17,1 C 90 % 1007,7 hPa 0,0 l/m 15,6 km/h (3 Bft) SW 229 0 min 0,000 mm 0,0 UV-I 0 W/m 15,4 C 13,6 C 22,5 km/h (4 Bft) 100,00 %
17.09.2016 03:12 17,1 C 90 % 1007,7 hPa 0,0 l/m 12,5 km/h (3 Bft) W 264 0 min 0,000 mm 0,0 UV-I 0 W/m 15,4 C 14,5 C 19,3 km/h (3 Bft) 100,00 %
17.09.2016 03:14 17,1 C 90 % 1007,7 hPa 0,0 l/m 16,3 km/h (3 Bft) SW 224 0 min 0,000 mm 0,0 UV-I 0 W/m 15,4 C 13,4 C 25,7 km/h (4 Bft) 97,87 %
17.09.2016 03:16 17,1 C 90 % 1007,6 hPa 0,0 l/m 14,3 km/h (3 Bft) SW 227 0 min 0,000 mm 0,0 UV-I 0 W/m 15,4 C 13,9 C 22,5 km/h (4 Bft) 97,92 %
17.09.2016 03:18 17,0 C 90 % 1007,6 hPa 0,0 l/m 16,6 km/h (3 Bft) SW 226 0 min 0,000 mm 0,0 UV-I 0 W/m 15,3 C 13,2 C 24,1 km/h (4 Bft) 97,87 %
17.09.2016 03:20 17,0 C 90 % 1007,5 hPa 0,0 l/m 15,2 km/h (3 Bft) SW 223 0 min 0,000 mm 0,0 UV-I 0 W/m 15,3 C 13,6 C 20,9 km/h (4 Bft) 95,74 %
17.09.2016 03:22 16,9 C 90 % 1007,6 hPa 0,0 l/m 15,4 km/h (3 Bft) W-SW 253 0 min 0,000 mm 0,0 UV-I 0 W/m 15,2 C 13,4 C 22,5 km/h (4 Bft) 93,62 %
17.09.2016 03:24 16,9 C 91 % 1007,5 hPa 0,0 l/m 13,0 km/h (3 Bft) SW 225 0 min 0,000 mm 0,0 UV-I 0 W/m 15,4 C 14,1 C 25,7 km/h (4 Bft) 97,87 %
17.09.2016 03:26 16,8 C 91 % 1007,5 hPa 0,0 l/m 17,2 km/h (3 Bft) SW 226 0 min 0,000 mm 0,0 UV-I 0 W/m 15,3 C 12,8 C 27,4 km/h (4 Bft) 97,92 %
17.09.2016 03:28 16,7 C 91 % 1007,5 hPa 0,0 l/m 16,7 km/h (3 Bft) W-SW 242 0 min 0,000 mm 0,0 UV-I 0 W/m 15,2 C 12,8 C 24,1 km/h (4 Bft) 97,14 %
17.09.2016 03:30 16,7 C 91 % 1007,5 hPa 0,0 l/m 11,5 km/h (2 Bft) W 271 0 min 0,000 mm 0,0 UV-I 0 W/m 15,2 C 14,4 C 19,3 km/h (3 Bft) 96,77 %
17.09.2016 03:32 16,6 C 91 % 1007,5 hPa 0,2 l/m 15,2 km/h (3 Bft) W-SW 243 0 min 0,000 mm 0,0 UV-I 0 W/m 15,1 C 13,1 C 22,5 km/h (4 Bft) 97,87 %
17.09.2016 03:34 16,6 C 91 % 1007,4 hPa 0,0 l/m 14,1 km/h (3 Bft) W-SW 241 0 min 0,000 mm 0,0 UV-I 0 W/m 15,1 C 13,4 C 17,7 km/h (3 Bft) 95,74 %
17.09.2016 03:36 16,6 C 92 % 1007,4 hPa 0,0 l/m 16,6 km/h (3 Bft) S-SW 210 0 min 0,000 mm 0,0 UV-I 0 W/m 15,3 C 12,7 C 25,7 km/h (4 Bft) 97,87 %
17.09.2016 03:38 16,5 C 92 % 1007,5 hPa 0,0 l/m 12,9 km/h (3 Bft) SW 219 0 min 0,000 mm 0,0 UV-I 0 W/m 15,2 C 13,7 C 17,7 km/h (3 Bft) 97,87 %
17.09.2016 03:40 16,4 C 92 % 1007,4 hPa 0,0 l/m 14,7 km/h (3 Bft) W-SW 246 0 min 0,000 mm 0,0 UV-I 0 W/m 15,1 C 13,0 C 25,7 km/h (4 Bft) 94,00 %
17.09.2016 03:42 16,4 C 92 % 1007,4 hPa 0,0 l/m 15,9 km/h (3 Bft) W-NW 285 0 min 0,000 mm 0,0 UV-I 0 W/m 15,1 C 12,6 C 24,1 km/h (4 Bft) 97,37 %
17.09.2016 03:44 16,4 C 92 % 1007,4 hPa 0,0 l/m 12,9 km/h (3 Bft) S-SW 205 0 min 0,000 mm 0,0 UV-I 0 W/m 15,1 C 13,6 C 19,3 km/h (3 Bft) 97,87 %
17.09.2016 03:46 16,4 C 92 % 1007,4 hPa 0,0 l/m 15,6 km/h (3 Bft) W 269 0 min 0,000 mm 0,0 UV-I 0 W/m 15,1 C 12,7 C 27,4 km/h (4 Bft) 95,74 %
17.09.2016 03:48 16,4 C 92 % 1007,4 hPa 0,0 l/m 16,6 km/h (3 Bft) W-SW 248 0 min 0,000 mm 0,0 UV-I 0 W/m 15,1 C 12,4 C 24,1 km/h (4 Bft) 97,87 %
17.09.2016 03:50 16,3 C 92 % 1007,4 hPa 0,0 l/m 13,9 km/h (3 Bft) W 261 0 min 0,000 mm 0,0 UV-I 0 W/m 15,0 C 13,1 C 20,9 km/h (4 Bft) 100,00 %
17.09.2016 03:52 16,3 C 92 % 1007,5 hPa 0,0 l/m 16,0 km/h (3 Bft) SW 234 0 min 0,000 mm 0,0 UV-I 0 W/m 15,0 C 12,5 C 22,5 km/h (4 Bft) 97,87 %
17.09.2016 03:54 16,3 C 92 % 1007,5 hPa 0,0 l/m 17,3 km/h (3 Bft) S-SW 210 0 min 0,000 mm 0,0 UV-I 0 W/m 15,0 C 12,1 C 24,1 km/h (4 Bft) 98,00 %
17.09.2016 03:56 16,3 C 92 % 1007,5 hPa 0,0 l/m 16,0 km/h (3 Bft) W-SW 242 0 min 0,000 mm 0,0 UV-I 0 W/m 15,0 C 12,5 C 24,1 km/h (4 Bft) 97,37 %
17.09.2016 03:58 16,3 C 92 % 1007,5 hPa 0,0 l/m 15,5 km/h (3 Bft) W-SW 244 0 min 0,000 mm 0,0 UV-I 0 W/m 15,0 C 12,6 C 25,7 km/h (4 Bft) 100,00 %
17.09.2016 04:00 16,3 C 92 % 1007,4 hPa 0,0 l/m 17,3 km/h (3 Bft) SW 230 0 min 0,000 mm 0,0 UV-I 0 W/m 15,0 C 12,1 C 24,1 km/h (4 Bft) 100,00 %
17.09.2016 04:02 16,3 C 92 % 1007,4 hPa 0,0 l/m 14,0 km/h (3 Bft) W-SW 255 0 min 0,026 mm 0,0 UV-I 0 W/m 15,0 C 13,1 C 22,5 km/h (4 Bft) 100,00 %
17.09.2016 04:04 16,3 C 92 % 1007,5 hPa 0,0 l/m 18,3 km/h (3 Bft) SW 227 0 min 0,000 mm 0,0 UV-I 0 W/m 15,0 C 11,8 C 25,7 km/h (4 Bft) 100,00 %
17.09.2016 04:06 16,3 C 91 % 1007,4 hPa 0,0 l/m 15,3 km/h (3 Bft) SW 217 0 min 0,000 mm 0,0 UV-I 0 W/m 14,8 C 12,7 C 22,5 km/h (4 Bft) 100,00 %
17.09.2016 04:08 16,3 C 91 % 1007,3 hPa 0,0 l/m 17,1 km/h (3 Bft) W 265 0 min 0,000 mm 0,0 UV-I 0 W/m 14,8 C 12,2 C 27,4 km/h (4 Bft) 100,00 %
17.09.2016 04:10 16,3 C 91 % 1007,4 hPa 0,0 l/m 14,5 km/h (3 Bft) SW 214 0 min 0,000 mm 0,0 UV-I 0 W/m 14,8 C 12,9 C 20,9 km/h (4 Bft) 91,30 %
17.09.2016 04:12 16,3 C 91 % 1007,3 hPa 0,0 l/m 17,0 km/h (3 Bft) W 259 0 min 0,000 mm 0,0 UV-I 0 W/m 14,8 C 12,2 C 22,5 km/h (4 Bft) 100,00 %
17.09.2016 04:14 16,3 C 91 % 1007,3 hPa 0,0 l/m 17,6 km/h (3 Bft) W-SW 251 0 min 0,000 mm 0,0 UV-I 0 W/m 14,8 C 12,0 C 24,1 km/h (4 Bft) 100,00 %
17.09.2016 04:16 16,3 C 91 % 1007,4 hPa 0,0 l/m 17,1 km/h (3 Bft) W 260 0 min 0,000 mm 0,0 UV-I 0 W/m 14,8 C 12,2 C 27,4 km/h (4 Bft) 100,00 %
17.09.2016 04:18 16,3 C 91 % 1007,3 hPa 0,0 l/m 20,3 km/h (4 Bft) W-SW 247 0 min 0,000 mm 0,0 UV-I 0 W/m 14,8 C 11,4 C 30,6 km/h (5 Bft) 100,00 %
17.09.2016 04:20 16,3 C 91 % 1007,4 hPa 0,0 l/m 17,1 km/h (3 Bft) SW 230 0 min 0,000 mm 0,0 UV-I 0 W/m 14,8 C 12,2 C 24,1 km/h (4 Bft) 100,00 %
17.09.2016 04:22 16,3 C 91 % 1007,3 hPa 0,0 l/m 13,4 km/h (3 Bft) W-SW 255 0 min 0,000 mm 0,0 UV-I 0 W/m 14,8 C 13,3 C 29,0 km/h (5 Bft) 100,00 %
17.09.2016 04:24 16,3 C 91 % 1007,5 hPa 0,0 l/m 15,3 km/h (3 Bft) SW 224 0 min 0,000 mm 0,0 UV-I 0 W/m 14,8 C 12,7 C 25,7 km/h (4 Bft) 96,00 %
17.09.2016 04:26 16,3 C 90 % 1007,3 hPa 0,0 l/m 13,0 km/h (3 Bft) SW 228 0 min 0,000 mm 0,0 UV-I 0 W/m 14,7 C 13,4 C 19,3 km/h (3 Bft) 100,00 %
17.09.2016 04:28 16,3 C 91 % 1007,3 hPa 0,0 l/m 13,4 km/h (3 Bft) SW 234 0 min 0,000 mm 0,0 UV-I 0 W/m 14,8 C 13,3 C 22,5 km/h (4 Bft) 98,00 %
17.09.2016 04:30 16,3 C 90 % 1007,3 hPa 0,0 l/m 17,1 km/h (3 Bft) S-SW 211 0 min 0,000 mm 0,0 UV-I 0 W/m 14,7 C 12,2 C 27,4 km/h (4 Bft) 100,00 %
17.09.2016 04:32 16,3 C 90 % 1007,2 hPa 0,0 l/m 14,9 km/h (3 Bft) W-SW 251 0 min 0,000 mm 0,0 UV-I 0 W/m 14,7 C 12,8 C 24,1 km/h (4 Bft) 97,87 %
17.09.2016 04:34 16,3 C 90 % 1007,2 hPa 0,0 l/m 14,2 km/h (3 Bft) SW 225 0 min 0,000 mm 0,0 UV-I 0 W/m 14,7 C 13,0 C 25,7 km/h (4 Bft) 97,22 %
17.09.2016 04:36 16,3 C 90 % 1007,2 hPa 0,0 l/m 17,1 km/h (3 Bft) SW 225 0 min 0,000 mm 0,0 UV-I 0 W/m 14,7 C 12,2 C 29,0 km/h (5 Bft) 95,74 %
17.09.2016 04:38 16,3 C 90 % 1007,1 hPa 0,0 l/m 18,8 km/h (3 Bft) W-SW 248 0 min 0,000 mm 0,0 UV-I 0 W/m 14,7 C 11,7 C 30,6 km/h (5 Bft) 100,00 %
17.09.2016 04:40 16,2 C 90 % 1007,1 hPa 0,0 l/m 15,7 km/h (3 Bft) W-SW 242 0 min 0,000 mm 0,0 UV-I 0 W/m 14,6 C 12,4 C 22,5 km/h (4 Bft) 100,00 %
17.09.2016 04:42 16,2 C 90 % 1007,1 hPa 0,0 l/m 16,6 km/h (3 Bft) W-SW 253 0 min 0,000 mm 0,0 UV-I 0 W/m 14,6 C 12,2 C 24,1 km/h (4 Bft) 100,00 %
17.09.2016 04:44 16,2 C 90 % 1007,1 hPa 0,0 l/m 14,5 km/h (3 Bft) SW 220 0 min 0,000 mm 0,0 UV-I 0 W/m 14,6 C 12,8 C 20,9 km/h (4 Bft) 97,87 %
17.09.2016 04:46 16,2 C 90 % 1007,0 hPa 0,0 l/m 17,3 km/h (3 Bft) S-SW 198 0 min 0,000 mm 0,0 UV-I 0 W/m 14,6 C 12,0 C 29,0 km/h (5 Bft) 97,87 %
17.09.2016 04:48 16,2 C 90 % 1007,1 hPa 0,0 l/m 16,3 km/h (3 Bft) SW 217 0 min 0,000 mm 0,0 UV-I 0 W/m 14,6 C 12,3 C 30,6 km/h (5 Bft) 100,00 %
17.09.2016 04:50 16,2 C 90 % 1007,0 hPa 0,0 l/m 19,5 km/h (3 Bft) W-SW 254 0 min 0,000 mm 0,0 UV-I 0 W/m 14,6 C 11,4 C 30,6 km/h (5 Bft) 100,00 %
17.09.2016 04:52 16,2 C 90 % 1007,1 hPa 0,0 l/m 15,9 km/h (3 Bft) SW 226 0 min 0,000 mm 0,0 UV-I 0 W/m 14,6 C 12,4 C 22,5 km/h (4 Bft) 100,00 %
17.09.2016 04:54 16,2 C 89 % 1007,1 hPa 0,0 l/m 16,4 km/h (3 Bft) W-SW 257 0 min 0,000 mm 0,0 UV-I 0 W/m 14,4 C 12,2 C 32,2 km/h (5 Bft) 95,74 %
17.09.2016 04:56 16,1 C 90 % 1007,1 hPa 0,0 l/m 17,8 km/h (3 Bft) W-SW 256 0 min 0,000 mm 0,0 UV-I 0 W/m 14,5 C 11,7 C 27,4 km/h (4 Bft) 98,00 %
17.09.2016 04:58 16,1 C 89 % 1007,2 hPa 0,0 l/m 17,5 km/h (3 Bft) SW 225 0 min 0,000 mm 0,0 UV-I 0 W/m 14,3 C 11,8 C 29,0 km/h (5 Bft) 100,00 %
17.09.2016 05:00 16,1 C 89 % 1007,1 hPa 0,0 l/m 17,4 km/h (3 Bft) W-SW 242 0 min 0,000 mm 0,0 UV-I 0 W/m 14,3 C 11,8 C 35,4 km/h (5 Bft) 100,00 %
17.09.2016 05:02 16,1 C 89 % 1007,2 hPa 0,0 l/m 21,9 km/h (4 Bft) SW 221 0 min 0,025 mm 0,0 UV-I 0 W/m 14,3 C 10,7 C 33,8 km/h (5 Bft) 100,00 %
17.09.2016 05:04 16,1 C 89 % 1007,2 hPa 0,0 l/m 17,2 km/h (3 Bft) S-SW 207 0 min 0,000 mm 0,0 UV-I 0 W/m 14,3 C 11,9 C 27,4 km/h (4 Bft) 97,87 %
17.09.2016 05:06 16,1 C 89 % 1007,3 hPa 0,0 l/m 18,8 km/h (3 Bft) S-SW 205 0 min 0,000 mm 0,0 UV-I 0 W/m 14,3 C 11,5 C 29,0 km/h (5 Bft) 97,87 %
17.09.2016 05:08 16,0 C 89 % 1007,3 hPa 0,0 l/m 17,7 km/h (3 Bft) SW 219 0 min 0,000 mm 0,0 UV-I 0 W/m 14,2 C 11,6 C 29,0 km/h (5 Bft) 100,00 %
17.09.2016 05:10 16,0 C 89 % 1007,3 hPa 0,0 l/m 19,5 km/h (3 Bft) SW 233 0 min 0,000 mm 0,0 UV-I 0 W/m 14,2 C 11,2 C 27,4 km/h (4 Bft) 98,00 %
17.09.2016 05:12 15,9 C 89 % 1007,3 hPa 0,0 l/m 17,2 km/h (3 Bft) SW 234 0 min 0,000 mm 0,0 UV-I 0 W/m 14,1 C 11,6 C 27,4 km/h (4 Bft) 98,00 %
17.09.2016 05:14 15,9 C 89 % 1007,3 hPa 0,0 l/m 18,2 km/h (3 Bft) SW 225 0 min 0,000 mm 0,0 UV-I 0 W/m 14,1 C 11,4 C 27,4 km/h (4 Bft) 97,87 %
17.09.2016 05:16 15,9 C 89 % 1007,3 hPa 0,0 l/m 14,7 km/h (3 Bft) SW 234 0 min 0,000 mm 0,0 UV-I 0 W/m 14,1 C 12,4 C 20,9 km/h (4 Bft) 97,87 %
17.09.2016 05:18 15,9 C 90 % 1007,3 hPa 0,0 l/m 17,3 km/h (3 Bft) W-SW 246 0 min 0,000 mm 0,0 UV-I 0 W/m 14,3 C 11,6 C 29,0 km/h (5 Bft) 97,87 %
17.09.2016 05:20 15,9 C 90 % 1007,3 hPa 0,0 l/m 19,5 km/h (3 Bft) SW 232 0 min 0,000 mm 0,0 UV-I 0 W/m 14,3 C 11,0 C 29,0 km/h (5 Bft) 95,74 %
17.09.2016 05:22 15,8 C 90 % 1007,3 hPa 0,0 l/m 18,9 km/h (3 Bft) W-SW 244 0 min 0,000 mm 0,0 UV-I 0 W/m 14,2 C 11,1 C 29,0 km/h (5 Bft) 97,87 %
17.09.2016 05:24 15,8 C 90 % 1007,3 hPa 0,0 l/m 21,3 km/h (4 Bft) SW 223 0 min 0,000 mm 0,0 UV-I 0 W/m 14,2 C 10,5 C 33,8 km/h (5 Bft) 95,74 %
17.09.2016 05:26 15,8 C 90 % 1007,3 hPa 0,0 l/m 16,8 km/h (3 Bft) W-SW 249 0 min 0,000 mm 0,0 UV-I 0 W/m 14,2 C 11,6 C 24,1 km/h (4 Bft) 97,92 %
17.09.2016 05:28 15,7 C 90 % 1007,4 hPa 0,0 l/m 19,8 km/h (3 Bft) SW 236 0 min 0,000 mm 0,0 UV-I 0 W/m 14,1 C 10,7 C 30,6 km/h (5 Bft) 95,74 %
17.09.2016 05:30 15,7 C 90 % 1007,3 hPa 0,0 l/m 24,5 km/h (4 Bft) W-SW 246 0 min 0,000 mm 0,0 UV-I 0 W/m 14,1 C 9,7 C 32,2 km/h (5 Bft) 97,37 %
17.09.2016 05:32 15,6 C 91 % 1007,4 hPa 0,0 l/m 17,3 km/h (3 Bft) S-SW 213 0 min 0,000 mm 0,0 UV-I 0 W/m 14,1 C 11,2 C 30,6 km/h (5 Bft) 97,87 %
17.09.2016 05:34 15,6 C 91 % 1007,5 hPa 0,0 l/m 19,6 km/h (3 Bft) SW 231 0 min 0,000 mm 0,0 UV-I 0 W/m 14,1 C 10,6 C 35,4 km/h (5 Bft) 97,87 %
17.09.2016 05:36 15,5 C 91 % 1007,3 hPa 0,2 l/m 19,8 km/h (3 Bft) SW 231 0 min 0,000 mm 0,0 UV-I 0 W/m 14,0 C 10,4 C 30,6 km/h (5 Bft) 97,87 %
17.09.2016 05:38 15,4 C 91 % 1007,2 hPa 0,0 l/m 24,0 km/h (4 Bft) W-SW 242 0 min 0,000 mm 0,0 UV-I 0 W/m 13,9 C 9,4 C 35,4 km/h (5 Bft) 97,87 %
17.09.2016 05:40 15,4 C 91 % 1007,3 hPa 0,0 l/m 17,9 km/h (3 Bft) SW 217 0 min 0,000 mm 0,0 UV-I 0 W/m 13,9 C 10,8 C 25,7 km/h (4 Bft) 97,87 %
17.09.2016 05:42 15,3 C 92 % 1007,2 hPa 0,0 l/m 17,8 km/h (3 Bft) S-SW 210 0 min 0,000 mm 0,0 UV-I 0 W/m 14,0 C 10,7 C 29,0 km/h (5 Bft) 97,87 %
17.09.2016 05:44 15,2 C 92 % 1007,3 hPa 0,2 l/m 19,6 km/h (3 Bft) W-SW 252 0 min 0,000 mm 0,0 UV-I 0 W/m 13,9 C 10,1 C 29,0 km/h (5 Bft) 97,87 %
17.09.2016 05:46 15,2 C 92 % 1007,2 hPa 0,0 l/m 15,3 km/h (3 Bft) SW 232 0 min 0,000 mm 0,0 UV-I 0 W/m 13,9 C 11,3 C 22,5 km/h (4 Bft) 96,00 %
17.09.2016 05:48 15,1 C 92 % 1007,3 hPa 0,0 l/m 18,6 km/h (3 Bft) S-SW 213 0 min 0,000 mm 0,0 UV-I 0 W/m 13,8 C 10,2 C 30,6 km/h (5 Bft) 97,87 %
17.09.2016 05:50 15,1 C 93 % 1007,3 hPa 0,2 l/m 18,8 km/h (3 Bft) S-SW 206 0 min 0,000 mm 0,0 UV-I 0 W/m 14,0 C 10,2 C 32,2 km/h (5 Bft) 100,00 %
17.09.2016 05:52 15,0 C 93 % 1007,3 hPa 0,0 l/m 19,2 km/h (3 Bft) SW 227 0 min 0,000 mm 0,0 UV-I 0 W/m 13,9 C 10,0 C 32,2 km/h (5 Bft) 100,00 %
17.09.2016 05:54 14,9 C 93 % 1007,3 hPa 0,0 l/m 19,2 km/h (3 Bft) SW 219 0 min 0,000 mm 0,0 UV-I 0 W/m 13,8 C 9,8 C 27,4 km/h (4 Bft) 97,87 %
17.09.2016 05:56 14,9 C 93 % 1007,3 hPa 0,0 l/m 19,8 km/h (3 Bft) SW 220 0 min 0,000 mm 0,0 UV-I 0 W/m 13,8 C 9,7 C 29,0 km/h (5 Bft) 97,87 %
17.09.2016 05:58 14,9 C 93 % 1007,3 hPa 0,2 l/m 21,0 km/h (4 Bft) W-SW 244 0 min 0,000 mm 0,0 UV-I 0 W/m 13,8 C 9,4 C 32,2 km/h (5 Bft) 100,00 %
17.09.2016 06:00 14,9 C 93 % 1007,3 hPa 0,0 l/m 16,9 km/h (3 Bft) W-SW 244 0 min 0,026 mm 0,0 UV-I 0 W/m 13,8 C 10,5 C 27,4 km/h (4 Bft) 93,62 %
17.09.2016 06:02 14,8 C 94 % 1007,3 hPa 0,2 l/m 16,9 km/h (3 Bft) SW 225 0 min 0,000 mm 0,0 UV-I 0 W/m 13,8 C 10,3 C 25,7 km/h (4 Bft) 97,87 %
17.09.2016 06:04 14,8 C 94 % 1007,4 hPa 0,0 l/m 18,7 km/h (3 Bft) SW 225 0 min 0,000 mm 0,0 UV-I 0 W/m 13,8 C 9,8 C 25,7 km/h (4 Bft) 97,87 %
17.09.2016 06:06 14,8 C 94 % 1007,3 hPa 0,0 l/m 16,2 km/h (3 Bft) W-SW 249 0 min 0,000 mm 0,0 UV-I 0 W/m 13,8 C 10,6 C 22,5 km/h (4 Bft) 97,44 %
17.09.2016 06:08 14,8 C 94 % 1007,4 hPa 0,2 l/m 13,7 km/h (3 Bft) S-SW 199 0 min 0,000 mm 0,0 UV-I 0 W/m 13,8 C 11,4 C 19,3 km/h (3 Bft) 100,00 %
17.09.2016 06:10 14,8 C 94 % 1007,4 hPa 0,2 l/m 15,7 km/h (3 Bft) SW 224 0 min 0,000 mm 0,0 UV-I 0 W/m 13,8 C 10,7 C 27,4 km/h (4 Bft) 100,00 %
17.09.2016 06:12 14,7 C 94 % 1007,3 hPa 0,0 l/m 18,3 km/h (3 Bft) SW 221 0 min 0,000 mm 0,0 UV-I 0 W/m 13,7 C 9,8 C 29,0 km/h (5 Bft) 100,00 %
17.09.2016 06:14 14,7 C 94 % 1007,4 hPa 0,2 l/m 16,8 km/h (3 Bft) S-SW 213 0 min 0,000 mm 0,0 UV-I 0 W/m 13,7 C 10,3 C 24,1 km/h (4 Bft) 97,87 %
17.09.2016 06:16 14,7 C 94 % 1007,5 hPa 0,0 l/m 15,5 km/h (3 Bft) W-SW 248 0 min 0,000 mm 0,0 UV-I 0 W/m 13,7 C 10,7 C 24,1 km/h (4 Bft) 97,87 %
17.09.2016 06:18 14,7 C 94 % 1007,4 hPa 0,2 l/m 15,4 km/h (3 Bft) SW 221 0 min 0,000 mm 0,0 UV-I 0 W/m 13,7 C 10,7 C 24,1 km/h (4 Bft) 100,00 %
17.09.2016 06:20 14,7 C 94 % 1007,4 hPa 0,2 l/m 14,8 km/h (3 Bft) SW 219 0 min 0,000 mm 0,0 UV-I 0 W/m 13,7 C 10,9 C 24,1 km/h (4 Bft) 100,00 %
17.09.2016 06:22 14,7 C 94 % 1007,5 hPa 0,0 l/m 16,4 km/h (3 Bft) S-SW 202 0 min 0,000 mm 0,0 UV-I 0 W/m 13,7 C 10,4 C 22,5 km/h (4 Bft) 100,00 %
17.09.2016 06:24 14,6 C 94 % 1007,5 hPa 0,2 l/m 15,4 km/h (3 Bft) SW 219 0 min 0,000 mm 0,0 UV-I 0 W/m 13,6 C 10,6 C 22,5 km/h (4 Bft) 97,87 %
17.09.2016 06:26 14,6 C 94 % 1007,5 hPa 0,2 l/m 15,7 km/h (3 Bft) SW 227 0 min 0,000 mm 0,0 UV-I 0 W/m 13,6 C 10,5 C 24,1 km/h (4 Bft) 100,00 %
17.09.2016 06:28 14,6 C 95 % 1007,5 hPa 0,2 l/m 13,0 km/h (3 Bft) SW 221 0 min 0,000 mm 0,0 UV-I 0 W/m 13,8 C 11,4 C 20,9 km/h (4 Bft) 100,00 %
17.09.2016 06:30 14,6 C 95 % 1007,5 hPa 0,0 l/m 18,7 km/h (3 Bft) SW 232 0 min 0,000 mm 0,0 UV-I 0 W/m 13,8 C 9,6 C 35,4 km/h (5 Bft) 100,00 %
17.09.2016 06:32 14,6 C 95 % 1007,5 hPa 0,2 l/m 17,6 km/h (3 Bft) W-SW 252 0 min 0,000 mm 0,0 UV-I 0 W/m 13,8 C 9,9 C 24,1 km/h (4 Bft) 100,00 %
17.09.2016 06:34 14,5 C 95 % 1007,5 hPa 0,2 l/m 14,8 km/h (3 Bft) S-SW 211 0 min 0,000 mm 0,0 UV-I 0 W/m 13,7 C 10,7 C 22,5 km/h (4 Bft) 100,00 %
17.09.2016 06:36 14,5 C 95 % 1007,5 hPa 0,2 l/m 19,8 km/h (3 Bft) S-SW 201 0 min 0,000 mm 0,0 UV-I 0 W/m 13,7 C 9,2 C 27,4 km/h (4 Bft) 97,22 %
17.09.2016 06:38 14,5 C 95 % 1007,6 hPa 0,4 l/m 15,0 km/h (3 Bft) W 265 0 min 0,000 mm 0,0 UV-I 0 W/m 13,7 C 10,6 C 22,5 km/h (4 Bft) 100,00 %
17.09.2016 06:40 14,4 C 95 % 1007,6 hPa 0,4 l/m 17,1 km/h (3 Bft) SW 230 0 min 0,000 mm 0,0 UV-I 0 W/m 13,6 C 9,8 C 22,5 km/h (4 Bft) 100,00 %
17.09.2016 06:42 14,4 C 95 % 1007,6 hPa 0,4 l/m 13,4 km/h (3 Bft) W-SW 240 0 min 0,000 mm 0,0 UV-I 0 W/m 13,6 C 11,0 C 20,9 km/h (4 Bft) 100,00 %
17.09.2016 06:44 14,4 C 95 % 1007,6 hPa 0,4 l/m 13,6 km/h (3 Bft) SW 229 0 min 0,000 mm 0,0 UV-I 0 W/m 13,6 C 11,0 C 22,5 km/h (4 Bft) 97,22 %
17.09.2016 06:46 14,4 C 95 % 1007,6 hPa 0,4 l/m 12,5 km/h (3 Bft) W-SW 237 0 min 0,000 mm 0,0 UV-I 0 W/m 13,6 C 11,4 C 24,1 km/h (4 Bft) 100,00 %
17.09.2016 06:48 14,4 C 95 % 1007,6 hPa 0,4 l/m 17,2 km/h (3 Bft) W-SW 245 0 min 0,000 mm 0,0 UV-I 0 W/m 13,6 C 9,8 C 29,0 km/h (5 Bft) 100,00 %
17.09.2016 06:50 14,4 C 95 % 1007,6 hPa 0,2 l/m 20,5 km/h (4 Bft) S-SW 205 0 min 0,000 mm 0,0 UV-I 0 W/m 13,6 C 8,8 C 32,2 km/h (5 Bft) 100,00 %
17.09.2016 06:52 14,3 C 95 % 1007,5 hPa 0,4 l/m 18,5 km/h (3 Bft) SW 221 0 min 0,000 mm 0,0 UV-I 0 W/m 13,5 C 9,3 C 25,7 km/h (4 Bft) 100,00 %
17.09.2016 06:54 14,3 C 95 % 1007,6 hPa 0,2 l/m 15,4 km/h (3 Bft) W-SW 246 0 min 0,000 mm 0,0 UV-I 0 W/m 13,5 C 10,2 C 24,1 km/h (4 Bft) 100,00 %
17.09.2016 06:56 14,3 C 95 % 1007,6 hPa 0,0 l/m 17,3 km/h (3 Bft) W-SW 257 0 min 0,000 mm 0,0 UV-I 0 W/m 13,5 C 9,6 C 24,1 km/h (4 Bft) 100,00 %
17.09.2016 06:58 14,3 C 95 % 1007,6 hPa 0,2 l/m 14,3 km/h (3 Bft) S-SW 205 0 min 0,000 mm 0,0 UV-I 0 W/m 13,5 C 10,6 C 24,1 km/h (4 Bft) 100,00 %
17.09.2016 07:00 14,3 C 95 % 1007,6 hPa 0,2 l/m 19,2 km/h (3 Bft) W-SW 252 0 min 0,000 mm 0,0 UV-I 0 W/m 13,5 C 9,1 C 29,0 km/h (5 Bft) 95,83 %
17.09.2016 07:02 14,3 C 95 % 1007,7 hPa 0,0 l/m 16,5 km/h (3 Bft) SW 233 0 min 0,000 mm 0,0 UV-I 0 W/m 13,5 C 9,9 C 27,4 km/h (4 Bft) 100,00 %
17.09.2016 07:04 14,3 C 95 % 1007,7 hPa 0,2 l/m 19,5 km/h (3 Bft) SW 233 0 min 0,000 mm 0,0 UV-I 0 W/m 13,5 C 9,0 C 29,0 km/h (5 Bft) 100,00 %
17.09.2016 07:06 14,3 C 95 % 1007,7 hPa 0,2 l/m 23,7 km/h (4 Bft) SW 223 0 min 0,000 mm 0,0 UV-I 5 W/m 13,5 C 7,9 C 33,8 km/h (5 Bft) 100,00 %
17.09.2016 07:08 14,3 C 95 % 1007,7 hPa 0,2 l/m 18,0 km/h (3 Bft) W-SW 250 0 min 0,000 mm 0,0 UV-I 5 W/m 13,5 C 9,4 C 29,0 km/h (5 Bft) 97,87 %
17.09.2016 07:10 14,3 C 95 % 1007,7 hPa 0,0 l/m 17,6 km/h (3 Bft) S-SW 195 0 min 0,000 mm 0,0 UV-I 5 W/m 13,5 C 9,5 C 30,6 km/h (5 Bft) 100,00 %
17.09.2016 07:12 14,2 C 95 % 1007,8 hPa 0,2 l/m 18,4 km/h (3 Bft) SW 234 0 min 0,000 mm 0,0 UV-I 5 W/m 13,4 C 9,2 C 25,7 km/h (4 Bft) 100,00 %
17.09.2016 07:14 14,2 C 95 % 1007,8 hPa 0,2 l/m 15,3 km/h (3 Bft) SW 219 0 min 0,000 mm 0,0 UV-I 5 W/m 13,4 C 10,1 C 32,2 km/h (5 Bft) 97,87 %
17.09.2016 07:16 14,2 C 95 % 1007,9 hPa 0,2 l/m 18,5 km/h (3 Bft) W-SW 242 0 min 0,000 mm 0,0 UV-I 5 W/m 13,4 C 9,1 C 27,4 km/h (4 Bft) 97,87 %
17.09.2016 07:18 14,2 C 95 % 1007,9 hPa 0,2 l/m 17,3 km/h (3 Bft) SW 214 0 min 0,000 mm 0,0 UV-I 5 W/m 13,4 C 9,5 C 27,4 km/h (4 Bft) 97,87 %
17.09.2016 07:20 14,2 C 95 % 1008,0 hPa 0,2 l/m 17,1 km/h (3 Bft) SW 232 0 min 0,000 mm 0,0 UV-I 6 W/m 13,4 C 9,5 C 25,7 km/h (4 Bft) 96,00 %
17.09.2016 07:22 14,2 C 95 % 1008,0 hPa 0,0 l/m 15,7 km/h (3 Bft) W-SW 246 0 min 0,000 mm 0,0 UV-I 7 W/m 13,4 C 10,0 C 22,5 km/h (4 Bft) 97,87 %
17.09.2016 07:24 14,2 C 95 % 1008,0 hPa 0,2 l/m 16,2 km/h (3 Bft) W-SW 245 0 min 0,000 mm 0,0 UV-I 7 W/m 13,4 C 9,8 C 24,1 km/h (4 Bft) 97,92 %
17.09.2016 07:26 14,2 C 95 % 1008,0 hPa 0,0 l/m 16,0 km/h (3 Bft) S-SW 213 0 min 0,000 mm 0,0 UV-I 7 W/m 13,4 C 9,9 C 27,4 km/h (4 Bft) 97,87 %
17.09.2016 07:28 14,2 C 95 % 1008,0 hPa 0,2 l/m 16,5 km/h (3 Bft) SW 215 0 min 0,000 mm 0,0 UV-I 7 W/m 13,4 C 9,7 C 27,4 km/h (4 Bft) 95,74 %
17.09.2016 07:30 14,2 C 95 % 1008,0 hPa 0,0 l/m 17,9 km/h (3 Bft) SW 224 0 min 0,000 mm 0,0 UV-I 7 W/m 13,4 C 9,3 C 27,4 km/h (4 Bft) 97,87 %
17.09.2016 07:32 14,1 C 95 % 1008,1 hPa 0,2 l/m 16,8 km/h (3 Bft) S-SW 193 0 min 0,000 mm 0,0 UV-I 8 W/m 13,3 C 9,5 C 24,1 km/h (4 Bft) 97,87 %
17.09.2016 07:34 14,1 C 95 % 1008,1 hPa 0,0 l/m 17,1 km/h (3 Bft) SW 234 0 min 0,000 mm 0,0 UV-I 9 W/m 13,3 C 9,4 C 29,0 km/h (5 Bft) 97,14 %
17.09.2016 07:36 14,1 C 95 % 1008,1 hPa 0,2 l/m 16,0 km/h (3 Bft) S-SW 211 0 min 0,000 mm 0,0 UV-I 9 W/m 13,3 C 9,8 C 30,6 km/h (5 Bft) 94,00 %
17.09.2016 07:38 14,1 C 95 % 1008,2 hPa 0,0 l/m 19,8 km/h (3 Bft) S-SW 208 0 min 0,000 mm 0,0 UV-I 8 W/m 13,3 C 8,6 C 33,8 km/h (5 Bft) 97,87 %
17.09.2016 07:40 14,1 C 95 % 1008,1 hPa 0,2 l/m 17,5 km/h (3 Bft) SW 220 0 min 0,000 mm 0,0 UV-I 9 W/m 13,3 C 9,3 C 22,5 km/h (4 Bft) 97,87 %
17.09.2016 07:42 14,1 C 95 % 1008,1 hPa 0,2 l/m 14,4 km/h (3 Bft) S-SW 193 0 min 0,000 mm 0,0 UV-I 10 W/m 13,3 C 10,3 C 27,4 km/h (4 Bft) 97,87 %
17.09.2016 07:44 14,1 C 95 % 1008,2 hPa 0,0 l/m 19,6 km/h (3 Bft) SW 227 0 min 0,000 mm 0,0 UV-I 11 W/m 13,3 C 8,7 C 29,0 km/h (5 Bft) 95,74 %
17.09.2016 07:46 14,1 C 95 % 1008,2 hPa 0,2 l/m 15,5 km/h (3 Bft) SW 222 0 min 0,000 mm 0,0 UV-I 11 W/m 13,3 C 9,9 C 22,5 km/h (4 Bft) 95,74 %
17.09.2016 07:48 14,1 C 95 % 1008,2 hPa 0,0 l/m 17,0 km/h (3 Bft) W-SW 242 0 min 0,000 mm 0,0 UV-I 11 W/m 13,3 C 9,4 C 29,0 km/h (5 Bft) 100,00 %
17.09.2016 07:50 14,1 C 95 % 1008,2 hPa 0,0 l/m 17,4 km/h (3 Bft) SW 225 0 min 0,000 mm 0,0 UV-I 11 W/m 13,3 C 9,3 C 32,2 km/h (5 Bft) 100,00 %
17.09.2016 07:52 14,0 C 95 % 1008,2 hPa 0,2 l/m 17,3 km/h (3 Bft) SW 222 0 min 0,000 mm 0,0 UV-I 11 W/m 13,2 C 9,2 C 24,1 km/h (4 Bft) 100,00 %
17.09.2016 07:54 14,0 C 95 % 1008,2 hPa 0,0 l/m 19,6 km/h (3 Bft) W-SW 246 0 min 0,000 mm 0,0 UV-I 11 W/m 13,2 C 8,6 C 33,8 km/h (5 Bft) 100,00 %
17.09.2016 07:56 14,0 C 95 % 1008,2 hPa 0,0 l/m 15,7 km/h (3 Bft) W-SW 247 0 min 0,000 mm 0,0 UV-I 11 W/m 13,2 C 9,7 C 27,4 km/h (4 Bft) 100,00 %
17.09.2016 07:58 14,0 C 95 % 1008,2 hPa 0,0 l/m 15,9 km/h (3 Bft) SW 231 0 min 0,000 mm 0,0 UV-I 12 W/m 13,2 C 9,7 C 27,4 km/h (4 Bft) 97,87 %
17.09.2016 08:00 14,0 C 95 % 1008,2 hPa 0,2 l/m 16,8 km/h (3 Bft) S-SW 203 0 min 0,025 mm 0,0 UV-I 12 W/m 13,2 C 9,4 C 25,7 km/h (4 Bft) 100,00 %
17.09.2016 08:02 14,0 C 95 % 1008,3 hPa 0,0 l/m 16,4 km/h (3 Bft) SW 229 0 min 0,000 mm 0,0 UV-I 12 W/m 13,2 C 9,5 C 27,4 km/h (4 Bft) 100,00 %
17.09.2016 08:04 14,0 C 95 % 1008,2 hPa 0,0 l/m 18,1 km/h (3 Bft) W-SW 240 0 min 0,000 mm 0,0 UV-I 12 W/m 13,2 C 9,0 C 29,0 km/h (5 Bft) 97,14 %
17.09.2016 08:06 13,9 C 95 % 1008,2 hPa 0,2 l/m 17,8 km/h (3 Bft) W-SW 238 0 min 0,000 mm 0,0 UV-I 14 W/m 13,1 C 9,0 C 25,7 km/h (4 Bft) 100,00 %
17.09.2016 08:08 13,9 C 95 % 1008,2 hPa 0,0 l/m 19,3 km/h (3 Bft) SW 219 0 min 0,000 mm 0,0 UV-I 14 W/m 13,1 C 8,5 C 30,6 km/h (5 Bft) 100,00 %
17.09.2016 08:10 13,9 C 95 % 1008,2 hPa 0,2 l/m 15,2 km/h (3 Bft) S-SW 209 0 min 0,000 mm 0,0 UV-I 15 W/m 13,1 C 9,8 C 22,5 km/h (4 Bft) 100,00 %
17.09.2016 08:12 13,9 C 95 % 1008,2 hPa 0,0 l/m 16,4 km/h (3 Bft) SW 217 0 min 0,000 mm 0,0 UV-I 16 W/m 13,1 C 9,4 C 24,1 km/h (4 Bft) 97,87 %
17.09.2016 08:14 13,9 C 95 % 1008,2 hPa 0,0 l/m 16,4 km/h (3 Bft) S-SW 213 0 min 0,000 mm 0,0 UV-I 18 W/m 13,1 C 9,4 C 29,0 km/h (5 Bft) 100,00 %
17.09.2016 08:16 13,9 C 95 % 1008,2 hPa 0,0 l/m 17,2 km/h (3 Bft) W-SW 242 0 min 0,000 mm 0,0 UV-I 20 W/m 13,1 C 9,1 C 27,4 km/h (4 Bft) 97,87 %
17.09.2016 08:18 13,9 C 95 % 1008,1 hPa 0,2 l/m 18,6 km/h (3 Bft) SW 223 0 min 0,000 mm 0,0 UV-I 22 W/m 13,1 C 8,7 C 27,4 km/h (4 Bft) 100,00 %
17.09.2016 08:20 13,8 C 95 % 1008,1 hPa 0,0 l/m 21,3 km/h (4 Bft) W-SW 241 0 min 0,000 mm 0,0 UV-I 23 W/m 13,0 C 7,9 C 33,8 km/h (5 Bft) 100,00 %
17.09.2016 08:22 13,9 C 95 % 1008,2 hPa 0,2 l/m 17,6 km/h (3 Bft) W-SW 241 0 min 0,000 mm 0,0 UV-I 25 W/m 13,1 C 9,0 C 27,4 km/h (4 Bft) 97,87 %
17.09.2016 08:24 13,9 C 95 % 1008,1 hPa 0,0 l/m 20,3 km/h (4 Bft) SW 220 0 min 0,000 mm 0,0 UV-I 23 W/m 13,1 C 8,2 C 32,2 km/h (5 Bft) 97,87 %
17.09.2016 08:26 13,8 C 95 % 1008,2 hPa 0,2 l/m 15,9 km/h (3 Bft) S-SW 211 0 min 0,000 mm 0,0 UV-I 23 W/m 13,0 C 9,4 C 27,4 km/h (4 Bft) 100,00 %
17.09.2016 08:28 13,9 C 95 % 1008,1 hPa 0,0 l/m 18,0 km/h (3 Bft) S-SW 204 0 min 0,000 mm 0,0 UV-I 23 W/m 13,1 C 8,9 C 27,4 km/h (4 Bft) 100,00 %
17.09.2016 08:30 13,8 C 95 % 1008,1 hPa 0,2 l/m 17,6 km/h (3 Bft) S-SW 193 0 min 0,000 mm 0,0 UV-I 25 W/m 13,0 C 8,9 C 29,0 km/h (5 Bft) 100,00 %
17.09.2016 08:32 13,8 C 95 % 1008,2 hPa 0,0 l/m 20,8 km/h (4 Bft) S 189 0 min 0,000 mm 0,0 UV-I 25 W/m 13,0 C 8,0 C 30,6 km/h (5 Bft) 97,87 %
17.09.2016 08:34 13,8 C 95 % 1008,2 hPa 0,0 l/m 16,1 km/h (3 Bft) S 183 0 min 0,000 mm 0,0 UV-I 25 W/m 13,0 C 9,4 C 22,5 km/h (4 Bft) 98,00 %
17.09.2016 08:36 13,8 C 95 % 1008,2 hPa 0,0 l/m 21,3 km/h (4 Bft) S-SW 192 0 min 0,000 mm 0,0 UV-I 24 W/m 13,0 C 7,9 C 37,0 km/h (5 Bft) 97,87 %
17.09.2016 08:38 13,8 C 95 % 1008,1 hPa 0,0 l/m 19,1 km/h (3 Bft) S 169 0 min 0,000 mm 0,0 UV-I 27 W/m 13,0 C 8,4 C 29,0 km/h (5 Bft) 100,00 %
17.09.2016 08:40 13,8 C 94 % 1008,1 hPa 0,0 l/m 20,0 km/h (4 Bft) SW 214 0 min 0,000 mm 0,0 UV-I 28 W/m 12,9 C 8,2 C 30,6 km/h (5 Bft) 98,00 %
17.09.2016 08:42 13,8 C 94 % 1008,1 hPa 0,0 l/m 22,4 km/h (4 Bft) W-SW 242 0 min 0,000 mm 0,0 UV-I 29 W/m 12,9 C 7,6 C 33,8 km/h (5 Bft) 93,62 %
17.09.2016 08:44 13,8 C 94 % 1008,1 hPa 0,2 l/m 21,3 km/h (4 Bft) SW 221 0 min 0,000 mm 0,0 UV-I 32 W/m 12,9 C 7,9 C 30,6 km/h (5 Bft) 98,00 %
17.09.2016 08:46 13,8 C 94 % 1008,1 hPa 0,0 l/m 15,4 km/h (3 Bft) SW 229 0 min 0,000 mm 0,0 UV-I 32 W/m 12,9 C 9,6 C 22,5 km/h (4 Bft) 100,00 %
17.09.2016 08:48 13,8 C 94 % 1008,1 hPa 0,0 l/m 20,6 km/h (4 Bft) SW 235 0 min 0,000 mm 0,0 UV-I 31 W/m 12,9 C 8,0 C 29,0 km/h (5 Bft) 100,00 %
17.09.2016 08:50 13,7 C 94 % 1008,1 hPa 0,0 l/m 18,3 km/h (3 Bft) W-SW 245 0 min 0,000 mm 0,0 UV-I 31 W/m 12,8 C 8,6 C 27,4 km/h (4 Bft) 97,87 %
17.09.2016 08:52 13,7 C 94 % 1008,0 hPa 0,0 l/m 14,3 km/h (3 Bft) W-SW 252 0 min 0,000 mm 0,0 UV-I 34 W/m 12,8 C 9,9 C 24,1 km/h (4 Bft) 97,87 %
17.09.2016 08:54 13,7 C 94 % 1008,0 hPa 0,2 l/m 24,4 km/h (4 Bft) SW 235 0 min 0,000 mm 0,0 UV-I 38 W/m 12,8 C 7,0 C 45,1 km/h (6 Bft) 100,00 %
17.09.2016 08:56 13,7 C 94 % 1008,1 hPa 0,0 l/m 24,7 km/h (4 Bft) W-SW 255 0 min 0,000 mm 0,0 UV-I 39 W/m 12,8 C 6,9 C 38,6 km/h (5 Bft) 97,87 %
17.09.2016 08:58 13,7 C 94 % 1008,0 hPa 0,0 l/m 23,1 km/h (4 Bft) W-SW 255 0 min 0,000 mm 0,0 UV-I 43 W/m 12,8 C 7,3 C 30,6 km/h (5 Bft) 97,87 %
17.09.2016 09:00 13,7 C 94 % 1008,0 hPa 0,0 l/m 18,5 km/h (3 Bft) W-SW 241 0 min 0,025 mm 0,0 UV-I 46 W/m 12,8 C 8,5 C 33,8 km/h (5 Bft) 97,87 %
17.09.2016 09:02 13,7 C 94 % 1008,0 hPa 0,0 l/m 20,4 km/h (4 Bft) SW 224 0 min 0,000 mm 0,0 UV-I 50 W/m 12,8 C 8,0 C 37,0 km/h (5 Bft) 97,87 %
17.09.2016 09:04 13,6 C 94 % 1008,0 hPa 0,0 l/m 23,3 km/h (4 Bft) W-SW 257 0 min 0,000 mm 0,0 UV-I 52 W/m 12,7 C 7,1 C 40,2 km/h (6 Bft) 100,00 %
17.09.2016 09:06 13,6 C 93 % 1008,0 hPa 0,0 l/m 18,7 km/h (3 Bft) SW 234 0 min 0,000 mm 0,0 UV-I 55 W/m 12,5 C 8,3 C 30,6 km/h (5 Bft) 100,00 %
17.09.2016 09:08 13,6 C 94 % 1008,0 hPa 0,2 l/m 20,4 km/h (4 Bft) W-SW 254 0 min 0,000 mm 0,0 UV-I 61 W/m 12,7 C 7,8 C 32,2 km/h (5 Bft) 97,14 %
17.09.2016 09:10 13,6 C 94 % 1008,0 hPa 0,0 l/m 15,8 km/h (3 Bft) SW 234 0 min 0,000 mm 0,0 UV-I 67 W/m 12,7 C 9,2 C 25,7 km/h (4 Bft) 100,00 %
17.09.2016 09:12 13,6 C 94 % 1008,0 hPa 0,0 l/m 21,2 km/h (4 Bft) W 269 0 min 0,000 mm 0,0 UV-I 68 W/m 12,7 C 7,6 C 35,4 km/h (5 Bft) 97,87 %
17.09.2016 09:14 13,6 C 94 % 1008,1 hPa 0,0 l/m 21,5 km/h (4 Bft) S-SW 198 0 min 0,000 mm 0,0 UV-I 68 W/m 12,7 C 7,5 C 27,4 km/h (4 Bft) 100,00 %
17.09.2016 09:16 13,6 C 94 % 1008,0 hPa 0,0 l/m 18,9 km/h (3 Bft) W-SW 238 0 min 0,000 mm 0,0 UV-I 74 W/m 12,7 C 8,2 C 30,6 km/h (5 Bft) 95,74 %
17.09.2016 09:18 13,6 C 94 % 1008,0 hPa 0,0 l/m 18,4 km/h (3 Bft) W-SW 239 0 min 0,000 mm 0,0 UV-I 89 W/m 12,7 C 8,4 C 32,2 km/h (5 Bft) 95,74 %
17.09.2016 09:20 13,6 C 94 % 1008,0 hPa 0,0 l/m 19,0 km/h (3 Bft) S-SW 192 0 min 0,000 mm 0,0 UV-I 98 W/m 12,7 C 8,2 C 33,8 km/h (5 Bft) 95,74 %
17.09.2016 09:22 13,6 C 94 % 1008,0 hPa 0,0 l/m 17,2 km/h (3 Bft) S-SW 202 0 min 0,000 mm 0,0 UV-I 111 W/m 12,7 C 8,8 C 25,7 km/h (4 Bft) 97,87 %
17.09.2016 09:24 13,6 C 94 % 1008,0 hPa 0,2 l/m 18,9 km/h (3 Bft) W-SW 242 0 min 0,000 mm 0,1 UV-I 123 W/m 12,7 C 8,2 C 37,0 km/h (5 Bft) 97,87 %
17.09.2016 09:26 13,7 C 94 % 1008,1 hPa 0,0 l/m 20,6 km/h (4 Bft) SW 228 0 min 0,000 mm 0,5 UV-I 134 W/m 12,8 C 7,9 C 32,2 km/h (5 Bft) 95,74 %
17.09.2016 09:28 13,6 C 94 % 1008,1 hPa 0,0 l/m 22,3 km/h (4 Bft) S 178 0 min 0,000 mm 0,2 UV-I 119 W/m 12,7 C 7,3 C 40,2 km/h (6 Bft) 97,87 %
17.09.2016 09:30 13,6 C 93 % 1008,1 hPa 0,0 l/m 24,3 km/h (4 Bft) SW 236 0 min 0,000 mm 0,2 UV-I 110 W/m 12,5 C 6,9 C 33,8 km/h (5 Bft) 94,34 %
17.09.2016 09:32 13,6 C 94 % 1008,2 hPa 0,0 l/m 21,3 km/h (4 Bft) S-SW 194 0 min 0,000 mm 0,3 UV-I 106 W/m 12,7 C 7,6 C 32,2 km/h (5 Bft) 95,74 %
17.09.2016 09:34 13,6 C 93 % 1008,2 hPa 0,0 l/m 21,3 km/h (4 Bft) SW 224 0 min 0,000 mm 0,0 UV-I 98 W/m 12,5 C 7,6 C 37,0 km/h (5 Bft) 97,87 %
17.09.2016 09:36 13,6 C 93 % 1008,3 hPa 0,0 l/m 29,1 km/h (5 Bft) SW 225 0 min 0,000 mm 0,0 UV-I 87 W/m 12,5 C 5,9 C 41,8 km/h (6 Bft) 97,37 %
17.09.2016 09:38 13,6 C 93 % 1008,3 hPa 0,0 l/m 18,7 km/h (3 Bft) SW 214 0 min 0,000 mm 0,0 UV-I 79 W/m 12,5 C 8,3 C 35,4 km/h (5 Bft) 96,00 %
17.09.2016 09:40 13,6 C 93 % 1008,2 hPa 0,0 l/m 18,3 km/h (3 Bft) W-SW 252 0 min 0,000 mm 0,0 UV-I 83 W/m 12,5 C 8,4 C 27,4 km/h (4 Bft) 97,87 %
17.09.2016 09:42 13,5 C 93 % 1008,2 hPa 0,0 l/m 23,0 km/h (4 Bft) SW 218 0 min 0,000 mm 0,0 UV-I 92 W/m 12,4 C 7,0 C 33,8 km/h (5 Bft) 97,87 %
17.09.2016 09:44 13,5 C 93 % 1008,1 hPa 0,0 l/m 20,1 km/h (4 Bft) S-SW 212 0 min 0,000 mm 0,4 UV-I 105 W/m 12,4 C 7,8 C 32,2 km/h (5 Bft) 97,87 %
17.09.2016 09:46 13,5 C 93 % 1008,1 hPa 0,0 l/m 20,6 km/h (4 Bft) SW 223 0 min 0,000 mm 0,6 UV-I 123 W/m 12,4 C 7,6 C 38,6 km/h (5 Bft) 98,00 %
17.09.2016 09:48 13,5 C 93 % 1008,1 hPa 0,0 l/m 20,6 km/h (4 Bft) W-SW 246 0 min 0,000 mm 0,6 UV-I 128 W/m 12,4 C 7,6 C 32,2 km/h (5 Bft) 95,74 %
17.09.2016 09:50 13,5 C 92 % 1008,1 hPa 0,0 l/m 25,7 km/h (4 Bft) SW 234 0 min 0,000 mm 0,6 UV-I 127 W/m 12,2 C 6,4 C 37,0 km/h (5 Bft) 100,00 %
17.09.2016 09:52 13,5 C 92 % 1008,1 hPa 0,0 l/m 18,1 km/h (3 Bft) W-SW 238 0 min 0,000 mm 0,7 UV-I 153 W/m 12,2 C 8,4 C 27,4 km/h (4 Bft) 97,87 %
17.09.2016 09:54 13,6 C 93 % 1008,1 hPa 0,0 l/m 20,7 km/h (4 Bft) SW 232 0 min 0,000 mm 0,7 UV-I 168 W/m 12,5 C 7,7 C 30,6 km/h (5 Bft) 100,00 %
17.09.2016 09:56 13,6 C 93 % 1008,2 hPa 0,0 l/m 17,2 km/h (3 Bft) W-SW 248 0 min 0,000 mm 0,7 UV-I 175 W/m 12,5 C 8,8 C 25,7 km/h (4 Bft) 95,74 %
17.09.2016 09:58 13,6 C 93 % 1008,1 hPa 0,0 l/m 25,0 km/h (4 Bft) S-SW 206 0 min 0,000 mm 0,6 UV-I 151 W/m 12,5 C 6,7 C 41,8 km/h (6 Bft) 100,00 %
17.09.2016 10:00 13,6 C 92 % 1008,1 hPa 0,0 l/m 24,6 km/h (4 Bft) W 260 0 min 0,077 mm 0,7 UV-I 146 W/m 12,3 C 6,8 C 38,6 km/h (5 Bft) 100,00 %
17.09.2016 10:02 13,6 C 92 % 1008,2 hPa 0,0 l/m 24,4 km/h (4 Bft) W-SW 251 0 min 0,000 mm 0,7 UV-I 140 W/m 12,3 C 6,8 C 35,4 km/h (5 Bft) 95,74 %
17.09.2016 10:04 13,6 C 92 % 1008,1 hPa 0,0 l/m 27,0 km/h (4 Bft) S-SW 200 0 min 0,000 mm 0,7 UV-I 132 W/m 12,3 C 6,3 C 41,8 km/h (6 Bft) 100,00 %
17.09.2016 10:06 13,6 C 92 % 1008,1 hPa 0,0 l/m 24,2 km/h (4 Bft) SW 221 0 min 0,000 mm 0,7 UV-I 133 W/m 12,3 C 6,9 C 41,8 km/h (6 Bft) 97,87 %
17.09.2016 10:08 13,6 C 92 % 1008,1 hPa 0,0 l/m 20,9 km/h (4 Bft) S 182 0 min 0,000 mm 0,7 UV-I 130 W/m 12,3 C 7,7 C 33,8 km/h (5 Bft) 100,00 %
17.09.2016 10:10 13,7 C 92 % 1008,1 hPa 0,0 l/m 15,7 km/h (3 Bft) W-SW 252 0 min 0,000 mm 0,6 UV-I 120 W/m 12,4 C 9,4 C 22,5 km/h (4 Bft) 100,00 %
17.09.2016 10:12 13,6 C 92 % 1008,1 hPa 0,0 l/m 22,4 km/h (4 Bft) SW 221 0 min 0,000 mm 0,6 UV-I 108 W/m 12,3 C 7,3 C 38,6 km/h (5 Bft) 100,00 %
17.09.2016 10:14 13,6 C 92 % 1008,2 hPa 0,0 l/m 23,2 km/h (4 Bft) SW 220 0 min 0,000 mm 0,6 UV-I 102 W/m 12,3 C 7,1 C 37,0 km/h (5 Bft) 100,00 %
17.09.2016 10:16 13,6 C 92 % 1008,2 hPa 0,0 l/m 22,6 km/h (4 Bft) W 270 0 min 0,000 mm 0,6 UV-I 110 W/m 12,3 C 7,3 C 33,8 km/h (5 Bft) 100,00 %
17.09.2016 10:18 13,6 C 92 % 1008,2 hPa 0,0 l/m 23,8 km/h (4 Bft) W-SW 244 0 min 0,000 mm 0,6 UV-I 111 W/m 12,3 C 7,0 C 33,8 km/h (5 Bft) 100,00 %
17.09.2016 10:20 13,7 C 91 % 1008,2 hPa 0,0 l/m 21,8 km/h (4 Bft) SW 229 0 min 0,000 mm 0,6 UV-I 105 W/m 12,3 C 7,6 C 33,8 km/h (5 Bft) 100,00 %
17.09.2016 10:22 13,7 C 91 % 1008,0 hPa 0,0 l/m 25,1 km/h (4 Bft) W-SW 258 0 min 0,000 mm 0,5 UV-I 96 W/m 12,3 C 6,8 C 40,2 km/h (6 Bft) 100,00 %
17.09.2016 10:24 13,7 C 91 % 1008,2 hPa 0,0 l/m 23,8 km/h (4 Bft) SW 223 0 min 0,000 mm 0,6 UV-I 101 W/m 12,3 C 7,1 C 38,6 km/h (5 Bft) 100,00 %
17.09.2016 10:26 13,7 C 91 % 1008,1 hPa 0,0 l/m 23,9 km/h (4 Bft) SW 236 0 min 0,000 mm 0,6 UV-I 97 W/m 12,3 C 7,1 C 33,8 km/h (5 Bft) 98,00 %
17.09.2016 10:28 13,7 C 91 % 1008,3 hPa 0,0 l/m 19,6 km/h (3 Bft) W-SW 246 0 min 0,000 mm 0,5 UV-I 87 W/m 12,3 C 8,2 C 32,2 km/h (5 Bft) 100,00 %
17.09.2016 10:30 13,7 C 91 % 1008,3 hPa 0,0 l/m 23,0 km/h (4 Bft) SW 219 0 min 0,000 mm 0,5 UV-I 83 W/m 12,3 C 7,3 C 45,1 km/h (6 Bft) 100,00 %
17.09.2016 10:32 13,7 C 91 % 1008,3 hPa 0,0 l/m 21,8 km/h (4 Bft) O-SO 121 0 min 0,000 mm 0,5 UV-I 79 W/m 12,3 C 7,6 C 32,2 km/h (5 Bft) 100,00 %
17.09.2016 10:34 13,7 C 91 % 1008,3 hPa 0,0 l/m 22,3 km/h (4 Bft) SW 221 0 min 0,000 mm 0,6 UV-I 93 W/m 12,3 C 7,5 C 41,8 km/h (6 Bft) 100,00 %
17.09.2016 10:36 13,7 C 91 % 1008,3 hPa 0,0 l/m 26,0 km/h (4 Bft) S-SW 200 0 min 0,000 mm 0,5 UV-I 73 W/m 12,3 C 6,6 C 37,0 km/h (5 Bft) 98,00 %
17.09.2016 10:38 13,7 C 91 % 1008,2 hPa 0,0 l/m 20,9 km/h (4 Bft) SW 221 0 min 0,000 mm 0,2 UV-I 60 W/m 12,3 C 7,8 C 29,0 km/h (5 Bft) 100,00 %
17.09.2016 10:40 13,7 C 90 % 1008,2 hPa 0,0 l/m 30,9 km/h (5 Bft) S-SW 211 0 min 0,000 mm 0,2 UV-I 55 W/m 12,1 C 5,7 C 51,5 km/h (7 Bft) 100,00 %
17.09.2016 10:42 13,7 C 91 % 1008,3 hPa 0,0 l/m 21,2 km/h (4 Bft) S-SW 198 0 min 0,000 mm 0,0 UV-I 48 W/m 12,3 C 7,7 C 32,2 km/h (5 Bft) 100,00 %
17.09.2016 10:44 13,7 C 91 % 1008,2 hPa 0,0 l/m 17,1 km/h (3 Bft) W-SW 244 0 min 0,000 mm 0,0 UV-I 41 W/m 12,3 C 8,9 C 27,4 km/h (4 Bft) 100,00 %
17.09.2016 10:46 13,7 C 90 % 1008,3 hPa 0,0 l/m 19,1 km/h (3 Bft) SW 231 0 min 0,000 mm 0,0 UV-I 46 W/m 12,1 C 8,3 C 35,4 km/h (5 Bft) 100,00 %
17.09.2016 10:48 13,7 C 91 % 1008,3 hPa 0,0 l/m 23,1 km/h (4 Bft) SW 223 0 min 0,000 mm 0,0 UV-I 55 W/m 12,3 C 7,3 C 37,0 km/h (5 Bft) 100,00 %
17.09.2016 10:50 13,7 C 91 % 1008,3 hPa 0,0 l/m 23,6 km/h (4 Bft) W-SW 242 0 min 0,000 mm 0,0 UV-I 55 W/m 12,3 C 7,2 C 40,2 km/h (6 Bft) 100,00 %
17.09.2016 10:52 13,7 C 91 % 1008,2 hPa 0,0 l/m 25,0 km/h (4 Bft) W-SW 245 0 min 0,000 mm 0,0 UV-I 62 W/m 12,3 C 6,8 C 45,1 km/h (6 Bft) 100,00 %
17.09.2016 10:54 13,7 C 90 % 1008,4 hPa 0,0 l/m 23,9 km/h (4 Bft) W-SW 244 0 min 0,000 mm 0,0 UV-I 65 W/m 12,1 C 7,1 C 37,0 km/h (5 Bft) 100,00 %
17.09.2016 10:56 13,7 C 90 % 1008,3 hPa 0,0 l/m 21,7 km/h (4 Bft) W-SW 240 0 min 0,000 mm 0,5 UV-I 82 W/m 12,1 C 7,6 C 38,6 km/h (5 Bft) 97,87 %
17.09.2016 10:58 13,8 C 90 % 1008,2 hPa 0,0 l/m 26,1 km/h (4 Bft) W-SW 241 0 min 0,000 mm 0,6 UV-I 92 W/m 12,2 C 6,7 C 37,0 km/h (5 Bft) 100,00 %
17.09.2016 11:00 13,8 C 90 % 1008,3 hPa 0,0 l/m 18,6 km/h (3 Bft) SW 221 0 min 0,076 mm 0,6 UV-I 92 W/m 12,2 C 8,6 C 32,2 km/h (5 Bft) 100,00 %
17.09.2016 11:02 13,8 C 90 % 1008,2 hPa 0,0 l/m 24,7 km/h (4 Bft) S-SW 197 0 min 0,000 mm 0,8 UV-I 118 W/m 12,2 C 7,0 C 41,8 km/h (6 Bft) 95,74 %
17.09.2016 11:04 13,8 C 90 % 1008,2 hPa 0,0 l/m 21,7 km/h (4 Bft) S-SO 159 0 min 0,000 mm 0,8 UV-I 113 W/m 12,2 C 7,8 C 38,6 km/h (5 Bft) 100,00 %
17.09.2016 11:06 13,8 C 90 % 1008,2 hPa 0,0 l/m 24,9 km/h (4 Bft) SW 234 0 min 0,000 mm 0,6 UV-I 94 W/m 12,2 C 7,0 C 33,8 km/h (5 Bft) 100,00 %
17.09.2016 11:08 13,9 C 90 % 1008,2 hPa 0,0 l/m 24,8 km/h (4 Bft) W 260 0 min 0,000 mm 0,7 UV-I 102 W/m 12,3 C 7,2 C 38,6 km/h (5 Bft) 97,87 %
17.09.2016 11:10 13,9 C 90 % 1008,3 hPa 0,0 l/m 27,4 km/h (4 Bft) SW 229 0 min 0,000 mm 0,8 UV-I 102 W/m 12,3 C 6,6 C 49,9 km/h (6 Bft) 100,00 %
17.09.2016 11:12 13,9 C 90 % 1008,4 hPa 0,0 l/m 27,5 km/h (4 Bft) SW 234 0 min 0,000 mm 0,6 UV-I 85 W/m 12,3 C 6,6 C 38,6 km/h (5 Bft) 97,87 %
17.09.2016 11:14 13,9 C 90 % 1008,4 hPa 0,0 l/m 27,8 km/h (4 Bft) SW 221 0 min 0,000 mm 0,6 UV-I 86 W/m 12,3 C 6,5 C 38,6 km/h (5 Bft) 97,96 %
17.09.2016 11:16 13,8 C 90 % 1008,5 hPa 0,0 l/m 24,2 km/h (4 Bft) SW 226 0 min 0,000 mm 0,6 UV-I 91 W/m 12,2 C 7,2 C 40,2 km/h (6 Bft) 95,74 %
17.09.2016 11:18 13,8 C 90 % 1008,6 hPa 0,0 l/m 19,3 km/h (3 Bft) SW 224 0 min 0,000 mm 0,6 UV-I 88 W/m 12,2 C 8,4 C 30,6 km/h (5 Bft) 95,83 %
17.09.2016 11:20 13,8 C 91 % 1008,4 hPa 0,0 l/m 24,9 km/h (4 Bft) W-SW 237 0 min 0,000 mm 0,5 UV-I 83 W/m 12,4 C 7,0 C 40,2 km/h (6 Bft) 91,49 %
17.09.2016 11:22 13,7 C 91 % 1008,6 hPa 0,0 l/m 26,7 km/h (4 Bft) SW 225 0 min 0,000 mm 0,6 UV-I 92 W/m 12,3 C 6,5 C 37,0 km/h (5 Bft) 95,74 %
17.09.2016 11:24 13,7 C 91 % 1008,6 hPa 0,0 l/m 21,0 km/h (4 Bft) W-SW 238 0 min 0,000 mm 0,6 UV-I 98 W/m 12,3 C 7,8 C 40,2 km/h (6 Bft) 97,30 %
17.09.2016 11:26 13,7 C 91 % 1008,5 hPa 0,0 l/m 21,4 km/h (4 Bft) S 169 0 min 0,000 mm 0,6 UV-I 90 W/m 12,3 C 7,7 C 32,2 km/h (5 Bft) 95,74 %
17.09.2016 11:28 13,7 C 91 % 1008,6 hPa 0,0 l/m 17,7 km/h (3 Bft) S-SW 207 0 min 0,000 mm 0,6 UV-I 90 W/m 12,3 C 8,7 C 25,7 km/h (4 Bft) 97,87 %
17.09.2016 11:30 13,7 C 92 % 1008,5 hPa 0,0 l/m 19,0 km/h (3 Bft) S 186 0 min 0,000 mm 0,6 UV-I 93 W/m 12,4 C 8,3 C 29,0 km/h (5 Bft) 97,87 %
17.09.2016 11:32 13,6 C 92 % 1008,5 hPa 0,0 l/m 25,3 km/h (4 Bft) S-SW 200 0 min 0,000 mm 0,6 UV-I 91 W/m 12,3 C 6,6 C 41,8 km/h (6 Bft) 96,00 %
17.09.2016 11:34 13,6 C 92 % 1008,5 hPa 0,2 l/m 23,9 km/h (4 Bft) W 272 0 min 0,000 mm 0,6 UV-I 80 W/m 12,3 C 7,0 C 37,0 km/h (5 Bft) 93,62 %
17.09.2016 11:36 13,6 C 92 % 1008,5 hPa 0,0 l/m 25,4 km/h (4 Bft) W-SW 248 0 min 0,000 mm 0,6 UV-I 82 W/m 12,3 C 6,6 C 33,8 km/h (5 Bft) 95,74 %
17.09.2016 11:38 13,5 C 92 % 1008,5 hPa 0,0 l/m 24,6 km/h (4 Bft) S 185 0 min 0,000 mm 0,5 UV-I 72 W/m 12,2 C 6,7 C 38,6 km/h (5 Bft) 93,62 %
17.09.2016 11:40 13,5 C 92 % 1008,6 hPa 0,0 l/m 22,9 km/h (4 Bft) SW 221 0 min 0,000 mm 0,5 UV-I 69 W/m 12,2 C 7,1 C 37,0 km/h (5 Bft) 95,74 %
17.09.2016 11:42 13,4 C 92 % 1008,7 hPa 0,0 l/m 22,3 km/h (4 Bft) SW 217 0 min 0,000 mm 0,6 UV-I 76 W/m 12,1 C 7,1 C 38,6 km/h (5 Bft) 92,00 %
17.09.2016 11:44 13,4 C 93 % 1008,7 hPa 0,2 l/m 18,7 km/h (3 Bft) SW 225 0 min 0,000 mm 0,6 UV-I 87 W/m 12,3 C 8,1 C 29,0 km/h (5 Bft) 97,87 %
17.09.2016 11:46 13,4 C 93 % 1008,7 hPa 0,0 l/m 19,4 km/h (3 Bft) SW 227 0 min 0,000 mm 0,5 UV-I 74 W/m 12,3 C 7,8 C 27,4 km/h (4 Bft) 97,87 %
17.09.2016 11:48 13,4 C 93 % 1008,7 hPa 0,0 l/m 20,5 km/h (4 Bft) S-SW 209 0 min 0,000 mm 0,6 UV-I 74 W/m 12,3 C 7,5 C 33,8 km/h (5 Bft) 97,87 %
17.09.2016 11:50 13,3 C 93 % 1008,8 hPa 0,0 l/m 19,4 km/h (3 Bft) S 191 0 min 0,000 mm 0,5 UV-I 76 W/m 12,2 C 7,7 C 29,0 km/h (5 Bft) 100,00 %
17.09.2016 11:52 13,3 C 93 % 1008,8 hPa 0,0 l/m 20,5 km/h (4 Bft) S 191 0 min 0,000 mm 0,3 UV-I 63 W/m 12,2 C 7,4 C 29,0 km/h (5 Bft) 100,00 %
17.09.2016 11:54 13,3 C 93 % 1008,8 hPa 0,0 l/m 22,9 km/h (4 Bft) S 190 0 min 0,000 mm 0,5 UV-I 74 W/m 12,2 C 6,8 C 37,0 km/h (5 Bft) 100,00 %
17.09.2016 11:56 13,3 C 93 % 1008,7 hPa 0,0 l/m 21,4 km/h (4 Bft) SW 228 0 min 0,000 mm 0,6 UV-I 88 W/m 12,2 C 7,2 C 30,6 km/h (5 Bft) 100,00 %
17.09.2016 11:58 13,3 C 93 % 1008,7 hPa 0,0 l/m 18,0 km/h (3 Bft) W-SW 250 0 min 0,000 mm 0,6 UV-I 88 W/m 12,2 C 8,1 C 35,4 km/h (5 Bft) 98,46 %
17.09.2016 12:00 13,3 C 93 % 1008,7 hPa 0,0 l/m 23,9 km/h (4 Bft) W-SW 241 0 min 0,076 mm 0,6 UV-I 81 W/m 12,2 C 6,6 C 37,0 km/h (5 Bft) 100,00 %
17.09.2016 12:02 13,3 C 93 % 1008,8 hPa 0,2 l/m 24,2 km/h (4 Bft) S-SW 194 0 min 0,000 mm 0,5 UV-I 68 W/m 12,2 C 6,5 C 37,0 km/h (5 Bft) 95,74 %
17.09.2016 12:04 13,3 C 93 % 1008,8 hPa 0,0 l/m 16,7 km/h (3 Bft) W-SW 238 0 min 0,000 mm 0,5 UV-I 76 W/m 12,2 C 8,5 C 29,0 km/h (5 Bft) 97,87 %
17.09.2016 12:06 13,3 C 93 % 1008,8 hPa 0,0 l/m 22,4 km/h (4 Bft) SW 225 0 min 0,000 mm 0,6 UV-I 78 W/m 12,2 C 6,9 C 40,2 km/h (6 Bft) 100,00 %
17.09.2016 12:08 13,3 C 93 % 1008,7 hPa 0,0 l/m 22,3 km/h (4 Bft) SW 217 0 min 0,000 mm 0,2 UV-I 62 W/m 12,2 C 6,9 C 33,8 km/h (5 Bft) 100,00 %
17.09.2016 12:10 13,3 C 93 % 1008,8 hPa 0,0 l/m 20,4 km/h (4 Bft) W 259 0 min 0,000 mm 0,5 UV-I 68 W/m 12,2 C 7,4 C 32,2 km/h (5 Bft) 100,00 %
17.09.2016 12:12 13,2 C 93 % 1008,7 hPa 0,2 l/m 27,7 km/h (4 Bft) W-SW 246 0 min 0,000 mm 0,6 UV-I 79 W/m 12,1 C 5,6 C 48,3 km/h (6 Bft) 100,00 %
17.09.2016 12:14 13,2 C 93 % 1008,7 hPa 0,0 l/m 26,1 km/h (4 Bft) S-SW 213 0 min 0,000 mm 0,5 UV-I 64 W/m 12,1 C 5,9 C 37,0 km/h (5 Bft) 98,00 %
17.09.2016 12:16 13,2 C 93 % 1008,7 hPa 0,0 l/m 25,3 km/h (4 Bft) S-SW 203 0 min 0,000 mm 0,6 UV-I 69 W/m 12,1 C 6,1 C 40,2 km/h (6 Bft) 100,00 %
17.09.2016 12:18 13,2 C 93 % 1008,7 hPa 0,0 l/m 22,0 km/h (4 Bft) SW 236 0 min 0,000 mm 0,5 UV-I 61 W/m 12,1 C 6,9 C 32,2 km/h (5 Bft) 97,87 %
17.09.2016 12:20 13,2 C 93 % 1008,7 hPa 0,0 l/m 21,4 km/h (4 Bft) S-SW 208 0 min 0,000 mm 0,5 UV-I 62 W/m 12,1 C 7,0 C 33,8 km/h (5 Bft) 97,87 %
17.09.2016 12:22 13,2 C 94 % 1008,8 hPa 0,2 l/m 16,9 km/h (3 Bft) SW 227 0 min 0,000 mm 0,5 UV-I 68 W/m 12,3 C 8,4 C 30,6 km/h (5 Bft) 100,00 %
17.09.2016 12:24 13,2 C 94 % 1008,7 hPa 0,0 l/m 20,7 km/h (4 Bft) S 191 0 min 0,000 mm 0,5 UV-I 64 W/m 12,3 C 7,2 C 32,2 km/h (5 Bft) 100,00 %
17.09.2016 12:26 13,2 C 94 % 1008,8 hPa 0,0 l/m 23,7 km/h (4 Bft) SW 219 0 min 0,000 mm 0,5 UV-I 64 W/m 12,3 C 6,5 C 46,7 km/h (6 Bft) 100,00 %
17.09.2016 12:28 13,2 C 94 % 1008,8 hPa 0,0 l/m 22,5 km/h (4 Bft) W-SW 248 0 min 0,000 mm 0,5 UV-I 66 W/m 12,3 C 6,8 C 38,6 km/h (5 Bft) 98,00 %
17.09.2016 12:30 13,2 C 94 % 1008,9 hPa 0,2 l/m 20,6 km/h (4 Bft) SW 221 0 min 0,000 mm 0,5 UV-I 65 W/m 12,3 C 7,3 C 35,4 km/h (5 Bft) 97,87 %
17.09.2016 12:32 13,2 C 94 % 1008,9 hPa 0,0 l/m 22,2 km/h (4 Bft) S-SW 209 0 min 0,000 mm 0,5 UV-I 62 W/m 12,3 C 6,8 C 43,5 km/h (6 Bft) 100,00 %
17.09.2016 12:34 13,1 C 94 % 1008,9 hPa 0,0 l/m 21,6 km/h (4 Bft) SW 219 0 min 0,000 mm 0,5 UV-I 70 W/m 12,2 C 6,9 C 33,8 km/h (5 Bft) 100,00 %
17.09.2016 12:36 13,1 C 94 % 1008,8 hPa 0,0 l/m 23,5 km/h (4 Bft) SW 218 0 min 0,000 mm 0,5 UV-I 67 W/m 12,2 C 6,4 C 37,0 km/h (5 Bft) 100,00 %
17.09.2016 12:38 13,1 C 94 % 1008,9 hPa 0,2 l/m 19,5 km/h (3 Bft) S-SO 163 0 min 0,000 mm 0,5 UV-I 68 W/m 12,2 C 7,4 C 33,8 km/h (5 Bft) 100,00 %
17.09.2016 12:40 13,1 C 94 % 1008,9 hPa 0,0 l/m 22,2 km/h (4 Bft) W-SW 246 0 min 0,000 mm 0,6 UV-I 79 W/m 12,2 C 6,7 C 37,0 km/h (5 Bft) 100,00 %
17.09.2016 12:42 13,1 C 94 % 1008,9 hPa 0,0 l/m 23,4 km/h (4 Bft) S-SW 211 0 min 0,000 mm 0,6 UV-I 82 W/m 12,2 C 6,4 C 32,2 km/h (5 Bft) 100,00 %
17.09.2016 12:44 13,1 C 94 % 1008,9 hPa 0,2 l/m 22,2 km/h (4 Bft) S-SW 213 0 min 0,000 mm 0,6 UV-I 85 W/m 12,2 C 6,7 C 35,4 km/h (5 Bft) 100,00 %
17.09.2016 12:46 13,1 C 94 % 1008,9 hPa 0,0 l/m 24,4 km/h (4 Bft) S-SW 211 0 min 0,000 mm 0,6 UV-I 78 W/m 12,2 C 6,2 C 38,6 km/h (5 Bft) 100,00 %
17.09.2016 12:48 13,1 C 94 % 1009,0 hPa 0,0 l/m 22,5 km/h (4 Bft) S 191 0 min 0,000 mm 0,6 UV-I 74 W/m 12,2 C 6,6 C 35,4 km/h (5 Bft) 100,00 %
17.09.2016 12:50 13,1 C 94 % 1009,0 hPa 0,2 l/m 21,5 km/h (4 Bft) SW 216 0 min 0,000 mm 0,6 UV-I 82 W/m 12,2 C 6,9 C 35,4 km/h (5 Bft) 100,00 %
17.09.2016 12:52 13,1 C 94 % 1008,9 hPa 0,0 l/m 20,8 km/h (4 Bft) S-SW 211 0 min 0,000 mm 0,7 UV-I 92 W/m 12,2 C 7,1 C 30,6 km/h (5 Bft) 97,87 %
17.09.2016 12:54 13,1 C 94 % 1009,0 hPa 0,0 l/m 22,5 km/h (4 Bft) S-SW 192 0 min 0,000 mm 0,7 UV-I 91 W/m 12,2 C 6,6 C 35,4 km/h (5 Bft) 100,00 %
17.09.2016 12:56 13,1 C 94 % 1009,0 hPa 0,0 l/m 18,7 km/h (3 Bft) S 189 0 min 0,000 mm 0,7 UV-I 87 W/m 12,2 C 7,7 C 30,6 km/h (5 Bft) 100,00 %
17.09.2016 12:58 13,1 C 94 % 1009,0 hPa 0,2 l/m 23,4 km/h (4 Bft) S-SW 196 0 min 0,000 mm 0,7 UV-I 90 W/m 12,2 C 6,4 C 38,6 km/h (5 Bft) 98,00 %
17.09.2016 13:00 13,1 C 94 % 1009,0 hPa 0,0 l/m 22,8 km/h (4 Bft) SW 226 0 min 0,000 mm 0,7 UV-I 91 W/m 12,2 C 6,6 C 33,8 km/h (5 Bft) 100,00 %
17.09.2016 13:02 13,1 C 94 % 1009,0 hPa 0,0 l/m 21,0 km/h (4 Bft) SW 219 0 min 0,051 mm 0,8 UV-I 98 W/m 12,2 C 7,0 C 33,8 km/h (5 Bft) 100,00 %
17.09.2016 13:04 13,0 C 94 % 1009,0 hPa 0,0 l/m 19,8 km/h (3 Bft) SO 136 0 min 0,000 mm 0,8 UV-I 101 W/m 12,1 C 7,2 C 30,6 km/h (5 Bft) 100,00 %
17.09.2016 13:06 13,0 C 94 % 1009,0 hPa 0,0 l/m 21,3 km/h (4 Bft) SW 222 0 min 0,000 mm 0,8 UV-I 100 W/m 12,1 C 6,8 C 35,4 km/h (5 Bft) 100,00 %
17.09.2016 13:08 13,1 C 94 % 1009,0 hPa 0,2 l/m 21,6 km/h (4 Bft) SW 225 0 min 0,000 mm 0,8 UV-I 100 W/m 12,2 C 6,9 C 33,8 km/h (5 Bft) 97,87 %
17.09.2016 13:10 13,0 C 94 % 1009,0 hPa 0,0 l/m 21,5 km/h (4 Bft) SW 223 0 min 0,000 mm 0,8 UV-I 103 W/m 12,1 C 6,8 C 30,6 km/h (5 Bft) 95,74 %
17.09.2016 13:12 13,0 C 94 % 1008,9 hPa 0,0 l/m 24,5 km/h (4 Bft) S-SW 207 0 min 0,000 mm 0,8 UV-I 95 W/m 12,1 C 6,0 C 38,6 km/h (5 Bft) 96,00 %
17.09.2016 13:14 13,0 C 94 % 1008,9 hPa 0,2 l/m 24,1 km/h (4 Bft) SW 223 0 min 0,000 mm 0,7 UV-I 91 W/m 12,1 C 6,1 C 37,0 km/h (5 Bft) 97,87 %
17.09.2016 13:16 13,0 C 94 % 1008,9 hPa 0,0 l/m 25,9 km/h (4 Bft) SW 224 0 min 0,000 mm 0,7 UV-I 92 W/m 12,1 C 5,7 C 43,5 km/h (6 Bft) 97,92 %
17.09.2016 13:18 13,0 C 94 % 1008,9 hPa 0,0 l/m 22,3 km/h (4 Bft) S-SW 207 0 min 0,000 mm 0,7 UV-I 92 W/m 12,1 C 6,5 C 33,8 km/h (5 Bft) 97,87 %
17.09.2016 13:20 13,0 C 94 % 1009,0 hPa 0,0 l/m 20,9 km/h (4 Bft) S-SW 198 0 min 0,000 mm 0,7 UV-I 90 W/m 12,1 C 6,9 C 30,6 km/h (5 Bft) 95,74 %
17.09.2016 13:22 13,0 C 94 % 1009,0 hPa 0,2 l/m 22,5 km/h (4 Bft) SW 229 0 min 0,000 mm 0,7 UV-I 86 W/m 12,1 C 6,5 C 33,8 km/h (5 Bft) 93,62 %
17.09.2016 13:24 12,9 C 94 % 1009,0 hPa 0,0 l/m 23,0 km/h (4 Bft) SW 217 0 min 0,000 mm 0,7 UV-I 90 W/m 12,0 C 6,2 C 41,8 km/h (6 Bft) 94,29 %
17.09.2016 13:26 12,9 C 94 % 1008,9 hPa 0,0 l/m 27,6 km/h (4 Bft) SW 216 0 min 0,000 mm 0,7 UV-I 91 W/m 12,0 C 5,2 C 45,1 km/h (6 Bft) 98,00 %
17.09.2016 13:28 12,9 C 94 % 1008,9 hPa 0,2 l/m 26,2 km/h (4 Bft) SW 220 0 min 0,000 mm 0,7 UV-I 90 W/m 12,0 C 5,5 C 40,2 km/h (6 Bft) 97,87 %
17.09.2016 13:30 12,9 C 94 % 1008,9 hPa 0,0 l/m 30,0 km/h (5 Bft) S-SW 192 0 min 0,000 mm 0,6 UV-I 84 W/m 12,0 C 4,7 C 53,1 km/h (7 Bft) 95,74 %
17.09.2016 13:32 12,9 C 94 % 1009,0 hPa 0,0 l/m 29,0 km/h (5 Bft) S 189 0 min 0,000 mm 0,6 UV-I 83 W/m 12,0 C 4,9 C 51,5 km/h (7 Bft) 95,74 %
17.09.2016 13:34 12,9 C 94 % 1008,9 hPa 0,0 l/m 26,1 km/h (4 Bft) S 183 0 min 0,000 mm 0,6 UV-I 84 W/m 12,0 C 5,5 C 33,8 km/h (5 Bft) 95,74 %
17.09.2016 13:36 13,0 C 94 % 1009,0 hPa 0,0 l/m 24,8 km/h (4 Bft) S-SW 209 0 min 0,000 mm 0,6 UV-I 82 W/m 12,1 C 5,9 C 38,6 km/h (5 Bft) 94,00 %
17.09.2016 13:38 13,0 C 94 % 1009,0 hPa 0,0 l/m 24,4 km/h (4 Bft) SW 227 0 min 0,000 mm 0,6 UV-I 81 W/m 12,1 C 6,0 C 37,0 km/h (5 Bft) 95,74 %
17.09.2016 13:40 13,0 C 94 % 1009,0 hPa 0,2 l/m 22,3 km/h (4 Bft) W-SW 253 0 min 0,000 mm 0,6 UV-I 81 W/m 12,1 C 6,5 C 32,2 km/h (5 Bft) 97,87 %
17.09.2016 13:42 13,0 C 94 % 1009,1 hPa 0,0 l/m 25,1 km/h (4 Bft) S-SW 210 0 min 0,000 mm 0,6 UV-I 77 W/m 12,1 C 5,9 C 46,7 km/h (6 Bft) 97,87 %
17.09.2016 13:44 13,1 C 94 % 1009,1 hPa 0,0 l/m 21,9 km/h (4 Bft) S 183 0 min 0,000 mm 0,6 UV-I 80 W/m 12,2 C 6,8 C 35,4 km/h (5 Bft) 95,92 %
17.09.2016 13:46 13,1 C 94 % 1009,1 hPa 0,2 l/m 28,1 km/h (4 Bft) W-SW 252 0 min 0,000 mm 0,6 UV-I 84 W/m 12,2 C 5,4 C 48,3 km/h (6 Bft) 97,87 %
17.09.2016 13:48 13,1 C 94 % 1009,1 hPa 0,0 l/m 19,6 km/h (3 Bft) SW 226 0 min 0,000 mm 0,7 UV-I 84 W/m 12,2 C 7,4 C 33,8 km/h (5 Bft) 97,87 %
17.09.2016 13:50 13,1 C 94 % 1009,1 hPa 0,0 l/m 24,7 km/h (4 Bft) SW 223 0 min 0,000 mm 0,6 UV-I 82 W/m 12,2 C 6,1 C 38,6 km/h (5 Bft) 94,44 %
17.09.2016 13:52 13,1 C 94 % 1009,2 hPa 0,0 l/m 21,0 km/h (4 Bft) S-SO 165 0 min 0,000 mm 0,7 UV-I 86 W/m 12,2 C 7,0 C 30,6 km/h (5 Bft) 96,00 %
17.09.2016 13:54 13,1 C 93 % 1009,2 hPa 0,0 l/m 23,9 km/h (4 Bft) SW 226 0 min 0,000 mm 0,7 UV-I 93 W/m 12,0 C 6,3 C 33,8 km/h (5 Bft) 100,00 %
17.09.2016 13:56 13,1 C 93 % 1009,1 hPa 0,0 l/m 25,1 km/h (4 Bft) SW 234 0 min 0,000 mm 0,7 UV-I 94 W/m 12,0 C 6,0 C 38,6 km/h (5 Bft) 100,00 %
17.09.2016 13:58 13,2 C 93 % 1009,1 hPa 0,2 l/m 22,3 km/h (4 Bft) W-SW 239 0 min 0,000 mm 0,8 UV-I 97 W/m 12,1 C 6,8 C 32,2 km/h (5 Bft) 97,87 %
17.09.2016 14:00 13,2 C 93 % 1009,2 hPa 0,0 l/m 23,7 km/h (4 Bft) W-SW 238 0 min 0,000 mm 0,8 UV-I 97 W/m 12,1 C 6,5 C 40,2 km/h (6 Bft) 100,00 %
17.09.2016 14:02 13,2 C 93 % 1009,3 hPa 0,0 l/m 25,7 km/h (4 Bft) SW 225 0 min 0,051 mm 0,7 UV-I 97 W/m 12,1 C 6,0 C 37,0 km/h (5 Bft) 100,00 %
17.09.2016 14:04 13,2 C 93 % 1009,2 hPa 0,0 l/m 20,5 km/h (4 Bft) SW 215 0 min 0,000 mm 0,7 UV-I 93 W/m 12,1 C 7,3 C 30,6 km/h (5 Bft) 98,00 %
17.09.2016 14:06 13,2 C 93 % 1009,3 hPa 0,2 l/m 23,8 km/h (4 Bft) SW 236 0 min 0,000 mm 0,7 UV-I 87 W/m 12,1 C 6,4 C 40,2 km/h (6 Bft) 100,00 %
17.09.2016 14:08 13,2 C 93 % 1009,3 hPa 0,0 l/m 24,8 km/h (4 Bft) SW 218 0 min 0,000 mm 0,7 UV-I 99 W/m 12,1 C 6,2 C 38,6 km/h (5 Bft) 97,37 %
17.09.2016 14:10 13,3 C 93 % 1009,2 hPa 0,0 l/m 20,1 km/h (4 Bft) S-SW 196 0 min 0,000 mm 0,8 UV-I 115 W/m 12,2 C 7,5 C 29,0 km/h (5 Bft) 97,87 %
17.09.2016 14:12 13,3 C 93 % 1009,3 hPa 0,0 l/m 15,7 km/h (3 Bft) S 180 0 min 0,000 mm 0,8 UV-I 115 W/m 12,2 C 8,9 C 24,1 km/h (4 Bft) 97,87 %
17.09.2016 14:14 13,3 C 93 % 1009,3 hPa 0,0 l/m 20,5 km/h (4 Bft) SO 142 0 min 0,000 mm 0,8 UV-I 110 W/m 12,2 C 7,4 C 37,0 km/h (5 Bft) 97,87 %
17.09.2016 14:16 13,3 C 93 % 1009,3 hPa 0,0 l/m 18,7 km/h (3 Bft) SW 229 0 min 0,000 mm 0,8 UV-I 109 W/m 12,2 C 7,9 C 32,2 km/h (5 Bft) 97,87 %
17.09.2016 14:18 13,3 C 93 % 1009,3 hPa 0,0 l/m 22,0 km/h (4 Bft) SW 219 0 min 0,000 mm 0,8 UV-I 103 W/m 12,2 C 7,0 C 35,4 km/h (5 Bft) 100,00 %
17.09.2016 14:20 13,3 C 92 % 1009,3 hPa 0,2 l/m 19,8 km/h (3 Bft) S-SW 211 0 min 0,000 mm 0,7 UV-I 99 W/m 12,0 C 7,6 C 30,6 km/h (5 Bft) 100,00 %
17.09.2016 14:22 13,3 C 92 % 1009,3 hPa 0,0 l/m 24,0 km/h (4 Bft) S-SW 212 0 min 0,000 mm 0,7 UV-I 101 W/m 12,0 C 6,5 C 43,5 km/h (6 Bft) 100,00 %
17.09.2016 14:24 13,2 C 92 % 1009,4 hPa 0,0 l/m 22,1 km/h (4 Bft) SW 218 0 min 0,000 mm 0,7 UV-I 93 W/m 11,9 C 6,9 C 38,6 km/h (5 Bft) 100,00 %
17.09.2016 14:26 13,2 C 92 % 1009,3 hPa 0,2 l/m 21,0 km/h (4 Bft) W-SW 254 0 min 0,000 mm 0,6 UV-I 84 W/m 11,9 C 7,1 C 32,2 km/h (5 Bft) 93,62 %
17.09.2016 14:28 13,3 C 92 % 1009,4 hPa 0,0 l/m 22,7 km/h (4 Bft) S-SW 212 0 min 0,000 mm 0,6 UV-I 80 W/m 12,0 C 6,8 C 45,1 km/h (6 Bft) 100,00 %
17.09.2016 14:30 13,2 C 92 % 1009,3 hPa 0,0 l/m 23,3 km/h (4 Bft) S-SW 194 0 min 0,000 mm 0,6 UV-I 86 W/m 11,9 C 6,6 C 33,8 km/h (5 Bft) 100,00 %
17.09.2016 14:32 13,3 C 92 % 1009,4 hPa 0,0 l/m 20,3 km/h (4 Bft) SW 227 0 min 0,000 mm 0,6 UV-I 91 W/m 12,0 C 7,5 C 33,8 km/h (5 Bft) 100,00 %
17.09.2016 14:34 13,3 C 92 % 1009,3 hPa 0,0 l/m 25,6 km/h (4 Bft) S-SW 211 0 min 0,000 mm 0,7 UV-I 92 W/m 12,0 C 6,2 C 37,0 km/h (5 Bft) 100,00 %
17.09.2016 14:36 13,3 C 92 % 1009,3 hPa 0,0 l/m 21,9 km/h (4 Bft) SW 230 0 min 0,000 mm 0,6 UV-I 91 W/m 12,0 C 7,0 C 33,8 km/h (5 Bft) 100,00 %
17.09.2016 14:38 13,3 C 92 % 1009,4 hPa 0,0 l/m 24,9 km/h (4 Bft) SW 223 0 min 0,000 mm 0,6 UV-I 90 W/m 12,0 C 6,3 C 38,6 km/h (5 Bft) 95,74 %
17.09.2016 14:40 13,3 C 92 % 1009,4 hPa 0,0 l/m 26,9 km/h (4 Bft) SW 216 0 min 0,000 mm 0,6 UV-I 89 W/m 12,0 C 5,9 C 38,6 km/h (5 Bft) 100,00 %
17.09.2016 14:42 13,3 C 92 % 1009,4 hPa 0,0 l/m 20,4 km/h (4 Bft) W 266 0 min 0,000 mm 0,6 UV-I 84 W/m 12,0 C 7,4 C 29,0 km/h (5 Bft) 100,00 %
17.09.2016 14:44 13,4 C 92 % 1009,4 hPa 0,2 l/m 20,0 km/h (4 Bft) SW 225 0 min 0,000 mm 0,6 UV-I 90 W/m 12,1 C 7,7 C 30,6 km/h (5 Bft) 100,00 %
17.09.2016 14:46 13,4 C 92 % 1009,4 hPa 0,0 l/m 19,1 km/h (3 Bft) SW 234 0 min 0,000 mm 0,7 UV-I 101 W/m 12,1 C 7,9 C 30,6 km/h (5 Bft) 100,00 %
17.09.2016 14:48 13,4 C 92 % 1009,4 hPa 0,0 l/m 20,3 km/h (4 Bft) W-SW 248 0 min 0,000 mm 0,7 UV-I 110 W/m 12,1 C 7,6 C 33,8 km/h (5 Bft) 100,00 %
17.09.2016 14:50 13,4 C 91 % 1009,4 hPa 0,0 l/m 23,9 km/h (4 Bft) S 186 0 min 0,000 mm 0,7 UV-I 104 W/m 12,0 C 6,7 C 37,0 km/h (5 Bft) 100,00 %
17.09.2016 14:52 13,5 C 91 % 1009,4 hPa 0,0 l/m 22,5 km/h (4 Bft) W-SW 246 0 min 0,000 mm 0,6 UV-I 92 W/m 12,1 C 7,2 C 35,4 km/h (5 Bft) 100,00 %
17.09.2016 14:54 13,6 C 91 % 1009,3 hPa 0,0 l/m 21,7 km/h (4 Bft) SW 229 0 min 0,000 mm 0,6 UV-I 95 W/m 12,2 C 7,5 C 35,4 km/h (5 Bft) 100,00 %
17.09.2016 14:56 13,6 C 90 % 1009,4 hPa 0,0 l/m 24,0 km/h (4 Bft) W-SW 238 0 min 0,000 mm 0,6 UV-I 99 W/m 12,0 C 6,9 C 33,8 km/h (5 Bft) 97,87 %
17.09.2016 14:58 13,6 C 91 % 1009,4 hPa 0,0 l/m 19,7 km/h (3 Bft) W-SW 254 0 min 0,000 mm 0,6 UV-I 89 W/m 12,2 C 8,0 C 27,4 km/h (4 Bft) 100,00 %
17.09.2016 15:00 13,6 C 91 % 1009,4 hPa 0,0 l/m 18,6 km/h (3 Bft) SW 221 0 min 0,076 mm 0,5 UV-I 83 W/m 12,2 C 8,3 C 32,2 km/h (5 Bft) 100,00 %
17.09.2016 15:02 13,7 C 90 % 1009,4 hPa 0,0 l/m 15,7 km/h (3 Bft) W-SW 243 0 min 0,000 mm 0,5 UV-I 82 W/m 12,1 C 9,4 C 29,0 km/h (5 Bft) 100,00 %
17.09.2016 15:04 13,7 C 90 % 1009,4 hPa 0,0 l/m 18,5 km/h (3 Bft) SW 227 0 min 0,000 mm 0,5 UV-I 75 W/m 12,1 C 8,5 C 32,2 km/h (5 Bft) 100,00 %
17.09.2016 15:06 13,7 C 90 % 1009,5 hPa 0,0 l/m 21,0 km/h (4 Bft) SW 215 0 min 0,000 mm 0,5 UV-I 74 W/m 12,1 C 7,8 C 29,0 km/h (5 Bft) 100,00 %
17.09.2016 15:08 13,7 C 90 % 1009,5 hPa 0,0 l/m 19,3 km/h (3 Bft) S-SW 205 0 min 0,000 mm 0,5 UV-I 78 W/m 12,1 C 8,3 C 33,8 km/h (5 Bft) 98,08 %
17.09.2016 15:10 13,7 C 90 % 1009,5 hPa 0,0 l/m 20,6 km/h (4 Bft) W-SW 242 0 min 0,000 mm 0,5 UV-I 79 W/m 12,1 C 7,9 C 29,0 km/h (5 Bft) 100,00 %
17.09.2016 15:12 13,7 C 90 % 1009,5 hPa 0,0 l/m 15,6 km/h (3 Bft) S-SW 199 0 min 0,000 mm 0,5 UV-I 75 W/m 12,1 C 9,4 C 25,7 km/h (4 Bft) 100,00 %
17.09.2016 15:14 13,7 C 90 % 1009,5 hPa 0,0 l/m 15,6 km/h (3 Bft) SW 228 0 min 0,000 mm 0,5 UV-I 78 W/m 12,1 C 9,4 C 22,5 km/h (4 Bft) 100,00 %
17.09.2016 15:16 13,7 C 90 % 1009,5 hPa 0,0 l/m 16,4 km/h (3 Bft) S 186 0 min 0,000 mm 0,5 UV-I 76 W/m 12,1 C 9,1 C 27,4 km/h (4 Bft) 97,87 %
17.09.2016 15:18 13,7 C 91 % 1009,5 hPa 0,0 l/m 14,6 km/h (3 Bft) S-SW 203 0 min 0,000 mm 0,5 UV-I 74 W/m 12,3 C 9,8 C 24,1 km/h (4 Bft) 97,87 %
17.09.2016 15:20 13,7 C 91 % 1009,5 hPa 0,0 l/m 17,5 km/h (3 Bft) S-SW 194 0 min 0,000 mm 0,5 UV-I 77 W/m 12,3 C 8,8 C 32,2 km/h (5 Bft) 100,00 %
17.09.2016 15:22 13,7 C 90 % 1009,5 hPa 0,0 l/m 22,0 km/h (4 Bft) SW 225 0 min 0,000 mm 0,5 UV-I 83 W/m 12,1 C 7,5 C 37,0 km/h (5 Bft) 96,00 %
17.09.2016 15:24 13,7 C 90 % 1009,5 hPa 0,0 l/m 17,8 km/h (3 Bft) SW 227 0 min 0,000 mm 0,5 UV-I 78 W/m 12,1 C 8,7 C 33,8 km/h (5 Bft) 95,74 %
17.09.2016 15:26 13,7 C 90 % 1009,5 hPa 0,0 l/m 19,5 km/h (3 Bft) SW 216 0 min 0,000 mm 0,2 UV-I 73 W/m 12,1 C 8,2 C 33,8 km/h (5 Bft) 97,87 %
17.09.2016 15:28 13,7 C 90 % 1009,5 hPa 0,0 l/m 19,4 km/h (3 Bft) SW 222 0 min 0,000 mm 0,0 UV-I 68 W/m 12,1 C 8,2 C 32,2 km/h (5 Bft) 95,92 %
17.09.2016 15:30 13,7 C 89 % 1009,5 hPa 0,2 l/m 19,4 km/h (3 Bft) S-SW 213 0 min 0,000 mm 0,0 UV-I 69 W/m 11,9 C 8,2 C 29,0 km/h (5 Bft) 97,87 %
17.09.2016 15:32 13,7 C 90 % 1009,5 hPa 0,0 l/m 21,1 km/h (4 Bft) SW 226 0 min 0,000 mm 0,0 UV-I 68 W/m 12,1 C 7,8 C 32,2 km/h (5 Bft) 97,87 %
17.09.2016 15:34 13,7 C 89 % 1009,6 hPa 0,0 l/m 19,8 km/h (3 Bft) SW 221 0 min 0,000 mm 0,0 UV-I 66 W/m 11,9 C 8,1 C 30,6 km/h (5 Bft) 97,87 %
17.09.2016 15:36 13,8 C 89 % 1009,6 hPa 0,0 l/m 14,6 km/h (3 Bft) SW 221 0 min 0,000 mm 0,0 UV-I 64 W/m 12,0 C 9,9 C 24,1 km/h (4 Bft) 93,62 %
17.09.2016 15:38 13,8 C 89 % 1009,7 hPa 0,0 l/m 18,3 km/h (3 Bft) S 190 0 min 0,000 mm 0,0 UV-I 61 W/m 12,0 C 8,7 C 27,4 km/h (4 Bft) 98,00 %
17.09.2016 15:40 13,8 C 89 % 1009,6 hPa 0,0 l/m 18,1 km/h (3 Bft) W-SW 242 0 min 0,000 mm 0,0 UV-I 55 W/m 12,0 C 8,7 C 30,6 km/h (5 Bft) 97,87 %
17.09.2016 15:42 13,8 C 89 % 1009,6 hPa 0,0 l/m 15,5 km/h (3 Bft) W-SW 238 0 min 0,000 mm 0,0 UV-I 48 W/m 12,0 C 9,6 C 25,7 km/h (4 Bft) 97,87 %
17.09.2016 15:44 13,8 C 89 % 1009,7 hPa 0,0 l/m 21,1 km/h (4 Bft) S-SW 203 0 min 0,000 mm 0,0 UV-I 48 W/m 12,0 C 7,9 C 45,1 km/h (6 Bft) 97,87 %
17.09.2016 15:46 13,8 C 89 % 1009,7 hPa 0,0 l/m 21,2 km/h (4 Bft) S-SW 209 0 min 0,000 mm 0,0 UV-I 47 W/m 12,0 C 7,9 C 35,4 km/h (5 Bft) 97,87 %
17.09.2016 15:48 13,8 C 88 % 1009,7 hPa 0,0 l/m 16,2 km/h (3 Bft) S 176 0 min 0,000 mm 0,0 UV-I 46 W/m 11,8 C 9,3 C 27,4 km/h (4 Bft) 95,74 %
17.09.2016 15:50 13,8 C 89 % 1009,7 hPa 0,0 l/m 20,7 km/h (4 Bft) SW 214 0 min 0,000 mm 0,0 UV-I 44 W/m 12,0 C 8,0 C 30,6 km/h (5 Bft) 97,22 %
17.09.2016 15:52 13,8 C 88 % 1009,7 hPa 0,0 l/m 19,0 km/h (3 Bft) SW 236 0 min 0,000 mm 0,0 UV-I 42 W/m 11,8 C 8,5 C 27,4 km/h (4 Bft) 98,00 %
17.09.2016 15:54 13,9 C 88 % 1009,7 hPa 0,0 l/m 19,2 km/h (3 Bft) W-SW 252 0 min 0,000 mm 0,0 UV-I 46 W/m 11,9 C 8,5 C 30,6 km/h (5 Bft) 95,74 %
17.09.2016 15:56 13,9 C 88 % 1009,7 hPa 0,0 l/m 17,7 km/h (3 Bft) S-SW 196 0 min 0,000 mm 0,0 UV-I 44 W/m 11,9 C 9,0 C 30,6 km/h (5 Bft) 97,87 %
17.09.2016 15:58 13,9 C 88 % 1009,7 hPa 0,0 l/m 17,9 km/h (3 Bft) SW 226 0 min 0,000 mm 0,0 UV-I 45 W/m 11,9 C 8,9 C 30,6 km/h (5 Bft) 100,00 %
17.09.2016 16:00 13,9 C 88 % 1009,7 hPa 0,0 l/m 18,5 km/h (3 Bft) S 186 0 min 0,000 mm 0,0 UV-I 48 W/m 11,9 C 8,7 C 25,7 km/h (4 Bft) 100,00 %
17.09.2016 16:02 14,0 C 87 % 1009,7 hPa 0,0 l/m 17,2 km/h (3 Bft) W-SW 242 0 min 0,051 mm 0,0 UV-I 49 W/m 11,9 C 9,3 C 29,0 km/h (5 Bft) 100,00 %
17.09.2016 16:04 14,0 C 86 % 1009,7 hPa 0,0 l/m 25,9 km/h (4 Bft) S-SW 194 0 min 0,000 mm 0,0 UV-I 44 W/m 11,7 C 7,1 C 37,0 km/h (5 Bft) 98,00 %
17.09.2016 16:06 14,1 C 86 % 1009,7 hPa 0,0 l/m 20,0 km/h (4 Bft) SW 236 0 min 0,000 mm 0,0 UV-I 41 W/m 11,8 C 8,6 C 38,6 km/h (5 Bft) 100,00 %
17.09.2016 16:08 14,1 C 86 % 1009,8 hPa 0,0 l/m 21,0 km/h (4 Bft) W-SW 238 0 min 0,000 mm 0,0 UV-I 40 W/m 11,8 C 8,3 C 35,4 km/h (5 Bft) 97,87 %
17.09.2016 16:10 14,2 C 86 % 1009,8 hPa 0,0 l/m 24,5 km/h (4 Bft) S-SW 212 0 min 0,000 mm 0,0 UV-I 38 W/m 11,9 C 7,6 C 38,6 km/h (5 Bft) 95,74 %
17.09.2016 16:12 14,2 C 85 % 1009,8 hPa 0,0 l/m 20,5 km/h (4 Bft) SW 215 0 min 0,000 mm 0,0 UV-I 37 W/m 11,7 C 8,6 C 30,6 km/h (5 Bft) 93,62 %
17.09.2016 16:14 14,2 C 85 % 1009,9 hPa 0,0 l/m 17,7 km/h (3 Bft) S-SW 198 0 min 0,000 mm 0,0 UV-I 39 W/m 11,7 C 9,4 C 33,8 km/h (5 Bft) 100,00 %
17.09.2016 16:16 14,2 C 86 % 1009,9 hPa 0,0 l/m 19,0 km/h (3 Bft) SW 229 0 min 0,000 mm 0,0 UV-I 39 W/m 11,9 C 9,0 C 37,0 km/h (5 Bft) 97,87 %
17.09.2016 16:18 14,2 C 85 % 1009,9 hPa 0,0 l/m 22,7 km/h (4 Bft) SW 215 0 min 0,000 mm 0,0 UV-I 38 W/m 11,7 C 8,0 C 45,1 km/h (6 Bft) 100,00 %
17.09.2016 16:20 14,2 C 85 % 1009,8 hPa 0,0 l/m 23,1 km/h (4 Bft) SW 221 0 min 0,000 mm 0,0 UV-I 41 W/m 11,7 C 7,9 C 43,5 km/h (6 Bft) 95,74 %
17.09.2016 16:22 14,2 C 84 % 1009,9 hPa 0,0 l/m 25,6 km/h (4 Bft) S-SW 212 0 min 0,000 mm 0,0 UV-I 43 W/m 11,5 C 7,4 C 35,4 km/h (5 Bft) 100,00 %
17.09.2016 16:24 14,3 C 84 % 1009,9 hPa 0,0 l/m 26,7 km/h (4 Bft) S-SW 200 0 min 0,000 mm 0,0 UV-I 42 W/m 11,6 C 7,3 C 40,2 km/h (6 Bft) 95,74 %
17.09.2016 16:26 14,3 C 84 % 1009,9 hPa 0,0 l/m 19,8 km/h (3 Bft) S-SW 205 0 min 0,000 mm 0,0 UV-I 43 W/m 11,6 C 8,9 C 32,2 km/h (5 Bft) 97,87 %
17.09.2016 16:28 14,3 C 83 % 1009,9 hPa 0,0 l/m 24,5 km/h (4 Bft) S-SW 209 0 min 0,000 mm 0,0 UV-I 39 W/m 11,5 C 7,8 C 37,0 km/h (5 Bft) 97,87 %
17.09.2016 16:30 14,3 C 84 % 1009,9 hPa 0,0 l/m 23,5 km/h (4 Bft) SW 229 0 min 0,000 mm 0,0 UV-I 37 W/m 11,6 C 8,0 C 35,4 km/h (5 Bft) 97,87 %
17.09.2016 16:32 14,3 C 84 % 1009,9 hPa 0,0 l/m 22,3 km/h (4 Bft) SW 227 0 min 0,000 mm 0,0 UV-I 37 W/m 11,6 C 8,3 C 37,0 km/h (5 Bft) 97,22 %
17.09.2016 16:34 14,2 C 84 % 1009,9 hPa 0,0 l/m 22,7 km/h (4 Bft) S-SW 202 0 min 0,000 mm 0,0 UV-I 39 W/m 11,5 C 8,0 C 32,2 km/h (5 Bft) 98,00 %
17.09.2016 16:36 14,2 C 85 % 1009,9 hPa 0,0 l/m 23,0 km/h (4 Bft) SW 226 0 min 0,000 mm 0,0 UV-I 40 W/m 11,7 C 8,0 C 32,2 km/h (5 Bft) 100,00 %
17.09.2016 16:38 14,1 C 85 % 1010,0 hPa 0,2 l/m 22,7 km/h (4 Bft) SW 229 0 min 0,000 mm 0,0 UV-I 40 W/m 11,6 C 7,9 C 40,2 km/h (6 Bft) 100,00 %
17.09.2016 16:40 14,0 C 86 % 1009,9 hPa 0,0 l/m 18,8 km/h (3 Bft) SW 218 0 min 0,000 mm 0,0 UV-I 42 W/m 11,7 C 8,8 C 30,6 km/h (5 Bft) 100,00 %
17.09.2016 16:42 14,0 C 86 % 1009,9 hPa 0,0 l/m 20,3 km/h (4 Bft) SW 225 0 min 0,000 mm 0,0 UV-I 44 W/m 11,7 C 8,4 C 40,2 km/h (6 Bft) 97,87 %
17.09.2016 16:44 13,9 C 85 % 1009,9 hPa 0,0 l/m 26,0 km/h (4 Bft) W 270 0 min 0,000 mm 0,0 UV-I 46 W/m 11,4 C 6,9 C 41,8 km/h (6 Bft) 100,00 %
17.09.2016 16:46 13,9 C 85 % 1009,9 hPa 0,0 l/m 22,5 km/h (4 Bft) W-SW 243 0 min 0,000 mm 0,0 UV-I 47 W/m 11,4 C 7,7 C 38,6 km/h (5 Bft) 100,00 %
17.09.2016 16:48 13,9 C 86 % 1009,9 hPa 0,2 l/m 22,4 km/h (4 Bft) SW 216 0 min 0,000 mm 0,0 UV-I 48 W/m 11,6 C 7,7 C 35,4 km/h (5 Bft) 98,00 %
17.09.2016 16:50 13,9 C 85 % 1009,9 hPa 0,0 l/m 26,2 km/h (4 Bft) SW 231 0 min 0,000 mm 0,0 UV-I 46 W/m 11,4 C 6,9 C 40,2 km/h (6 Bft) 100,00 %
17.09.2016 16:52 13,9 C 85 % 1010,0 hPa 0,0 l/m 21,2 km/h (4 Bft) S-SW 199 0 min 0,000 mm 0,0 UV-I 46 W/m 11,4 C 8,0 C 33,8 km/h (5 Bft) 100,00 %
17.09.2016 16:54 13,9 C 85 % 1009,9 hPa 0,0 l/m 24,2 km/h (4 Bft) SW 231 0 min 0,000 mm 0,0 UV-I 44 W/m 11,4 C 7,3 C 41,8 km/h (6 Bft) 100,00 %
17.09.2016 16:56 13,9 C 85 % 1009,9 hPa 0,0 l/m 27,2 km/h (4 Bft) W-SW 249 0 min 0,000 mm 0,0 UV-I 45 W/m 11,4 C 6,7 C 46,7 km/h (6 Bft) 100,00 %
17.09.2016 16:58 13,9 C 85 % 1009,9 hPa 0,0 l/m 23,8 km/h (4 Bft) S-SO 157 0 min 0,000 mm 0,0 UV-I 44 W/m 11,4 C 7,4 C 41,8 km/h (6 Bft) 100,00 %
17.09.2016 17:00 13,9 C 85 % 1009,9 hPa 0,0 l/m 25,3 km/h (4 Bft) S-SW 204 0 min 0,050 mm 0,0 UV-I 46 W/m 11,4 C 7,1 C 40,2 km/h (6 Bft) 100,00 %
17.09.2016 17:02 13,9 C 85 % 1009,9 hPa 0,0 l/m 18,1 km/h (3 Bft) W-SW 251 0 min 0,000 mm 0,0 UV-I 43 W/m 11,4 C 8,9 C 27,4 km/h (4 Bft) 97,87 %
17.09.2016 17:04 13,9 C 85 % 1010,0 hPa 0,0 l/m 21,8 km/h (4 Bft) S-SW 192 0 min 0,000 mm 0,0 UV-I 38 W/m 11,4 C 7,9 C 32,2 km/h (5 Bft) 100,00 %
17.09.2016 17:06 13,9 C 85 % 1010,0 hPa 0,0 l/m 19,5 km/h (3 Bft) W-SW 254 0 min 0,000 mm 0,0 UV-I 33 W/m 11,4 C 8,5 C 30,6 km/h (5 Bft) 100,00 %
17.09.2016 17:08 13,9 C 85 % 1010,0 hPa 0,0 l/m 22,5 km/h (4 Bft) W-SW 238 0 min 0,000 mm 0,0 UV-I 27 W/m 11,4 C 7,7 C 48,3 km/h (6 Bft) 100,00 %
17.09.2016 17:10 13,9 C 85 % 1010,0 hPa 0,0 l/m 18,1 km/h (3 Bft) W-SW 245 0 min 0,000 mm 0,0 UV-I 23 W/m 11,4 C 8,9 C 32,2 km/h (5 Bft) 100,00 %
17.09.2016 17:12 13,9 C 86 % 1010,1 hPa 0,0 l/m 19,0 km/h (3 Bft) SW 217 0 min 0,000 mm 0,0 UV-I 23 W/m 11,6 C 8,6 C 33,8 km/h (5 Bft) 100,00 %
17.09.2016 17:14 13,8 C 86 % 1010,1 hPa 0,0 l/m 20,4 km/h (4 Bft) W-SW 254 0 min 0,000 mm 0,0 UV-I 22 W/m 11,5 C 8,1 C 33,8 km/h (5 Bft) 97,87 %
17.09.2016 17:16 13,8 C 86 % 1010,1 hPa 0,0 l/m 22,5 km/h (4 Bft) S-SW 199 0 min 0,000 mm 0,0 UV-I 20 W/m 11,5 C 7,6 C 38,6 km/h (5 Bft) 100,00 %
17.09.2016 17:18 13,8 C 86 % 1010,1 hPa 0,0 l/m 21,1 km/h (4 Bft) W-SW 257 0 min 0,000 mm 0,0 UV-I 19 W/m 11,5 C 7,9 C 32,2 km/h (5 Bft) 100,00 %
17.09.2016 17:20 13,8 C 86 % 1010,1 hPa 0,0 l/m 17,3 km/h (3 Bft) SW 223 0 min 0,000 mm 0,0 UV-I 19 W/m 11,5 C 9,0 C 25,7 km/h (4 Bft) 100,00 %
17.09.2016 17:22 13,7 C 86 % 1010,1 hPa 0,0 l/m 22,6 km/h (4 Bft) S-SW 206 0 min 0,000 mm 0,0 UV-I 19 W/m 11,4 C 7,4 C 33,8 km/h (5 Bft) 93,75 %
17.09.2016 17:24 13,7 C 86 % 1010,2 hPa 0,0 l/m 18,6 km/h (3 Bft) S-SW 207 0 min 0,000 mm 0,0 UV-I 16 W/m 11,4 C 8,5 C 30,6 km/h (5 Bft) 95,74 %
17.09.2016 17:26 13,7 C 86 % 1010,2 hPa 0,0 l/m 19,9 km/h (4 Bft) SW 219 0 min 0,000 mm 0,0 UV-I 16 W/m 11,4 C 8,1 C 29,0 km/h (5 Bft) 97,87 %
17.09.2016 17:28 13,7 C 86 % 1010,2 hPa 0,0 l/m 21,4 km/h (4 Bft) W 261 0 min 0,000 mm 0,0 UV-I 16 W/m 11,4 C 7,7 C 33,8 km/h (5 Bft) 95,74 %
17.09.2016 17:30 13,7 C 86 % 1010,3 hPa 0,2 l/m 16,5 km/h (3 Bft) W-SW 239 0 min 0,000 mm 0,0 UV-I 19 W/m 11,4 C 9,1 C 25,7 km/h (4 Bft) 97,87 %
17.09.2016 17:32 13,6 C 87 % 1010,3 hPa 0,0 l/m 15,3 km/h (3 Bft) S 186 0 min 0,000 mm 0,0 UV-I 19 W/m 11,5 C 9,4 C 25,7 km/h (4 Bft) 97,87 %
17.09.2016 17:34 13,6 C 87 % 1010,3 hPa 0,0 l/m 20,5 km/h (4 Bft) SW 222 0 min 0,000 mm 0,0 UV-I 19 W/m 11,5 C 7,8 C 30,6 km/h (5 Bft) 95,74 %
17.09.2016 17:36 13,5 C 87 % 1010,3 hPa 0,0 l/m 16,2 km/h (3 Bft) S 182 0 min 0,000 mm 0,0 UV-I 20 W/m 11,4 C 9,0 C 24,1 km/h (4 Bft) 96,00 %
17.09.2016 17:38 13,4 C 88 % 1010,2 hPa 0,0 l/m 18,3 km/h (3 Bft) S-SW 196 0 min 0,000 mm 0,0 UV-I 21 W/m 11,5 C 8,2 C 25,7 km/h (4 Bft) 97,87 %
17.09.2016 17:40 13,4 C 87 % 1010,2 hPa 0,0 l/m 17,9 km/h (3 Bft) S-SW 213 0 min 0,000 mm 0,0 UV-I 21 W/m 11,3 C 8,3 C 24,1 km/h (4 Bft) 95,74 %
17.09.2016 17:42 13,4 C 87 % 1010,2 hPa 0,0 l/m 20,4 km/h (4 Bft) S-SW 207 0 min 0,000 mm 0,0 UV-I 19 W/m 11,3 C 7,6 C 32,2 km/h (5 Bft) 95,74 %
17.09.2016 17:44 13,4 C 87 % 1010,3 hPa 0,0 l/m 19,0 km/h (3 Bft) S-SW 204 0 min 0,000 mm 0,0 UV-I 19 W/m 11,3 C 8,0 C 30,6 km/h (5 Bft) 95,74 %
17.09.2016 17:46 13,4 C 88 % 1010,3 hPa 0,0 l/m 17,8 km/h (3 Bft) SW 229 0 min 0,000 mm 0,0 UV-I 20 W/m 11,5 C 8,3 C 24,1 km/h (4 Bft) 95,74 %
17.09.2016 17:48 13,4 C 88 % 1010,3 hPa 0,0 l/m 17,0 km/h (3 Bft) W-SW 242 0 min 0,000 mm 0,0 UV-I 21 W/m 11,5 C 8,6 C 35,4 km/h (5 Bft) 98,00 %
17.09.2016 17:50 13,4 C 88 % 1010,3 hPa 0,0 l/m 17,8 km/h (3 Bft) S-SW 207 0 min 0,000 mm 0,0 UV-I 18 W/m 11,5 C 8,3 C 25,7 km/h (4 Bft) 97,22 %
17.09.2016 17:52 13,3 C 88 % 1010,3 hPa 0,0 l/m 19,4 km/h (3 Bft) S-SW 212 0 min 0,000 mm 0,0 UV-I 15 W/m 11,4 C 7,7 C 32,2 km/h (5 Bft) 97,87 %
17.09.2016 17:54 13,3 C 88 % 1010,3 hPa 0,0 l/m 18,0 km/h (3 Bft) SW 215 0 min 0,000 mm 0,0 UV-I 16 W/m 11,4 C 8,1 C 29,0 km/h (5 Bft) 95,74 %
17.09.2016 17:56 13,3 C 88 % 1010,4 hPa 0,0 l/m 21,4 km/h (4 Bft) W-SW 241 0 min 0,000 mm 0,0 UV-I 13 W/m 11,4 C 7,2 C 33,8 km/h (5 Bft) 93,62 %
17.09.2016 17:58 13,3 C 88 % 1010,3 hPa 0,0 l/m 20,1 km/h (4 Bft) W-SW 242 0 min 0,000 mm 0,0 UV-I 12 W/m 11,4 C 7,5 C 30,6 km/h (5 Bft) 97,87 %
17.09.2016 18:00 13,3 C 88 % 1010,3 hPa 0,0 l/m 23,1 km/h (4 Bft) S-SW 201 0 min 0,000 mm 0,0 UV-I 12 W/m 11,4 C 6,7 C 33,8 km/h (5 Bft) 100,00 %
17.09.2016 18:02 13,3 C 88 % 1010,3 hPa 0,0 l/m 19,9 km/h (4 Bft) S-SW 199 0 min 0,051 mm 0,0 UV-I 12 W/m 11,4 C 7,6 C 32,2 km/h (5 Bft) 97,87 %
17.09.2016 18:04 13,3 C 88 % 1010,2 hPa 0,0 l/m 22,2 km/h (4 Bft) SW 236 0 min 0,000 mm 0,0 UV-I 12 W/m 11,4 C 7,0 C 33,8 km/h (5 Bft) 95,74 %
17.09.2016 18:06 13,3 C 88 % 1010,2 hPa 0,2 l/m 20,5 km/h (4 Bft) W-SW 240 0 min 0,000 mm 0,0 UV-I 12 W/m 11,4 C 7,4 C 27,4 km/h (4 Bft) 100,00 %
17.09.2016 18:08 13,3 C 89 % 1010,2 hPa 0,0 l/m 19,4 km/h (3 Bft) S-SW 207 0 min 0,000 mm 0,0 UV-I 12 W/m 11,5 C 7,7 C 29,0 km/h (5 Bft) 100,00 %
17.09.2016 18:10 13,3 C 89 % 1010,2 hPa 0,0 l/m 20,3 km/h (4 Bft) W-SW 246 0 min 0,000 mm 0,0 UV-I 12 W/m 11,5 C 7,5 C 30,6 km/h (5 Bft) 100,00 %
17.09.2016 18:12 13,2 C 89 % 1010,3 hPa 0,0 l/m 18,8 km/h (3 Bft) S-SW 206 0 min 0,000 mm 0,0 UV-I 12 W/m 11,4 C 7,8 C 27,4 km/h (4 Bft) 97,87 %
17.09.2016 18:14 13,2 C 89 % 1010,2 hPa 0,0 l/m 16,8 km/h (3 Bft) S-SW 195 0 min 0,000 mm 0,0 UV-I 11 W/m 11,4 C 8,4 C 29,0 km/h (5 Bft) 100,00 %
17.09.2016 18:16 13,2 C 89 % 1010,2 hPa 0,0 l/m 20,4 km/h (4 Bft) S-SW 206 0 min 0,000 mm 0,0 UV-I 11 W/m 11,4 C 7,3 C 33,8 km/h (5 Bft) 97,87 %
17.09.2016 18:18 13,2 C 89 % 1010,3 hPa 0,0 l/m 16,7 km/h (3 Bft) SW 215 0 min 0,000 mm 0,0 UV-I 9 W/m 11,4 C 8,4 C 30,6 km/h (5 Bft) 100,00 %
17.09.2016 18:20 13,1 C 89 % 1010,2 hPa 0,0 l/m 17,6 km/h (3 Bft) S-SW 195 0 min 0,000 mm 0,0 UV-I 9 W/m 11,3 C 8,0 C 30,6 km/h (5 Bft) 100,00 %
17.09.2016 18:22 13,1 C 89 % 1010,3 hPa 0,2 l/m 16,1 km/h (3 Bft) S-SW 211 0 min 0,000 mm 0,0 UV-I 9 W/m 11,3 C 8,5 C 24,1 km/h (4 Bft) 100,00 %
17.09.2016 18:24 13,1 C 90 % 1010,2 hPa 0,0 l/m 15,7 km/h (3 Bft) SW 223 0 min 0,000 mm 0,0 UV-I 8 W/m 11,5 C 8,6 C 32,2 km/h (5 Bft) 100,00 %
17.09.2016 18:26 13,0 C 90 % 1010,2 hPa 0,0 l/m 16,7 km/h (3 Bft) SW 220 0 min 0,000 mm 0,0 UV-I 7 W/m 11,4 C 8,2 C 25,7 km/h (4 Bft) 100,00 %
17.09.2016 18:28 13,0 C 90 % 1010,3 hPa 0,0 l/m 18,1 km/h (3 Bft) SW 234 0 min 0,000 mm 0,0 UV-I 7 W/m 11,4 C 7,7 C 24,1 km/h (4 Bft) 97,92 %
17.09.2016 18:30 12,9 C 90 % 1010,2 hPa 0,2 l/m 16,3 km/h (3 Bft) SW 232 0 min 0,000 mm 0,0 UV-I 5 W/m 11,3 C 8,2 C 24,1 km/h (4 Bft) 100,00 %
17.09.2016 18:32 12,9 C 90 % 1010,3 hPa 0,0 l/m 16,4 km/h (3 Bft) W-SW 244 0 min 0,000 mm 0,0 UV-I 5 W/m 11,3 C 8,2 C 30,6 km/h (5 Bft) 100,00 %
17.09.2016 18:34 12,9 C 90 % 1010,3 hPa 0,0 l/m 18,4 km/h (3 Bft) SW 225 0 min 0,000 mm 0,0 UV-I 1 W/m 11,3 C 7,5 C 32,2 km/h (5 Bft) 97,87 %
17.09.2016 18:36 12,8 C 90 % 1010,2 hPa 0,0 l/m 16,0 km/h (3 Bft) SW 236 0 min 0,000 mm 0,0 UV-I 0 W/m 11,2 C 8,2 C 25,7 km/h (4 Bft) 97,87 %
17.09.2016 18:38 12,8 C 90 % 1010,3 hPa 0,0 l/m 14,3 km/h (3 Bft) SW 232 0 min 0,000 mm 0,0 UV-I 0 W/m 11,2 C 8,8 C 22,5 km/h (4 Bft) 100,00 %
17.09.2016 18:40 12,8 C 90 % 1010,2 hPa 0,0 l/m 15,4 km/h (3 Bft) S-SW 194 0 min 0,000 mm 0,0 UV-I 0 W/m 11,2 C 8,4 C 27,4 km/h (4 Bft) 100,00 %
17.09.2016 18:42 12,8 C 90 % 1010,2 hPa 0,0 l/m 16,7 km/h (3 Bft) S-SO 165 0 min 0,000 mm 0,0 UV-I 0 W/m 11,2 C 7,9 C 24,1 km/h (4 Bft) 100,00 %
17.09.2016 18:44 12,8 C 90 % 1010,2 hPa 0,0 l/m 18,7 km/h (3 Bft) S 182 0 min 0,000 mm 0,0 UV-I 0 W/m 11,2 C 7,3 C 30,6 km/h (5 Bft) 98,11 %
17.09.2016 18:46 12,8 C 90 % 1010,2 hPa 0,0 l/m 17,0 km/h (3 Bft) S-SW 205 0 min 0,000 mm 0,0 UV-I 0 W/m 11,2 C 7,8 C 27,4 km/h (4 Bft) 97,87 %
17.09.2016 18:48 12,8 C 90 % 1010,2 hPa 0,0 l/m 13,0 km/h (3 Bft) W-SW 244 0 min 0,000 mm 0,0 UV-I 0 W/m 11,2 C 9,3 C 30,6 km/h (5 Bft) 100,00 %
17.09.2016 18:50 12,8 C 90 % 1010,2 hPa 0,2 l/m 17,7 km/h (3 Bft) SW 215 0 min 0,000 mm 0,0 UV-I 0 W/m 11,2 C 7,6 C 25,7 km/h (4 Bft) 97,87 %
17.09.2016 18:52 12,8 C 90 % 1010,2 hPa 0,0 l/m 15,8 km/h (3 Bft) SW 227 0 min 0,000 mm 0,0 UV-I 0 W/m 11,2 C 8,2 C 22,5 km/h (4 Bft) 97,30 %
17.09.2016 18:54 12,8 C 90 % 1010,2 hPa 0,0 l/m 15,1 km/h (3 Bft) S-SW 196 0 min 0,000 mm 0,0 UV-I 0 W/m 11,2 C 8,5 C 20,9 km/h (4 Bft) 100,00 %
17.09.2016 18:56 12,8 C 90 % 1010,2 hPa 0,0 l/m 15,5 km/h (3 Bft) S 186 0 min 0,000 mm 0,0 UV-I 0 W/m 11,2 C 8,3 C 24,1 km/h (4 Bft) 100,00 %
17.09.2016 18:58 12,8 C 90 % 1010,1 hPa 0,0 l/m 18,2 km/h (3 Bft) S 175 0 min 0,000 mm 0,0 UV-I 0 W/m 11,2 C 7,4 C 30,6 km/h (5 Bft) 97,87 %
17.09.2016 19:00 12,8 C 90 % 1010,2 hPa 0,0 l/m 17,0 km/h (3 Bft) S-SW 203 0 min 0,000 mm 0,0 UV-I 0 W/m 11,2 C 7,8 C 27,4 km/h (4 Bft) 100,00 %
17.09.2016 19:02 12,8 C 90 % 1010,1 hPa 0,0 l/m 17,9 km/h (3 Bft) S-SW 198 0 min 0,026 mm 0,0 UV-I 0 W/m 11,2 C 7,5 C 27,4 km/h (4 Bft) 98,00 %
17.09.2016 19:04 12,9 C 90 % 1010,0 hPa 0,0 l/m 18,7 km/h (3 Bft) W 263 0 min 0,000 mm 0,0 UV-I 0 W/m 11,3 C 7,4 C 30,6 km/h (5 Bft) 97,87 %
17.09.2016 19:06 12,9 C 89 % 1010,0 hPa 0,0 l/m 18,1 km/h (3 Bft) SW 216 0 min 0,000 mm 0,0 UV-I 0 W/m 11,1 C 7,6 C 25,7 km/h (4 Bft) 97,92 %
17.09.2016 19:08 12,9 C 89 % 1010,0 hPa 0,0 l/m 17,0 km/h (3 Bft) SW 219 0 min 0,000 mm 0,0 UV-I 0 W/m 11,1 C 8,0 C 25,7 km/h (4 Bft) 100,00 %
17.09.2016 19:10 12,9 C 89 % 1010,0 hPa 0,0 l/m 15,1 km/h (3 Bft) SW 227 0 min 0,000 mm 0,0 UV-I 0 W/m 11,1 C 8,6 C 25,7 km/h (4 Bft) 97,87 %
17.09.2016 19:12 12,9 C 89 % 1010,0 hPa 0,2 l/m 17,8 km/h (3 Bft) S-SW 210 0 min 0,000 mm 0,0 UV-I 0 W/m 11,1 C 7,7 C 30,6 km/h (5 Bft) 100,00 %
17.09.2016 19:14 12,9 C 89 % 1010,0 hPa 0,0 l/m 16,5 km/h (3 Bft) S-SW 202 0 min 0,000 mm 0,0 UV-I 0 W/m 11,1 C 8,1 C 25,7 km/h (4 Bft) 100,00 %
17.09.2016 19:16 12,9 C 89 % 1010,0 hPa 0,0 l/m 14,3 km/h (3 Bft) SO 146 0 min 0,000 mm 0,0 UV-I 0 W/m 11,1 C 8,9 C 20,9 km/h (4 Bft) 100,00 %
17.09.2016 19:18 12,9 C 89 % 1010,0 hPa 0,0 l/m 17,7 km/h (3 Bft) S-SW 209 0 min 0,000 mm 0,0 UV-I 0 W/m 11,1 C 7,7 C 25,7 km/h (4 Bft) 97,14 %
17.09.2016 19:20 12,9 C 89 % 1010,1 hPa 0,0 l/m 15,3 km/h (3 Bft) SW 215 0 min 0,000 mm 0,0 UV-I 0 W/m 11,1 C 8,5 C 25,7 km/h (4 Bft) 97,87 %
17.09.2016 19:22 12,9 C 89 % 1010,1 hPa 0,0 l/m 14,5 km/h (3 Bft) S-SW 194 0 min 0,000 mm 0,0 UV-I 0 W/m 11,1 C 8,8 C 22,5 km/h (4 Bft) 97,87 %
17.09.2016 19:24 12,9 C 89 % 1010,0 hPa 0,0 l/m 16,4 km/h (3 Bft) S 176 0 min 0,000 mm 0,0 UV-I 0 W/m 11,1 C 8,2 C 24,1 km/h (4 Bft) 97,87 %
17.09.2016 19:26 13,0 C 89 % 1010,0 hPa 0,0 l/m 18,6 km/h (3 Bft) S 169 0 min 0,000 mm 0,0 UV-I 0 W/m 11,2 C 7,6 C 25,7 km/h (4 Bft) 97,87 %
17.09.2016 19:28 13,0 C 89 % 1009,9 hPa 0,0 l/m 21,1 km/h (4 Bft) S 171 0 min 0,000 mm 0,0 UV-I 0 W/m 11,2 C 6,9 C 30,6 km/h (5 Bft) 95,74 %
17.09.2016 19:30 13,0 C 89 % 1010,1 hPa 0,0 l/m 16,5 km/h (3 Bft) S 189 0 min 0,000 mm 0,0 UV-I 0 W/m 11,2 C 8,2 C 27,4 km/h (4 Bft) 98,00 %
17.09.2016 19:32 13,1 C 88 % 1010,1 hPa 0,0 l/m 15,4 km/h (3 Bft) SW 227 0 min 0,000 mm 0,0 UV-I 0 W/m 11,2 C 8,7 C 24,1 km/h (4 Bft) 97,87 %
17.09.2016 19:34 13,1 C 88 % 1010,0 hPa 0,0 l/m 15,5 km/h (3 Bft) S-SW 199 0 min 0,000 mm 0,0 UV-I 0 W/m 11,2 C 8,7 C 25,7 km/h (4 Bft) 97,87 %
17.09.2016 19:36 13,1 C 88 % 1010,1 hPa 0,0 l/m 14,2 km/h (3 Bft) S-SW 205 0 min 0,000 mm 0,0 UV-I 0 W/m 11,2 C 9,2 C 24,1 km/h (4 Bft) 97,87 %
17.09.2016 19:38 13,1 C 88 % 1010,1 hPa 0,0 l/m 13,6 km/h (3 Bft) SW 235 0 min 0,000 mm 0,0 UV-I 0 W/m 11,2 C 9,4 C 24,1 km/h (4 Bft) 95,74 %
17.09.2016 19:40 13,1 C 89 % 1010,1 hPa 0,0 l/m 15,7 km/h (3 Bft) S 187 0 min 0,000 mm 0,0 UV-I 0 W/m 11,3 C 8,6 C 25,7 km/h (4 Bft) 97,87 %
17.09.2016 19:42 13,1 C 89 % 1010,1 hPa 0,0 l/m 12,7 km/h (3 Bft) S 184 0 min 0,000 mm 0,0 UV-I 0 W/m 11,3 C 9,8 C 20,9 km/h (4 Bft) 97,87 %
17.09.2016 19:44 13,1 C 89 % 1010,0 hPa 0,0 l/m 14,3 km/h (3 Bft) SW 229 0 min 0,000 mm 0,0 UV-I 0 W/m 11,3 C 9,1 C 27,4 km/h (4 Bft) 97,92 %
17.09.2016 19:46 13,1 C 89 % 1010,1 hPa 0,0 l/m 13,3 km/h (3 Bft) S-SO 154 0 min 0,000 mm 0,0 UV-I 0 W/m 11,3 C 9,5 C 22,5 km/h (4 Bft) 97,87 %
17.09.2016 19:48 13,1 C 88 % 1010,1 hPa 0,0 l/m 14,8 km/h (3 Bft) S-SW 198 0 min 0,000 mm 0,0 UV-I 0 W/m 11,2 C 9,0 C 24,1 km/h (4 Bft) 95,74 %
17.09.2016 19:50 13,1 C 89 % 1010,1 hPa 0,0 l/m 16,0 km/h (3 Bft) S-SW 203 0 min 0,000 mm 0,0 UV-I 0 W/m 11,3 C 8,5 C 24,1 km/h (4 Bft) 97,87 %
17.09.2016 19:52 13,1 C 88 % 1010,1 hPa 0,0 l/m 15,3 km/h (3 Bft) SW 232 0 min 0,000 mm 0,0 UV-I 0 W/m 11,2 C 8,8 C 25,7 km/h (4 Bft) 97,87 %
17.09.2016 19:54 13,1 C 88 % 1010,2 hPa 0,0 l/m 16,1 km/h (3 Bft) S 172 0 min 0,000 mm 0,0 UV-I 0 W/m 11,2 C 8,5 C 29,0 km/h (5 Bft) 94,00 %
17.09.2016 19:56 13,1 C 89 % 1010,2 hPa 0,2 l/m 13,9 km/h (3 Bft) SW 217 0 min 0,000 mm 0,0 UV-I 0 W/m 11,3 C 9,3 C 24,1 km/h (4 Bft) 97,87 %
17.09.2016 19:58 13,1 C 89 % 1010,3 hPa 0,0 l/m 11,1 km/h (2 Bft) SW 233 0 min 0,000 mm 0,0 UV-I 0 W/m 11,3 C 10,5 C 20,9 km/h (4 Bft) 94,29 %
17.09.2016 20:00 13,1 C 89 % 1010,3 hPa 0,0 l/m 13,7 km/h (3 Bft) SW 230 0 min 0,025 mm 0,0 UV-I 0 W/m 11,3 C 9,4 C 20,9 km/h (4 Bft) 96,00 %
17.09.2016 20:02 13,1 C 89 % 1010,3 hPa 0,0 l/m 15,6 km/h (3 Bft) SW 221 0 min 0,000 mm 0,0 UV-I 0 W/m 11,3 C 8,7 C 24,1 km/h (4 Bft) 100,00 %
17.09.2016 20:04 13,0 C 89 % 1010,3 hPa 0,0 l/m 12,7 km/h (3 Bft) W 272 0 min 0,000 mm 0,0 UV-I 0 W/m 11,2 C 9,7 C 17,7 km/h (3 Bft) 97,87 %
17.09.2016 20:06 13,0 C 89 % 1010,3 hPa 0,0 l/m 13,3 km/h (3 Bft) S 173 0 min 0,000 mm 0,0 UV-I 0 W/m 11,2 C 9,4 C 20,9 km/h (4 Bft) 100,00 %
17.09.2016 20:08 13,0 C 89 % 1010,3 hPa 0,0 l/m 15,3 km/h (3 Bft) S-SW 195 0 min 0,000 mm 0,0 UV-I 0 W/m 11,2 C 8,7 C 22,5 km/h (4 Bft) 97,87 %
17.09.2016 20:10 13,0 C 89 % 1010,4 hPa 0,0 l/m 13,2 km/h (3 Bft) S-SW 211 0 min 0,000 mm 0,0 UV-I 0 W/m 11,2 C 9,5 C 22,5 km/h (4 Bft) 98,00 %
17.09.2016 20:12 13,0 C 89 % 1010,3 hPa 0,0 l/m 15,4 km/h (3 Bft) SW 230 0 min 0,000 mm 0,0 UV-I 0 W/m 11,2 C 8,6 C 29,0 km/h (5 Bft) 98,00 %
17.09.2016 20:14 13,0 C 89 % 1010,3 hPa 0,0 l/m 11,8 km/h (2 Bft) S-SW 213 0 min 0,000 mm 0,0 UV-I 0 W/m 11,2 C 10,1 C 19,3 km/h (3 Bft) 100,00 %
17.09.2016 20:16 13,0 C 89 % 1010,3 hPa 0,0 l/m 13,5 km/h (3 Bft) W-SW 246 0 min 0,000 mm 0,0 UV-I 0 W/m 11,2 C 9,3 C 22,5 km/h (4 Bft) 100,00 %
17.09.2016 20:18 13,0 C 89 % 1010,3 hPa 0,0 l/m 15,7 km/h (3 Bft) S-SW 194 0 min 0,000 mm 0,0 UV-I 0 W/m 11,2 C 8,5 C 24,1 km/h (4 Bft) 100,00 %
17.09.2016 20:20 13,0 C 89 % 1010,3 hPa 0,0 l/m 13,1 km/h (3 Bft) S-SW 200 0 min 0,000 mm 0,0 UV-I 0 W/m 11,2 C 9,5 C 20,9 km/h (4 Bft) 100,00 %
17.09.2016 20:22 13,0 C 89 % 1010,3 hPa 0,0 l/m 15,3 km/h (3 Bft) S-SW 196 0 min 0,000 mm 0,0 UV-I 0 W/m 11,2 C 8,7 C 27,4 km/h (4 Bft) 97,87 %
17.09.2016 20:24 13,0 C 89 % 1010,3 hPa 0,0 l/m 14,2 km/h (3 Bft) S-SW 195 0 min 0,000 mm 0,0 UV-I 0 W/m 11,2 C 9,1 C 22,5 km/h (4 Bft) 100,00 %
17.09.2016 20:26 13,0 C 89 % 1010,3 hPa 0,0 l/m 11,6 km/h (2 Bft) SW 215 0 min 0,000 mm 0,0 UV-I 0 W/m 11,2 C 10,1 C 19,3 km/h (3 Bft) 100,00 %
17.09.2016 20:28 13,1 C 89 % 1010,3 hPa 0,0 l/m 10,5 km/h (2 Bft) S 184 0 min 0,000 mm 0,0 UV-I 0 W/m 11,3 C 10,8 C 17,7 km/h (3 Bft) 97,44 %
17.09.2016 20:30 13,0 C 89 % 1010,3 hPa 0,0 l/m 12,4 km/h (3 Bft) W-SW 246 0 min 0,000 mm 0,0 UV-I 0 W/m 11,2 C 9,8 C 19,3 km/h (3 Bft) 100,00 %
17.09.2016 20:32 13,1 C 89 % 1010,4 hPa 0,0 l/m 12,2 km/h (2 Bft) S-SW 196 0 min 0,000 mm 0,0 UV-I 0 W/m 11,3 C 10,0 C 22,5 km/h (4 Bft) 100,00 %
17.09.2016 20:34 13,1 C 89 % 1010,4 hPa 0,0 l/m 12,6 km/h (3 Bft) S 182 0 min 0,000 mm 0,0 UV-I 0 W/m 11,3 C 9,8 C 19,3 km/h (3 Bft) 97,87 %
17.09.2016 20:36 13,1 C 89 % 1010,4 hPa 0,0 l/m 14,2 km/h (3 Bft) W-SW 250 0 min 0,000 mm 0,0 UV-I 0 W/m 11,3 C 9,2 C 22,5 km/h (4 Bft) 100,00 %
17.09.2016 20:38 13,1 C 89 % 1010,4 hPa 0,0 l/m 10,6 km/h (2 Bft) S-SW 203 0 min 0,000 mm 0,0 UV-I 0 W/m 11,3 C 10,7 C 19,3 km/h (3 Bft) 100,00 %
17.09.2016 20:40 13,1 C 89 % 1010,3 hPa 0,0 l/m 11,5 km/h (2 Bft) W 273 0 min 0,000 mm 0,0 UV-I 0 W/m 11,3 C 10,3 C 19,3 km/h (3 Bft) 100,00 %
17.09.2016 20:42 13,1 C 89 % 1010,3 hPa 0,0 l/m 12,7 km/h (3 Bft) SW 216 0 min 0,000 mm 0,0 UV-I 0 W/m 11,3 C 9,8 C 22,5 km/h (4 Bft) 100,00 %
17.09.2016 20:44 13,1 C 88 % 1010,4 hPa 0,0 l/m 11,1 km/h (2 Bft) SW 217 0 min 0,000 mm 0,0 UV-I 0 W/m 11,2 C 10,5 C 16,1 km/h (3 Bft) 100,00 %
17.09.2016 20:46 13,1 C 88 % 1010,4 hPa 0,0 l/m 10,7 km/h (2 Bft) S-SW 207 0 min 0,000 mm 0,0 UV-I 0 W/m 11,2 C 10,7 C 17,7 km/h (3 Bft) 100,00 %
17.09.2016 20:48 13,1 C 89 % 1010,4 hPa 0,0 l/m 13,3 km/h (3 Bft) SW 219 0 min 0,000 mm 0,0 UV-I 0 W/m 11,3 C 9,5 C 22,5 km/h (4 Bft) 98,39 %
17.09.2016 20:50 13,2 C 88 % 1010,4 hPa 0,0 l/m 12,5 km/h (3 Bft) W-SW 238 0 min 0,000 mm 0,0 UV-I 0 W/m 11,3 C 10,0 C 19,3 km/h (3 Bft) 97,87 %
17.09.2016 20:52 13,2 C 88 % 1010,4 hPa 0,0 l/m 14,3 km/h (3 Bft) S 169 0 min 0,000 mm 0,0 UV-I 0 W/m 11,3 C 9,3 C 22,5 km/h (4 Bft) 97,87 %
17.09.2016 20:54 13,2 C 88 % 1010,4 hPa 0,0 l/m 13,1 km/h (3 Bft) SW 224 0 min 0,000 mm 0,0 UV-I 0 W/m 11,3 C 9,7 C 19,3 km/h (3 Bft) 100,00 %
17.09.2016 20:56 13,2 C 88 % 1010,4 hPa 0,0 l/m 13,4 km/h (3 Bft) S-SW 198 0 min 0,000 mm 0,0 UV-I 0 W/m 11,3 C 9,6 C 22,5 km/h (4 Bft) 97,37 %
17.09.2016 20:58 13,2 C 88 % 1010,4 hPa 0,0 l/m 11,8 km/h (2 Bft) S 184 0 min 0,000 mm 0,0 UV-I 0 W/m 11,3 C 10,3 C 17,7 km/h (3 Bft) 97,87 %
17.09.2016 21:00 13,2 C 88 % 1010,4 hPa 0,0 l/m 11,8 km/h (2 Bft) W-SW 238 0 min 0,000 mm 0,0 UV-I 0 W/m 11,3 C 10,3 C 17,7 km/h (3 Bft) 97,92 %
17.09.2016 21:02 13,2 C 88 % 1010,4 hPa 0,0 l/m 9,7 km/h (2 Bft) S 188 0 min 0,025 mm 0,0 UV-I 0 W/m 11,3 C 11,3 C 14,5 km/h (3 Bft) 100,00 %
17.09.2016 21:04 13,2 C 88 % 1010,4 hPa 0,0 l/m 13,1 km/h (3 Bft) W-SW 242 0 min 0,000 mm 0,0 UV-I 0 W/m 11,3 C 9,7 C 19,3 km/h (3 Bft) 100,00 %
17.09.2016 21:06 13,2 C 88 % 1010,5 hPa 0,0 l/m 10,3 km/h (2 Bft) SW 225 0 min 0,000 mm 0,0 UV-I 0 W/m 11,3 C 11,0 C 16,1 km/h (3 Bft) 95,74 %
17.09.2016 21:08 13,2 C 88 % 1010,5 hPa 0,0 l/m 9,9 km/h (2 Bft) W-SW 257 0 min 0,000 mm 0,0 UV-I 0 W/m 11,3 C 11,2 C 19,3 km/h (3 Bft) 98,00 %
17.09.2016 21:10 13,2 C 88 % 1010,5 hPa 0,0 l/m 12,3 km/h (3 Bft) S-SW 196 0 min 0,000 mm 0,0 UV-I 0 W/m 11,3 C 10,1 C 24,1 km/h (4 Bft) 93,62 %
17.09.2016 21:12 13,2 C 88 % 1010,5 hPa 0,0 l/m 10,5 km/h (2 Bft) S-SW 208 0 min 0,000 mm 0,0 UV-I 0 W/m 11,3 C 10,9 C 20,9 km/h (4 Bft) 98,00 %
17.09.2016 21:14 13,2 C 88 % 1010,5 hPa 0,0 l/m 13,3 km/h (3 Bft) S-SW 211 0 min 0,000 mm 0,0 UV-I 0 W/m 11,3 C 9,7 C 20,9 km/h (4 Bft) 97,37 %
17.09.2016 21:16 13,2 C 88 % 1010,6 hPa 0,0 l/m 15,4 km/h (3 Bft) SW 221 0 min 0,000 mm 0,0 UV-I 0 W/m 11,3 C 8,9 C 22,5 km/h (4 Bft) 100,00 %
17.09.2016 21:18 13,2 C 88 % 1010,6 hPa 0,0 l/m 9,9 km/h (2 Bft) SW 235 0 min 0,000 mm 0,0 UV-I 0 W/m 11,3 C 11,2 C 16,1 km/h (3 Bft) 95,74 %
17.09.2016 21:20 13,2 C 88 % 1010,6 hPa 0,0 l/m 8,9 km/h (2 Bft) S 191 0 min 0,000 mm 0,0 UV-I 0 W/m 11,3 C 11,7 C 17,7 km/h (3 Bft) 100,00 %
17.09.2016 21:22 13,2 C 88 % 1010,6 hPa 0,0 l/m 12,4 km/h (3 Bft) SW 225 0 min 0,000 mm 0,0 UV-I 0 W/m 11,3 C 10,0 C 19,3 km/h (3 Bft) 95,74 %
17.09.2016 21:24 13,2 C 88 % 1010,6 hPa 0,0 l/m 11,5 km/h (2 Bft) S-SW 211 0 min 0,000 mm 0,0 UV-I 0 W/m 11,3 C 10,4 C 24,1 km/h (4 Bft) 97,87 %
17.09.2016 21:26 13,2 C 88 % 1010,6 hPa 0,0 l/m 10,3 km/h (2 Bft) SW 216 0 min 0,000 mm 0,0 UV-I 0 W/m 11,3 C 11,0 C 19,3 km/h (3 Bft) 97,87 %
17.09.2016 21:28 13,2 C 88 % 1010,6 hPa 0,0 l/m 9,5 km/h (2 Bft) W-SW 240 0 min 0,000 mm 0,0 UV-I 0 W/m 11,3 C 11,4 C 16,1 km/h (3 Bft) 100,00 %
17.09.2016 21:30 13,2 C 88 % 1010,6 hPa 0,0 l/m 9,5 km/h (2 Bft) W-SW 239 0 min 0,000 mm 0,0 UV-I 0 W/m 11,3 C 11,4 C 19,3 km/h (3 Bft) 97,87 %
17.09.2016 21:32 13,2 C 88 % 1010,6 hPa 0,0 l/m 8,8 km/h (2 Bft) SW 231 0 min 0,000 mm 0,0 UV-I 0 W/m 11,3 C 11,8 C 14,5 km/h (3 Bft) 97,87 %
17.09.2016 21:34 13,2 C 88 % 1010,5 hPa 0,0 l/m 9,0 km/h (2 Bft) S-SW 200 0 min 0,000 mm 0,0 UV-I 0 W/m 11,3 C 11,6 C 12,9 km/h (3 Bft) 97,87 %
17.09.2016 21:36 13,2 C 88 % 1010,5 hPa 0,0 l/m 11,9 km/h (2 Bft) S-SW 212 0 min 0,000 mm 0,0 UV-I 0 W/m 11,3 C 10,2 C 19,3 km/h (3 Bft) 93,62 %
17.09.2016 21:38 13,2 C 88 % 1010,5 hPa 0,0 l/m 11,9 km/h (2 Bft) S-SO 154 0 min 0,000 mm 0,0 UV-I 0 W/m 11,3 C 10,2 C 17,7 km/h (3 Bft) 97,87 %
17.09.2016 21:40 13,2 C 88 % 1010,5 hPa 0,0 l/m 11,6 km/h (2 Bft) SW 229 0 min 0,000 mm 0,0 UV-I 0 W/m 11,3 C 10,4 C 17,7 km/h (3 Bft) 93,75 %
17.09.2016 21:42 13,2 C 88 % 1010,6 hPa 0,0 l/m 10,9 km/h (2 Bft) W-SW 238 0 min 0,000 mm 0,0 UV-I 0 W/m 11,3 C 10,7 C 19,3 km/h (3 Bft) 97,87 %
17.09.2016 21:44 13,2 C 88 % 1010,5 hPa 0,0 l/m 10,6 km/h (2 Bft) W-SW 252 0 min 0,000 mm 0,0 UV-I 0 W/m 11,3 C 10,8 C 17,7 km/h (3 Bft) 97,87 %
17.09.2016 21:46 13,2 C 88 % 1010,5 hPa 0,2 l/m 11,0 km/h (2 Bft) S-SW 205 0 min 0,000 mm 0,0 UV-I 0 W/m 11,3 C 10,6 C 14,5 km/h (3 Bft) 95,74 %
17.09.2016 21:48 13,2 C 88 % 1010,5 hPa 0,0 l/m 10,9 km/h (2 Bft) SW 229 0 min 0,000 mm 0,0 UV-I 0 W/m 11,3 C 10,7 C 14,5 km/h (3 Bft) 93,62 %
17.09.2016 21:50 13,2 C 89 % 1010,5 hPa 0,0 l/m 12,4 km/h (3 Bft) SW 233 0 min 0,000 mm 0,0 UV-I 0 W/m 11,4 C 10,0 C 16,1 km/h (3 Bft) 97,87 %
17.09.2016 21:52 13,2 C 89 % 1010,5 hPa 0,0 l/m 12,9 km/h (3 Bft) SW 223 0 min 0,000 mm 0,0 UV-I 0 W/m 11,4 C 9,8 C 19,3 km/h (3 Bft) 95,74 %
17.09.2016 21:54 13,1 C 89 % 1010,5 hPa 0,0 l/m 12,2 km/h (2 Bft) W-SW 245 0 min 0,000 mm 0,0 UV-I 0 W/m 11,3 C 10,0 C 20,9 km/h (4 Bft) 98,00 %
17.09.2016 21:56 13,1 C 89 % 1010,5 hPa 0,0 l/m 15,6 km/h (3 Bft) S-SW 207 0 min 0,000 mm 0,0 UV-I 0 W/m 11,3 C 8,7 C 24,1 km/h (4 Bft) 95,74 %
17.09.2016 21:58 13,1 C 89 % 1010,5 hPa 0,0 l/m 10,4 km/h (2 Bft) W-SW 250 0 min 0,000 mm 0,0 UV-I 0 W/m 11,3 C 10,8 C 17,7 km/h (3 Bft) 97,87 %
17.09.2016 22:00 13,1 C 89 % 1010,5 hPa 0,0 l/m 15,1 km/h (3 Bft) S-SW 210 0 min 0,026 mm 0,0 UV-I 0 W/m 11,3 C 8,9 C 22,5 km/h (4 Bft) 95,92 %
17.09.2016 22:02 13,1 C 89 % 1010,5 hPa 0,0 l/m 9,1 km/h (2 Bft) W-SW 237 0 min 0,000 mm 0,0 UV-I 0 W/m 11,3 C 11,5 C 14,5 km/h (3 Bft) 95,74 %
17.09.2016 22:04 13,1 C 89 % 1010,4 hPa 0,0 l/m 13,2 km/h (3 Bft) W-SW 239 0 min 0,000 mm 0,0 UV-I 0 W/m 11,3 C 9,6 C 19,3 km/h (3 Bft) 95,74 %
17.09.2016 22:06 13,1 C 89 % 1010,4 hPa 0,0 l/m 11,6 km/h (2 Bft) SW 225 0 min 0,000 mm 0,0 UV-I 0 W/m 11,3 C 10,3 C 20,9 km/h (4 Bft) 97,14 %
17.09.2016 22:08 13,1 C 89 % 1010,5 hPa 0,0 l/m 12,6 km/h (3 Bft) SW 219 0 min 0,000 mm 0,0 UV-I 0 W/m 11,3 C 9,8 C 20,9 km/h (4 Bft) 100,00 %
17.09.2016 22:10 13,1 C 89 % 1010,5 hPa 0,0 l/m 13,7 km/h (3 Bft) S-SW 205 0 min 0,000 mm 0,0 UV-I 0 W/m 11,3 C 9,4 C 22,5 km/h (4 Bft) 95,74 %
17.09.2016 22:12 13,1 C 89 % 1010,5 hPa 0,0 l/m 14,5 km/h (3 Bft) SW 231 0 min 0,000 mm 0,0 UV-I 0 W/m 11,3 C 9,1 C 22,5 km/h (4 Bft) 97,87 %
17.09.2016 22:14 13,1 C 90 % 1010,4 hPa 0,0 l/m 15,6 km/h (3 Bft) W 259 0 min 0,000 mm 0,0 UV-I 0 W/m 11,5 C 8,7 C 22,5 km/h (4 Bft) 100,00 %
17.09.2016 22:16 13,0 C 89 % 1010,4 hPa 0,0 l/m 15,4 km/h (3 Bft) W-SW 238 0 min 0,000 mm 0,0 UV-I 0 W/m 11,2 C 8,6 C 22,5 km/h (4 Bft) 100,00 %
17.09.2016 22:18 13,0 C 90 % 1010,4 hPa 0,0 l/m 14,0 km/h (3 Bft) SW 228 0 min 0,000 mm 0,0 UV-I 0 W/m 11,4 C 9,1 C 22,5 km/h (4 Bft) 100,00 %
17.09.2016 22:20 13,0 C 90 % 1010,4 hPa 0,0 l/m 11,9 km/h (2 Bft) S-SW 213 0 min 0,000 mm 0,0 UV-I 0 W/m 11,4 C 10,0 C 19,3 km/h (3 Bft) 94,44 %
17.09.2016 22:22 13,0 C 90 % 1010,5 hPa 0,0 l/m 14,8 km/h (3 Bft) SW 215 0 min 0,000 mm 0,0 UV-I 0 W/m 11,4 C 8,8 C 22,5 km/h (4 Bft) 100,00 %
17.09.2016 22:24 12,9 C 90 % 1010,5 hPa 0,0 l/m 15,4 km/h (3 Bft) SW 221 0 min 0,000 mm 0,0 UV-I 0 W/m 11,3 C 8,5 C 22,5 km/h (4 Bft) 95,74 %
17.09.2016 22:26 13,0 C 90 % 1010,4 hPa 0,0 l/m 16,4 km/h (3 Bft) SW 215 0 min 0,000 mm 0,0 UV-I 0 W/m 11,4 C 8,3 C 27,4 km/h (4 Bft) 100,00 %
17.09.2016 22:28 13,0 C 90 % 1010,5 hPa 0,0 l/m 13,7 km/h (3 Bft) W-SW 237 0 min 0,000 mm 0,0 UV-I 0 W/m 11,4 C 9,3 C 20,9 km/h (4 Bft) 100,00 %
17.09.2016 22:30 12,9 C 90 % 1010,5 hPa 0,0 l/m 11,0 km/h (2 Bft) SW 217 0 min 0,000 mm 0,0 UV-I 0 W/m 11,3 C 10,3 C 20,9 km/h (4 Bft) 100,00 %
17.09.2016 22:32 12,9 C 90 % 1010,5 hPa 0,0 l/m 11,1 km/h (2 Bft) SW 223 0 min 0,000 mm 0,0 UV-I 0 W/m 11,3 C 10,3 C 17,7 km/h (3 Bft) 100,00 %
17.09.2016 22:34 12,9 C 90 % 1010,5 hPa 0,0 l/m 13,1 km/h (3 Bft) S-SW 198 0 min 0,000 mm 0,0 UV-I 0 W/m 11,3 C 9,4 C 19,3 km/h (3 Bft) 100,00 %
17.09.2016 22:36 12,9 C 91 % 1010,5 hPa 0,0 l/m 11,3 km/h (2 Bft) SW 225 0 min 0,000 mm 0,0 UV-I 0 W/m 11,5 C 10,2 C 17,7 km/h (3 Bft) 97,96 %
17.09.2016 22:38 12,9 C 91 % 1010,5 hPa 0,0 l/m 10,9 km/h (2 Bft) W-SW 238 0 min 0,000 mm 0,0 UV-I 0 W/m 11,5 C 10,4 C 16,1 km/h (3 Bft) 97,87 %
17.09.2016 22:40 12,9 C 91 % 1010,5 hPa 0,0 l/m 10,9 km/h (2 Bft) SW 221 0 min 0,000 mm 0,0 UV-I 0 W/m 11,5 C 10,4 C 17,7 km/h (3 Bft) 100,00 %
17.09.2016 22:42 12,9 C 91 % 1010,5 hPa 0,0 l/m 14,1 km/h (3 Bft) SW 232 0 min 0,000 mm 0,0 UV-I 0 W/m 11,5 C 9,0 C 22,5 km/h (4 Bft) 95,74 %
17.09.2016 22:44 12,9 C 90 % 1010,5 hPa 0,0 l/m 10,1 km/h (2 Bft) S-SW 213 0 min 0,000 mm 0,0 UV-I 0 W/m 11,3 C 10,7 C 16,1 km/h (3 Bft) 97,37 %
17.09.2016 22:46 12,9 C 90 % 1010,5 hPa 0,0 l/m 12,2 km/h (2 Bft) S 173 0 min 0,000 mm 0,0 UV-I 0 W/m 11,3 C 9,8 C 20,9 km/h (4 Bft) 100,00 %
17.09.2016 22:48 12,9 C 90 % 1010,5 hPa 0,0 l/m 10,6 km/h (2 Bft) W-SW 248 0 min 0,000 mm 0,0 UV-I 0 W/m 11,3 C 10,5 C 19,3 km/h (3 Bft) 100,00 %
17.09.2016 22:50 12,9 C 90 % 1010,6 hPa 0,0 l/m 10,3 km/h (2 Bft) S-SW 211 0 min 0,000 mm 0,0 UV-I 0 W/m 11,3 C 10,6 C 17,7 km/h (3 Bft) 100,00 %
17.09.2016 22:52 13,0 C 90 % 1010,6 hPa 0,0 l/m 12,0 km/h (2 Bft) S-SW 202 0 min 0,000 mm 0,0 UV-I 0 W/m 11,4 C 10,0 C 19,3 km/h (3 Bft) 100,00 %
17.09.2016 22:54 13,1 C 90 % 1010,5 hPa 0,0 l/m 11,2 km/h (2 Bft) SW 221 0 min 0,000 mm 0,0 UV-I 0 W/m 11,5 C 10,4 C 17,7 km/h (3 Bft) 100,00 %
17.09.2016 22:56 13,1 C 90 % 1010,5 hPa 0,0 l/m 10,9 km/h (2 Bft) W-SW 238 0 min 0,000 mm 0,0 UV-I 0 W/m 11,5 C 10,6 C 17,7 km/h (3 Bft) 100,00 %
17.09.2016 22:58 13,1 C 90 % 1010,6 hPa 0,0 l/m 13,6 km/h (3 Bft) W-SW 257 0 min 0,000 mm 0,0 UV-I 0 W/m 11,5 C 9,4 C 19,3 km/h (3 Bft) 95,83 %
17.09.2016 23:00 13,1 C 90 % 1010,6 hPa 0,0 l/m 12,5 km/h (3 Bft) W-SW 257 0 min 0,000 mm 0,0 UV-I 0 W/m 11,5 C 9,9 C 19,3 km/h (3 Bft) 97,87 %
17.09.2016 23:02 13,2 C 90 % 1010,6 hPa 0,0 l/m 12,5 km/h (3 Bft) SW 223 0 min 0,025 mm 0,0 UV-I 0 W/m 11,6 C 10,0 C 17,7 km/h (3 Bft) 97,87 %
17.09.2016 23:04 13,2 C 89 % 1010,7 hPa 0,0 l/m 11,7 km/h (2 Bft) SW 233 0 min 0,000 mm 0,0 UV-I 0 W/m 11,4 C 10,3 C 24,1 km/h (4 Bft) 98,00 %
17.09.2016 23:06 13,2 C 89 % 1010,6 hPa 0,0 l/m 12,3 km/h (3 Bft) S 178 0 min 0,000 mm 0,0 UV-I 0 W/m 11,4 C 10,1 C 19,3 km/h (3 Bft) 100,00 %
17.09.2016 23:08 13,3 C 89 % 1010,7 hPa 0,0 l/m 11,3 km/h (2 Bft) SW 232 0 min 0,000 mm 0,0 UV-I 0 W/m 11,5 C 10,6 C 19,3 km/h (3 Bft) 100,00 %
17.09.2016 23:10 13,3 C 89 % 1010,7 hPa 0,0 l/m 15,9 km/h (3 Bft) W-SW 238 0 min 0,000 mm 0,0 UV-I 0 W/m 11,5 C 8,8 C 22,5 km/h (4 Bft) 100,00 %
17.09.2016 23:12 13,3 C 89 % 1010,6 hPa 0,0 l/m 14,3 km/h (3 Bft) S-SW 207 0 min 0,000 mm 0,0 UV-I 0 W/m 11,5 C 9,4 C 22,5 km/h (4 Bft) 100,00 %
17.09.2016 23:14 13,3 C 89 % 1010,6 hPa 0,0 l/m 14,8 km/h (3 Bft) SW 225 0 min 0,000 mm 0,0 UV-I 0 W/m 11,5 C 9,2 C 24,1 km/h (4 Bft) 100,00 %
17.09.2016 23:16 13,3 C 89 % 1010,7 hPa 0,0 l/m 12,5 km/h (3 Bft) W-SW 242 0 min 0,000 mm 0,0 UV-I 0 W/m 11,5 C 10,1 C 19,3 km/h (3 Bft) 100,00 %
17.09.2016 23:18 13,3 C 89 % 1010,6 hPa 0,0 l/m 14,1 km/h (3 Bft) S-SW 205 0 min 0,000 mm 0,0 UV-I 0 W/m 11,5 C 9,5 C 20,9 km/h (4 Bft) 100,00 %
17.09.2016 23:20 13,3 C 89 % 1010,7 hPa 0,0 l/m 12,4 km/h (3 Bft) SW 219 0 min 0,000 mm 0,0 UV-I 0 W/m 11,5 C 10,1 C 20,9 km/h (4 Bft) 100,00 %
17.09.2016 23:22 13,3 C 89 % 1010,7 hPa 0,0 l/m 12,8 km/h (3 Bft) SW 228 0 min 0,000 mm 0,0 UV-I 0 W/m 11,5 C 10,0 C 19,3 km/h (3 Bft) 97,87 %
17.09.2016 23:24 13,3 C 89 % 1010,7 hPa 0,0 l/m 10,4 km/h (2 Bft) SW 216 0 min 0,000 mm 0,0 UV-I 0 W/m 11,5 C 11,0 C 17,7 km/h (3 Bft) 100,00 %
17.09.2016 23:26 13,3 C 89 % 1010,7 hPa 0,0 l/m 10,9 km/h (2 Bft) SW 221 0 min 0,000 mm 0,0 UV-I 0 W/m 11,5 C 10,8 C 17,7 km/h (3 Bft) 100,00 %
17.09.2016 23:28 13,3 C 89 % 1010,7 hPa 0,0 l/m 12,2 km/h (2 Bft) W-SW 245 0 min 0,000 mm 0,0 UV-I 0 W/m 11,5 C 10,2 C 17,7 km/h (3 Bft) 97,87 %
17.09.2016 23:30 13,3 C 89 % 1010,6 hPa 0,0 l/m 10,2 km/h (2 Bft) S-SW 209 0 min 0,000 mm 0,0 UV-I 0 W/m 11,5 C 11,1 C 14,5 km/h (3 Bft) 100,00 %
17.09.2016 23:32 13,3 C 89 % 1010,7 hPa 0,0 l/m 9,7 km/h (2 Bft) W-SW 249 0 min 0,000 mm 0,0 UV-I 0 W/m 11,5 C 11,4 C 14,5 km/h (3 Bft) 100,00 %
17.09.2016 23:34 13,3 C 90 % 1010,7 hPa 0,0 l/m 9,5 km/h (2 Bft) S-SW 205 0 min 0,000 mm 0,0 UV-I 0 W/m 11,7 C 11,5 C 16,1 km/h (3 Bft) 100,00 %
17.09.2016 23:36 13,2 C 90 % 1010,7 hPa 0,0 l/m 11,2 km/h (2 Bft) SW 221 0 min 0,000 mm 0,0 UV-I 0 W/m 11,6 C 10,6 C 17,7 km/h (3 Bft) 100,00 %
17.09.2016 23:38 13,2 C 90 % 1010,7 hPa 0,0 l/m 9,1 km/h (2 Bft) SW 230 0 min 0,000 mm 0,0 UV-I 0 W/m 11,6 C 11,6 C 14,5 km/h (3 Bft) 98,00 %
17.09.2016 23:40 13,2 C 90 % 1010,7 hPa 0,0 l/m 9,0 km/h (2 Bft) SW 229 0 min 0,000 mm 0,0 UV-I 0 W/m 11,6 C 11,6 C 14,5 km/h (3 Bft) 95,83 %
17.09.2016 23:42 13,2 C 90 % 1010,7 hPa 0,0 l/m 11,2 km/h (2 Bft) SW 236 0 min 0,000 mm 0,0 UV-I 0 W/m 11,6 C 10,6 C 16,1 km/h (3 Bft) 96,00 %
17.09.2016 23:44 13,2 C 91 % 1010,7 hPa 0,0 l/m 7,5 km/h (2 Bft) S-SW 206 0 min 0,000 mm 0,0 UV-I 0 W/m 11,8 C 12,5 C 12,9 km/h (3 Bft) 97,37 %
17.09.2016 23:46 13,1 C 91 % 1010,7 hPa 0,0 l/m 8,8 km/h (2 Bft) W-SW 238 0 min 0,000 mm 0,0 UV-I 0 W/m 11,7 C 11,7 C 16,1 km/h (3 Bft) 97,87 %
17.09.2016 23:48 13,1 C 91 % 1010,7 hPa 0,0 l/m 8,4 km/h (2 Bft) W-SW 239 0 min 0,000 mm 0,0 UV-I 0 W/m 11,7 C 11,9 C 14,5 km/h (3 Bft) 98,00 %
17.09.2016 23:50 13,1 C 91 % 1010,7 hPa 0,0 l/m 8,7 km/h (2 Bft) S-SW 200 0 min 0,000 mm 0,0 UV-I 0 W/m 11,7 C 11,7 C 16,1 km/h (3 Bft) 97,87 %
17.09.2016 23:52 13,1 C 91 % 1010,7 hPa 0,0 l/m 8,8 km/h (2 Bft) W-SW 240 0 min 0,000 mm 0,0 UV-I 0 W/m 11,7 C 11,7 C 14,5 km/h (3 Bft) 97,87 %
17.09.2016 23:54 13,1 C 91 % 1010,8 hPa 0,0 l/m 9,7 km/h (2 Bft) SW 231 0 min 0,000 mm 0,0 UV-I 0 W/m 11,7 C 11,2 C 14,5 km/h (3 Bft) 98,00 %
17.09.2016 23:56 13,1 C 91 % 1010,8 hPa 0,0 l/m 6,6 km/h (2 Bft) S-SW 200 0 min 0,000 mm 0,0 UV-I 0 W/m 11,7 C 13,0 C 9,7 km/h (2 Bft) 97,87 %
17.09.2016 23:58 13,1 C 91 % 1010,8 hPa 0,0 l/m 7,7 km/h (2 Bft) W-SW 249 0 min 0,000 mm 0,0 UV-I 0 W/m 11,7 C 12,3 C 14,5 km/h (3 Bft) 95,74 %
_ Min-Zeit 18:36 16:28 04:46 - 00:16 - - - - - - 19:06 13:30 00:16 04:10
Minimum _ 12,8 C 83 % 1007,0 hPa - 0,5 km/h (0 Bft) - - - - - - 11,1 C 4,7 C 1,6 km/h (1 Bft) 91,30 %
_ Max-Zeit 00:00 06:28 23:54 06:38 10:40 - - 00:00 10:00 11:02 09:56 01:50 00:00 13:30 00:04
Maximum _ 18,0 C 95 % 1010,8 hPa 0,4 l/m 30,9 km/h
S-SW (5 Bft)
- - 0 min 0,077 mm 0,8 UV-I 175 W/m 16,8 C 17,9 C 53,1 km/h
SW (7 Bft)
100,00 %
Durchschnitt _ 14,3 C 91 % 1008,8 hPa #18,8 l/m 16,5 km/h (3 Bft) SW - #0 min. #0,838 mm 0,6 UV-I 61 W/m 12,9 C 10,0 C 26,3 km/h (4 Bft) 98,41 %